<?xml version="1.0" encoding="UTF-8" standalone="no" ?>
<gpx xmlns="http://www.topografix.com/GPX/1/1" xmlns:xsi="http://www.w3.org/2001/XMLSchema-instance" xsi:schemaLocation="http://www.topografix.com/GPX/1/1 http://www.topografix.com/GPX/1/1/gpx.xsd" version="1.1" creator="VisuGPX - https://www.visugpx.com">
  <metadata>
    <name>Urdax_21.6/1100D+</name>
    <desc><![CDATA[Très beau parcours sur URDAX. Panorama extra]]></desc>
  </metadata>
  <wpt lat="43.26192" lon="-1.45679">
    <ele>677.5</ele>
    <name><![CDATA[Pente raide]]></name>
  </wpt>
  <trk>
    <name><![CDATA[Urdax_1]]></name>
    <desc><![CDATA[Grosse première partie - Retour très roulant - Beaux sentiers en général.]]></desc>
    <extensions>
      <line xmlns="http://www.topografix.com/GPX/gpx_style/0/2">
        <color>0000FF</color>
        <width>4</width>
          <extensions>
            <sens>1</sens>
          </extensions>
      </line>
    </extensions>
    <trkseg>
      <trkpt lat="43.26644" lon="-1.50368">
        <ele>94.63</ele>
        <time>2025-05-07T13:47:42.000Z</time>
      </trkpt>
      <trkpt lat="43.26642" lon="-1.50363">
        <ele>94.6</ele>
        <time>2025-05-07T13:47:42.001Z</time>
      </trkpt>
      <trkpt lat="43.26645" lon="-1.50354">
        <ele>94.63</ele>
        <time>2025-05-07T13:47:42.005Z</time>
      </trkpt>
      <trkpt lat="43.26655" lon="-1.50332">
        <ele>94.74</ele>
        <time>2025-05-07T13:47:42.015Z</time>
      </trkpt>
      <trkpt lat="43.26667" lon="-1.50319">
        <ele>94.83</ele>
        <time>2025-05-07T13:47:42.030Z</time>
      </trkpt>
      <trkpt lat="43.26673" lon="-1.50315">
        <ele>95.03</ele>
        <time>2025-05-07T13:47:42.047Z</time>
      </trkpt>
      <trkpt lat="43.26683" lon="-1.50296">
        <ele>95.28</ele>
        <time>2025-05-07T13:47:42.070Z</time>
      </trkpt>
      <trkpt lat="43.26691" lon="-1.50283">
        <ele>95.7</ele>
        <time>2025-05-07T13:47:42.097Z</time>
      </trkpt>
      <trkpt lat="43.26702" lon="-1.50276">
        <ele>96.31</ele>
        <time>2025-05-07T13:47:42.128Z</time>
      </trkpt>
      <trkpt lat="43.26712" lon="-1.50275">
        <ele>97.08</ele>
        <time>2025-05-07T13:47:42.163Z</time>
      </trkpt>
      <trkpt lat="43.26716" lon="-1.50267">
        <ele>98.07</ele>
        <time>2025-05-07T13:47:42.200Z</time>
      </trkpt>
      <trkpt lat="43.26723" lon="-1.50256">
        <ele>99.3</ele>
        <time>2025-05-07T13:47:42.241Z</time>
      </trkpt>
      <trkpt lat="43.26738" lon="-1.50242">
        <ele>100.84</ele>
        <time>2025-05-07T13:47:42.288Z</time>
      </trkpt>
      <trkpt lat="43.26748" lon="-1.50236">
        <ele>102.45</ele>
        <time>2025-05-07T13:47:42.338Z</time>
      </trkpt>
      <trkpt lat="43.26766" lon="-1.50226">
        <ele>104.18</ele>
        <time>2025-05-07T13:47:42.395Z</time>
      </trkpt>
      <trkpt lat="43.26782" lon="-1.50203">
        <ele>106.2</ele>
        <time>2025-05-07T13:47:42.459Z</time>
      </trkpt>
      <trkpt lat="43.26802" lon="-1.50169">
        <ele>108.59</ele>
        <time>2025-05-07T13:47:42.534Z</time>
      </trkpt>
      <trkpt lat="43.26805" lon="-1.50164">
        <ele>110.8</ele>
        <time>2025-05-07T13:47:42.611Z</time>
      </trkpt>
      <trkpt lat="43.26818" lon="-1.50149">
        <ele>113.12</ele>
        <time>2025-05-07T13:47:42.693Z</time>
      </trkpt>
      <trkpt lat="43.26827" lon="-1.50145">
        <ele>115.25</ele>
        <time>2025-05-07T13:47:42.779Z</time>
      </trkpt>
      <trkpt lat="43.26837" lon="-1.50135">
        <ele>117.35</ele>
        <time>2025-05-07T13:47:42.869Z</time>
      </trkpt>
      <trkpt lat="43.2685" lon="-1.50096">
        <ele>120.3</ele>
        <time>2025-05-07T13:47:42.969Z</time>
      </trkpt>
      <trkpt lat="43.26851" lon="-1.50094">
        <ele>122.67</ele>
        <time>2025-05-07T13:47:43.070Z</time>
      </trkpt>
      <trkpt lat="43.26857" lon="-1.50071">
        <ele>125.3</ele>
        <time>2025-05-07T13:47:43.177Z</time>
      </trkpt>
      <trkpt lat="43.26861" lon="-1.50047">
        <ele>127.8</ele>
        <time>2025-05-07T13:47:43.290Z</time>
      </trkpt>
      <trkpt lat="43.26858" lon="-1.50012">
        <ele>130.46</ele>
        <time>2025-05-07T13:47:43.411Z</time>
      </trkpt>
      <trkpt lat="43.26861" lon="-1.49999">
        <ele>132.79</ele>
        <time>2025-05-07T13:47:43.536Z</time>
      </trkpt>
      <trkpt lat="43.26867" lon="-1.49986">
        <ele>135.08</ele>
        <time>2025-05-07T13:47:43.664Z</time>
      </trkpt>
      <trkpt lat="43.26872" lon="-1.4998">
        <ele>137.11</ele>
        <time>2025-05-07T13:47:43.794Z</time>
      </trkpt>
      <trkpt lat="43.26897" lon="-1.49955">
        <ele>139.11</ele>
        <time>2025-05-07T13:47:43.935Z</time>
      </trkpt>
      <trkpt lat="43.26901" lon="-1.49951">
        <ele>140.9</ele>
        <time>2025-05-07T13:47:44.077Z</time>
      </trkpt>
      <trkpt lat="43.26915" lon="-1.49936">
        <ele>142.58</ele>
        <time>2025-05-07T13:47:44.225Z</time>
      </trkpt>
      <trkpt lat="43.26939" lon="-1.49908">
        <ele>144.11</ele>
        <time>2025-05-07T13:47:44.384Z</time>
      </trkpt>
      <trkpt lat="43.26957" lon="-1.49887">
        <ele>145.67</ele>
        <time>2025-05-07T13:47:44.551Z</time>
      </trkpt>
      <trkpt lat="43.26979" lon="-1.49857">
        <ele>147.35</ele>
        <time>2025-05-07T13:47:44.728Z</time>
      </trkpt>
      <trkpt lat="43.2699" lon="-1.49842">
        <ele>148.84</ele>
        <time>2025-05-07T13:47:44.910Z</time>
      </trkpt>
      <trkpt lat="43.27001" lon="-1.49828">
        <ele>150.34</ele>
        <time>2025-05-07T13:47:45.097Z</time>
      </trkpt>
      <trkpt lat="43.27006" lon="-1.49817">
        <ele>151.81</ele>
        <time>2025-05-07T13:47:45.287Z</time>
      </trkpt>
      <trkpt lat="43.27016" lon="-1.49791">
        <ele>153.37</ele>
        <time>2025-05-07T13:47:45.485Z</time>
      </trkpt>
      <trkpt lat="43.2703" lon="-1.49785">
        <ele>154.86</ele>
        <time>2025-05-07T13:47:45.687Z</time>
      </trkpt>
      <trkpt lat="43.27043" lon="-1.49781">
        <ele>156.32</ele>
        <time>2025-05-07T13:47:45.894Z</time>
      </trkpt>
      <trkpt lat="43.27056" lon="-1.4977">
        <ele>157.7</ele>
        <time>2025-05-07T13:47:46.106Z</time>
      </trkpt>
      <trkpt lat="43.27063" lon="-1.49756">
        <ele>159.05</ele>
        <time>2025-05-07T13:47:46.322Z</time>
      </trkpt>
      <trkpt lat="43.27065" lon="-1.49713">
        <ele>160.51</ele>
        <time>2025-05-07T13:47:46.549Z</time>
      </trkpt>
      <trkpt lat="43.27066" lon="-1.49703">
        <ele>161.86</ele>
        <time>2025-05-07T13:47:46.778Z</time>
      </trkpt>
      <trkpt lat="43.27075" lon="-1.49675">
        <ele>163.13</ele>
        <time>2025-05-07T13:47:47.015Z</time>
      </trkpt>
      <trkpt lat="43.27076" lon="-1.49662">
        <ele>164.37</ele>
        <time>2025-05-07T13:47:47.255Z</time>
      </trkpt>
      <trkpt lat="43.27073" lon="-1.49645">
        <ele>165.61</ele>
        <time>2025-05-07T13:47:47.499Z</time>
      </trkpt>
      <trkpt lat="43.27055" lon="-1.49618">
        <ele>166.96</ele>
        <time>2025-05-07T13:47:47.752Z</time>
      </trkpt>
      <trkpt lat="43.2705" lon="-1.49605">
        <ele>168.12</ele>
        <time>2025-05-07T13:47:48.008Z</time>
      </trkpt>
      <trkpt lat="43.27047" lon="-1.49576">
        <ele>169.15</ele>
        <time>2025-05-07T13:47:48.272Z</time>
      </trkpt>
      <trkpt lat="43.27039" lon="-1.49534">
        <ele>170.51</ele>
        <time>2025-05-07T13:47:48.546Z</time>
      </trkpt>
      <trkpt lat="43.27037" lon="-1.49522">
        <ele>171.57</ele>
        <time>2025-05-07T13:47:48.823Z</time>
      </trkpt>
      <trkpt lat="43.27032" lon="-1.49491">
        <ele>172.71</ele>
        <time>2025-05-07T13:47:49.108Z</time>
      </trkpt>
      <trkpt lat="43.27025" lon="-1.4945">
        <ele>173.65</ele>
        <time>2025-05-07T13:47:49.403Z</time>
      </trkpt>
      <trkpt lat="43.27028" lon="-1.49426">
        <ele>174.13</ele>
        <time>2025-05-07T13:47:49.704Z</time>
      </trkpt>
      <trkpt lat="43.2703" lon="-1.49417">
        <ele>174.46</ele>
        <time>2025-05-07T13:47:50.007Z</time>
      </trkpt>
      <trkpt lat="43.27037" lon="-1.49405">
        <ele>174.73</ele>
        <time>2025-05-07T13:47:50.314Z</time>
      </trkpt>
      <trkpt lat="43.27048" lon="-1.49387">
        <ele>174.8</ele>
        <time>2025-05-07T13:47:50.627Z</time>
      </trkpt>
      <trkpt lat="43.27067" lon="-1.49381">
        <ele>174.62</ele>
        <time>2025-05-07T13:47:50.946Z</time>
      </trkpt>
      <trkpt lat="43.27079" lon="-1.49381">
        <ele>174.3</ele>
        <time>2025-05-07T13:47:51.269Z</time>
      </trkpt>
      <trkpt lat="43.27073" lon="-1.49374">
        <ele>173.94</ele>
        <time>2025-05-07T13:47:51.595Z</time>
      </trkpt>
      <trkpt lat="43.2705" lon="-1.49371">
        <ele>173.5</ele>
        <time>2025-05-07T13:47:51.929Z</time>
      </trkpt>
      <trkpt lat="43.27034" lon="-1.49369">
        <ele>172.9</ele>
        <time>2025-05-07T13:47:52.268Z</time>
      </trkpt>
      <trkpt lat="43.27013" lon="-1.49352">
        <ele>172.13</ele>
        <time>2025-05-07T13:47:52.615Z</time>
      </trkpt>
      <trkpt lat="43.27001" lon="-1.49336">
        <ele>171.19</ele>
        <time>2025-05-07T13:47:52.968Z</time>
      </trkpt>
      <trkpt lat="43.2699" lon="-1.49314">
        <ele>170.09</ele>
        <time>2025-05-07T13:47:53.327Z</time>
      </trkpt>
      <trkpt lat="43.26978" lon="-1.49278">
        <ele>168.72</ele>
        <time>2025-05-07T13:47:53.696Z</time>
      </trkpt>
      <trkpt lat="43.26974" lon="-1.4927">
        <ele>167.32</ele>
        <time>2025-05-07T13:47:54.067Z</time>
      </trkpt>
      <trkpt lat="43.26964" lon="-1.49256">
        <ele>165.64</ele>
        <time>2025-05-07T13:47:54.443Z</time>
      </trkpt>
      <trkpt lat="43.26953" lon="-1.49243">
        <ele>163.78</ele>
        <time>2025-05-07T13:47:54.824Z</time>
      </trkpt>
      <trkpt lat="43.26941" lon="-1.49236">
        <ele>161.89</ele>
        <time>2025-05-07T13:47:55.209Z</time>
      </trkpt>
      <trkpt lat="43.26912" lon="-1.49219">
        <ele>159.74</ele>
        <time>2025-05-07T13:47:55.605Z</time>
      </trkpt>
      <trkpt lat="43.26902" lon="-1.49213">
        <ele>157.69</ele>
        <time>2025-05-07T13:47:56.004Z</time>
      </trkpt>
      <trkpt lat="43.26878" lon="-1.49206">
        <ele>155.53</ele>
        <time>2025-05-07T13:47:56.412Z</time>
      </trkpt>
      <trkpt lat="43.26847" lon="-1.49207">
        <ele>153.57</ele>
        <time>2025-05-07T13:47:56.830Z</time>
      </trkpt>
      <trkpt lat="43.26843" lon="-1.49207">
        <ele>151.78</ele>
        <time>2025-05-07T13:47:57.249Z</time>
      </trkpt>
      <trkpt lat="43.26831" lon="-1.49204">
        <ele>150.03</ele>
        <time>2025-05-07T13:47:57.672Z</time>
      </trkpt>
      <trkpt lat="43.26827" lon="-1.49199">
        <ele>148.3</ele>
        <time>2025-05-07T13:47:58.097Z</time>
      </trkpt>
      <trkpt lat="43.26816" lon="-1.49182">
        <ele>146.54</ele>
        <time>2025-05-07T13:47:58.528Z</time>
      </trkpt>
      <trkpt lat="43.26808" lon="-1.49157">
        <ele>145.04</ele>
        <time>2025-05-07T13:47:58.965Z</time>
      </trkpt>
      <trkpt lat="43.26805" lon="-1.49133">
        <ele>143.9</ele>
        <time>2025-05-07T13:47:59.408Z</time>
      </trkpt>
      <trkpt lat="43.26806" lon="-1.49124">
        <ele>143.09</ele>
        <time>2025-05-07T13:47:59.853Z</time>
      </trkpt>
      <trkpt lat="43.26816" lon="-1.49103">
        <ele>142.5</ele>
        <time>2025-05-07T13:48:00.304Z</time>
      </trkpt>
      <trkpt lat="43.26828" lon="-1.49097">
        <ele>142.14</ele>
        <time>2025-05-07T13:48:00.760Z</time>
      </trkpt>
      <trkpt lat="43.2684" lon="-1.49097">
        <ele>142.17</ele>
        <time>2025-05-07T13:48:01.220Z</time>
      </trkpt>
      <trkpt lat="43.26844" lon="-1.49099">
        <ele>142.47</ele>
        <time>2025-05-07T13:48:01.681Z</time>
      </trkpt>
      <trkpt lat="43.26864" lon="-1.49109">
        <ele>143.09</ele>
        <time>2025-05-07T13:48:02.149Z</time>
      </trkpt>
      <trkpt lat="43.26886" lon="-1.49112">
        <ele>144.04</ele>
        <time>2025-05-07T13:48:02.625Z</time>
      </trkpt>
      <trkpt lat="43.26896" lon="-1.49109">
        <ele>145.31</ele>
        <time>2025-05-07T13:48:03.104Z</time>
      </trkpt>
      <trkpt lat="43.26909" lon="-1.49099">
        <ele>146.99</ele>
        <time>2025-05-07T13:48:03.588Z</time>
      </trkpt>
      <trkpt lat="43.26914" lon="-1.49094">
        <ele>148.78</ele>
        <time>2025-05-07T13:48:04.074Z</time>
      </trkpt>
      <trkpt lat="43.26928" lon="-1.49073">
        <ele>150.98</ele>
        <time>2025-05-07T13:48:04.567Z</time>
      </trkpt>
      <trkpt lat="43.26932" lon="-1.49056">
        <ele>153.36</ele>
        <time>2025-05-07T13:48:05.064Z</time>
      </trkpt>
      <trkpt lat="43.26935" lon="-1.49035">
        <ele>155.98</ele>
        <time>2025-05-07T13:48:05.567Z</time>
      </trkpt>
      <trkpt lat="43.26941" lon="-1.49017">
        <ele>158.72</ele>
        <time>2025-05-07T13:48:06.074Z</time>
      </trkpt>
      <trkpt lat="43.26949" lon="-1.49005">
        <ele>161.54</ele>
        <time>2025-05-07T13:48:06.585Z</time>
      </trkpt>
      <trkpt lat="43.26958" lon="-1.48997">
        <ele>164.46</ele>
        <time>2025-05-07T13:48:07.100Z</time>
      </trkpt>
      <trkpt lat="43.26965" lon="-1.48991">
        <ele>167.45</ele>
        <time>2025-05-07T13:48:07.618Z</time>
      </trkpt>
      <trkpt lat="43.26982" lon="-1.48985">
        <ele>170.48</ele>
        <time>2025-05-07T13:48:08.142Z</time>
      </trkpt>
      <trkpt lat="43.27013" lon="-1.4898">
        <ele>173.7</ele>
        <time>2025-05-07T13:48:08.676Z</time>
      </trkpt>
      <trkpt lat="43.27018" lon="-1.48979">
        <ele>176.71</ele>
        <time>2025-05-07T13:48:09.212Z</time>
      </trkpt>
      <trkpt lat="43.27043" lon="-1.48977">
        <ele>179.74</ele>
        <time>2025-05-07T13:48:09.756Z</time>
      </trkpt>
      <trkpt lat="43.27059" lon="-1.48977">
        <ele>182.66</ele>
        <time>2025-05-07T13:48:10.305Z</time>
      </trkpt>
      <trkpt lat="43.27071" lon="-1.48972">
        <ele>185.62</ele>
        <time>2025-05-07T13:48:10.858Z</time>
      </trkpt>
      <trkpt lat="43.27097" lon="-1.48948">
        <ele>189.02</ele>
        <time>2025-05-07T13:48:11.422Z</time>
      </trkpt>
      <trkpt lat="43.27101" lon="-1.48945">
        <ele>191.9</ele>
        <time>2025-05-07T13:48:11.987Z</time>
      </trkpt>
      <trkpt lat="43.27114" lon="-1.48928">
        <ele>195</ele>
        <time>2025-05-07T13:48:12.558Z</time>
      </trkpt>
      <trkpt lat="43.27131" lon="-1.48902">
        <ele>198.09</ele>
        <time>2025-05-07T13:48:13.138Z</time>
      </trkpt>
      <trkpt lat="43.27134" lon="-1.48896">
        <ele>200.68</ele>
        <time>2025-05-07T13:48:13.720Z</time>
      </trkpt>
      <trkpt lat="43.27128" lon="-1.48895">
        <ele>203.15</ele>
        <time>2025-05-07T13:48:14.304Z</time>
      </trkpt>
      <trkpt lat="43.27134" lon="-1.48896">
        <ele>200.68</ele>
        <time>2025-05-07T13:48:14.890Z</time>
      </trkpt>
      <trkpt lat="43.27142" lon="-1.48882">
        <ele>207.67</ele>
        <time>2025-05-07T13:48:15.480Z</time>
      </trkpt>
      <trkpt lat="43.27148" lon="-1.48872">
        <ele>209.83</ele>
        <time>2025-05-07T13:48:16.073Z</time>
      </trkpt>
      <trkpt lat="43.27156" lon="-1.48864">
        <ele>211.81</ele>
        <time>2025-05-07T13:48:16.670Z</time>
      </trkpt>
      <trkpt lat="43.2716" lon="-1.48862">
        <ele>213.62</ele>
        <time>2025-05-07T13:48:17.268Z</time>
      </trkpt>
      <trkpt lat="43.27185" lon="-1.48862">
        <ele>215.12</ele>
        <time>2025-05-07T13:48:17.874Z</time>
      </trkpt>
      <trkpt lat="43.27205" lon="-1.48858">
        <ele>216.76</ele>
        <time>2025-05-07T13:48:18.487Z</time>
      </trkpt>
      <trkpt lat="43.27229" lon="-1.48844">
        <ele>218.43</ele>
        <time>2025-05-07T13:48:19.109Z</time>
      </trkpt>
      <trkpt lat="43.27255" lon="-1.4882">
        <ele>220.05</ele>
        <time>2025-05-07T13:48:19.741Z</time>
      </trkpt>
      <trkpt lat="43.27259" lon="-1.48817">
        <ele>221.47</ele>
        <time>2025-05-07T13:48:20.375Z</time>
      </trkpt>
      <trkpt lat="43.27277" lon="-1.48798">
        <ele>222.84</ele>
        <time>2025-05-07T13:48:21.016Z</time>
      </trkpt>
      <trkpt lat="43.27286" lon="-1.48778">
        <ele>224.26</ele>
        <time>2025-05-07T13:48:21.663Z</time>
      </trkpt>
      <trkpt lat="43.2729" lon="-1.48751">
        <ele>225.79</ele>
        <time>2025-05-07T13:48:22.317Z</time>
      </trkpt>
      <trkpt lat="43.27301" lon="-1.4871">
        <ele>227.15</ele>
        <time>2025-05-07T13:48:22.981Z</time>
      </trkpt>
      <trkpt lat="43.27306" lon="-1.48689">
        <ele>228.35</ele>
        <time>2025-05-07T13:48:23.651Z</time>
      </trkpt>
      <trkpt lat="43.27311" lon="-1.48668">
        <ele>229.47</ele>
        <time>2025-05-07T13:48:24.326Z</time>
      </trkpt>
      <trkpt lat="43.27308" lon="-1.48639">
        <ele>230.59</ele>
        <time>2025-05-07T13:48:25.008Z</time>
      </trkpt>
      <trkpt lat="43.27305" lon="-1.48617">
        <ele>231.66</ele>
        <time>2025-05-07T13:48:25.696Z</time>
      </trkpt>
      <trkpt lat="43.27299" lon="-1.48594">
        <ele>232.81</ele>
        <time>2025-05-07T13:48:26.390Z</time>
      </trkpt>
      <trkpt lat="43.27285" lon="-1.48555">
        <ele>234.23</ele>
        <time>2025-05-07T13:48:27.094Z</time>
      </trkpt>
      <trkpt lat="43.27283" lon="-1.4855">
        <ele>235.14</ele>
        <time>2025-05-07T13:48:27.800Z</time>
      </trkpt>
      <trkpt lat="43.27271" lon="-1.4853">
        <ele>236.2</ele>
        <time>2025-05-07T13:48:28.512Z</time>
      </trkpt>
      <trkpt lat="43.27263" lon="-1.48519">
        <ele>237.17</ele>
        <time>2025-05-07T13:48:29.228Z</time>
      </trkpt>
      <trkpt lat="43.27259" lon="-1.48512">
        <ele>237.92</ele>
        <time>2025-05-07T13:48:29.946Z</time>
      </trkpt>
      <trkpt lat="43.27256" lon="-1.48498">
        <ele>238.65</ele>
        <time>2025-05-07T13:48:30.667Z</time>
      </trkpt>
      <trkpt lat="43.27253" lon="-1.48476">
        <ele>239.24</ele>
        <time>2025-05-07T13:48:31.394Z</time>
      </trkpt>
      <trkpt lat="43.27255" lon="-1.48446">
        <ele>239.45</ele>
        <time>2025-05-07T13:48:32.128Z</time>
      </trkpt>
      <trkpt lat="43.27257" lon="-1.48437">
        <ele>239.63</ele>
        <time>2025-05-07T13:48:32.864Z</time>
      </trkpt>
      <trkpt lat="43.27265" lon="-1.48418">
        <ele>239.41</ele>
        <time>2025-05-07T13:48:33.606Z</time>
      </trkpt>
      <trkpt lat="43.2728" lon="-1.48393">
        <ele>239.34</ele>
        <time>2025-05-07T13:48:34.356Z</time>
      </trkpt>
      <trkpt lat="43.27288" lon="-1.48393">
        <ele>239.51</ele>
        <time>2025-05-07T13:48:35.108Z</time>
      </trkpt>
      <trkpt lat="43.27293" lon="-1.48394">
        <ele>239.67</ele>
        <time>2025-05-07T13:48:35.862Z</time>
      </trkpt>
      <trkpt lat="43.27296" lon="-1.4839">
        <ele>239.84</ele>
        <time>2025-05-07T13:48:36.617Z</time>
      </trkpt>
      <trkpt lat="43.27299" lon="-1.48372">
        <ele>240.23</ele>
        <time>2025-05-07T13:48:37.377Z</time>
      </trkpt>
      <trkpt lat="43.27301" lon="-1.48354">
        <ele>240.69</ele>
        <time>2025-05-07T13:48:38.141Z</time>
      </trkpt>
      <trkpt lat="43.27304" lon="-1.48352">
        <ele>241.02</ele>
        <time>2025-05-07T13:48:38.906Z</time>
      </trkpt>
      <trkpt lat="43.27307" lon="-1.48354">
        <ele>241.34</ele>
        <time>2025-05-07T13:48:39.673Z</time>
      </trkpt>
      <trkpt lat="43.2732" lon="-1.48379">
        <ele>241.5</ele>
        <time>2025-05-07T13:48:40.447Z</time>
      </trkpt>
      <trkpt lat="43.27342" lon="-1.48402">
        <ele>241.86</ele>
        <time>2025-05-07T13:48:41.230Z</time>
      </trkpt>
      <trkpt lat="43.27345" lon="-1.48403">
        <ele>242.34</ele>
        <time>2025-05-07T13:48:42.014Z</time>
      </trkpt>
      <trkpt lat="43.27361" lon="-1.484">
        <ele>243</ele>
        <time>2025-05-07T13:48:42.804Z</time>
      </trkpt>
      <trkpt lat="43.27391" lon="-1.48388">
        <ele>243.8</ele>
        <time>2025-05-07T13:48:43.604Z</time>
      </trkpt>
      <trkpt lat="43.27395" lon="-1.48383">
        <ele>244.64</ele>
        <time>2025-05-07T13:48:44.406Z</time>
      </trkpt>
      <trkpt lat="43.27395" lon="-1.48379">
        <ele>245.57</ele>
        <time>2025-05-07T13:48:45.209Z</time>
      </trkpt>
      <trkpt lat="43.27385" lon="-1.48379">
        <ele>246.54</ele>
        <time>2025-05-07T13:48:46.015Z</time>
      </trkpt>
      <trkpt lat="43.27368" lon="-1.48379">
        <ele>247.59</ele>
        <time>2025-05-07T13:48:46.827Z</time>
      </trkpt>
      <trkpt lat="43.27362" lon="-1.48377">
        <ele>248.76</ele>
        <time>2025-05-07T13:48:47.641Z</time>
      </trkpt>
      <trkpt lat="43.27353" lon="-1.48365">
        <ele>250.14</ele>
        <time>2025-05-07T13:48:48.459Z</time>
      </trkpt>
      <trkpt lat="43.27339" lon="-1.48327">
        <ele>251.91</ele>
        <time>2025-05-07T13:48:49.287Z</time>
      </trkpt>
      <trkpt lat="43.27334" lon="-1.48305">
        <ele>253.54</ele>
        <time>2025-05-07T13:48:50.121Z</time>
      </trkpt>
      <trkpt lat="43.27336" lon="-1.48296">
        <ele>255.2</ele>
        <time>2025-05-07T13:48:50.957Z</time>
      </trkpt>
      <trkpt lat="43.2734" lon="-1.48297">
        <ele>256.83</ele>
        <time>2025-05-07T13:48:51.795Z</time>
      </trkpt>
      <trkpt lat="43.27352" lon="-1.48312">
        <ele>258.47</ele>
        <time>2025-05-07T13:48:52.638Z</time>
      </trkpt>
      <trkpt lat="43.27361" lon="-1.48322">
        <ele>260.2</ele>
        <time>2025-05-07T13:48:53.485Z</time>
      </trkpt>
      <trkpt lat="43.27366" lon="-1.48325">
        <ele>262.07</ele>
        <time>2025-05-07T13:48:54.334Z</time>
      </trkpt>
      <trkpt lat="43.27385" lon="-1.48326">
        <ele>264.15</ele>
        <time>2025-05-07T13:48:55.189Z</time>
      </trkpt>
      <trkpt lat="43.27405" lon="-1.48322">
        <ele>266.31</ele>
        <time>2025-05-07T13:48:56.051Z</time>
      </trkpt>
      <trkpt lat="43.27431" lon="-1.4831">
        <ele>268.39</ele>
        <time>2025-05-07T13:48:56.922Z</time>
      </trkpt>
      <trkpt lat="43.27452" lon="-1.48294">
        <ele>270.67</ele>
        <time>2025-05-07T13:48:57.801Z</time>
      </trkpt>
      <trkpt lat="43.27479" lon="-1.48271">
        <ele>273.08</ele>
        <time>2025-05-07T13:48:58.691Z</time>
      </trkpt>
      <trkpt lat="43.27506" lon="-1.48249">
        <ele>275.54</ele>
        <time>2025-05-07T13:48:59.591Z</time>
      </trkpt>
      <trkpt lat="43.27516" lon="-1.4824">
        <ele>278</ele>
        <time>2025-05-07T13:49:00.495Z</time>
      </trkpt>
      <trkpt lat="43.27542" lon="-1.48216">
        <ele>280.91</ele>
        <time>2025-05-07T13:49:01.410Z</time>
      </trkpt>
      <trkpt lat="43.27558" lon="-1.48201">
        <ele>283.59</ele>
        <time>2025-05-07T13:49:02.331Z</time>
      </trkpt>
      <trkpt lat="43.27584" lon="-1.48177">
        <ele>286.29</ele>
        <time>2025-05-07T13:49:03.263Z</time>
      </trkpt>
      <trkpt lat="43.27586" lon="-1.48176">
        <ele>288.79</ele>
        <time>2025-05-07T13:49:04.195Z</time>
      </trkpt>
      <trkpt lat="43.27605" lon="-1.48151">
        <ele>291.37</ele>
        <time>2025-05-07T13:49:05.136Z</time>
      </trkpt>
      <trkpt lat="43.27596" lon="-1.4811">
        <ele>294.06</ele>
        <time>2025-05-07T13:49:06.087Z</time>
      </trkpt>
      <trkpt lat="43.27592" lon="-1.48094">
        <ele>296.57</ele>
        <time>2025-05-07T13:49:07.043Z</time>
      </trkpt>
      <trkpt lat="43.27591" lon="-1.48089">
        <ele>299.08</ele>
        <time>2025-05-07T13:49:08.000Z</time>
      </trkpt>
      <trkpt lat="43.27592" lon="-1.48089">
        <ele>301.49</ele>
        <time>2025-05-07T13:49:08.957Z</time>
      </trkpt>
      <trkpt lat="43.27583" lon="-1.48048">
        <ele>303.92</ele>
        <time>2025-05-07T13:49:09.925Z</time>
      </trkpt>
      <trkpt lat="43.27578" lon="-1.48023">
        <ele>306.38</ele>
        <time>2025-05-07T13:49:10.899Z</time>
      </trkpt>
      <trkpt lat="43.27568" lon="-1.47982">
        <ele>308.87</ele>
        <time>2025-05-07T13:49:11.883Z</time>
      </trkpt>
      <trkpt lat="43.27567" lon="-1.47976">
        <ele>311.22</ele>
        <time>2025-05-07T13:49:12.869Z</time>
      </trkpt>
      <trkpt lat="43.27559" lon="-1.47943">
        <ele>313.78</ele>
        <time>2025-05-07T13:49:13.863Z</time>
      </trkpt>
      <trkpt lat="43.27542" lon="-1.47925">
        <ele>316.43</ele>
        <time>2025-05-07T13:49:14.864Z</time>
      </trkpt>
      <trkpt lat="43.27531" lon="-1.47911">
        <ele>318.75</ele>
        <time>2025-05-07T13:49:15.870Z</time>
      </trkpt>
      <trkpt lat="43.27512" lon="-1.47883">
        <ele>321</ele>
        <time>2025-05-07T13:49:16.886Z</time>
      </trkpt>
      <trkpt lat="43.27493" lon="-1.47849">
        <ele>323.06</ele>
        <time>2025-05-07T13:49:17.912Z</time>
      </trkpt>
      <trkpt lat="43.27488" lon="-1.47841">
        <ele>324.81</ele>
        <time>2025-05-07T13:49:18.941Z</time>
      </trkpt>
      <trkpt lat="43.27479" lon="-1.47824">
        <ele>326.51</ele>
        <time>2025-05-07T13:49:19.975Z</time>
      </trkpt>
      <trkpt lat="43.27471" lon="-1.47812">
        <ele>328.16</ele>
        <time>2025-05-07T13:49:21.013Z</time>
      </trkpt>
      <trkpt lat="43.27447" lon="-1.47794">
        <ele>329.98</ele>
        <time>2025-05-07T13:49:22.060Z</time>
      </trkpt>
      <trkpt lat="43.2744" lon="-1.47787">
        <ele>331.43</ele>
        <time>2025-05-07T13:49:23.110Z</time>
      </trkpt>
      <trkpt lat="43.27438" lon="-1.47779">
        <ele>332.59</ele>
        <time>2025-05-07T13:49:24.162Z</time>
      </trkpt>
      <trkpt lat="43.27441" lon="-1.47761">
        <ele>333.35</ele>
        <time>2025-05-07T13:49:25.218Z</time>
      </trkpt>
      <trkpt lat="43.27444" lon="-1.47737">
        <ele>334.01</ele>
        <time>2025-05-07T13:49:26.280Z</time>
      </trkpt>
      <trkpt lat="43.27443" lon="-1.47722">
        <ele>334.81</ele>
        <time>2025-05-07T13:49:27.346Z</time>
      </trkpt>
      <trkpt lat="43.27438" lon="-1.47706">
        <ele>335.69</ele>
        <time>2025-05-07T13:49:28.416Z</time>
      </trkpt>
      <trkpt lat="43.27429" lon="-1.47687">
        <ele>336.74</ele>
        <time>2025-05-07T13:49:29.492Z</time>
      </trkpt>
      <trkpt lat="43.27416" lon="-1.4767">
        <ele>337.98</ele>
        <time>2025-05-07T13:49:30.574Z</time>
      </trkpt>
      <trkpt lat="43.27404" lon="-1.47653">
        <ele>339.1</ele>
        <time>2025-05-07T13:49:31.662Z</time>
      </trkpt>
      <trkpt lat="43.274" lon="-1.47652">
        <ele>340.15</ele>
        <time>2025-05-07T13:49:32.751Z</time>
      </trkpt>
      <trkpt lat="43.27398" lon="-1.47653">
        <ele>341.18</ele>
        <time>2025-05-07T13:49:33.841Z</time>
      </trkpt>
      <trkpt lat="43.27399" lon="-1.47662">
        <ele>342.24</ele>
        <time>2025-05-07T13:49:34.933Z</time>
      </trkpt>
      <trkpt lat="43.27404" lon="-1.4768">
        <ele>343.25</ele>
        <time>2025-05-07T13:49:36.029Z</time>
      </trkpt>
      <trkpt lat="43.27407" lon="-1.47698">
        <ele>344.28</ele>
        <time>2025-05-07T13:49:37.130Z</time>
      </trkpt>
      <trkpt lat="43.27405" lon="-1.47715">
        <ele>345.56</ele>
        <time>2025-05-07T13:49:38.235Z</time>
      </trkpt>
      <trkpt lat="43.274" lon="-1.47737">
        <ele>346.99</ele>
        <time>2025-05-07T13:49:39.346Z</time>
      </trkpt>
      <trkpt lat="43.27387" lon="-1.47777">
        <ele>348.79</ele>
        <time>2025-05-07T13:49:40.467Z</time>
      </trkpt>
      <trkpt lat="43.27385" lon="-1.47784">
        <ele>350.12</ele>
        <time>2025-05-07T13:49:41.590Z</time>
      </trkpt>
      <trkpt lat="43.27384" lon="-1.47784">
        <ele>351.43</ele>
        <time>2025-05-07T13:49:42.714Z</time>
      </trkpt>
      <trkpt lat="43.27378" lon="-1.47805">
        <ele>352.87</ele>
        <time>2025-05-07T13:49:43.843Z</time>
      </trkpt>
      <trkpt lat="43.27377" lon="-1.47832">
        <ele>354.24</ele>
        <time>2025-05-07T13:49:44.979Z</time>
      </trkpt>
      <trkpt lat="43.27371" lon="-1.47816">
        <ele>355.68</ele>
        <time>2025-05-07T13:49:46.119Z</time>
      </trkpt>
      <trkpt lat="43.2737" lon="-1.47808">
        <ele>357.15</ele>
        <time>2025-05-07T13:49:47.261Z</time>
      </trkpt>
      <trkpt lat="43.2737" lon="-1.47765">
        <ele>358.48</ele>
        <time>2025-05-07T13:49:48.414Z</time>
      </trkpt>
      <trkpt lat="43.2737" lon="-1.47736">
        <ele>359.9</ele>
        <time>2025-05-07T13:49:49.574Z</time>
      </trkpt>
      <trkpt lat="43.27367" lon="-1.47712">
        <ele>361.62</ele>
        <time>2025-05-07T13:49:50.740Z</time>
      </trkpt>
      <trkpt lat="43.27355" lon="-1.47672">
        <ele>363.45</ele>
        <time>2025-05-07T13:49:51.916Z</time>
      </trkpt>
      <trkpt lat="43.27355" lon="-1.47671">
        <ele>365.12</ele>
        <time>2025-05-07T13:49:53.092Z</time>
      </trkpt>
      <trkpt lat="43.27345" lon="-1.47639">
        <ele>366.93</ele>
        <time>2025-05-07T13:49:54.277Z</time>
      </trkpt>
      <trkpt lat="43.27338" lon="-1.47631">
        <ele>368.72</ele>
        <time>2025-05-07T13:49:55.465Z</time>
      </trkpt>
      <trkpt lat="43.27329" lon="-1.47625">
        <ele>370.55</ele>
        <time>2025-05-07T13:49:56.656Z</time>
      </trkpt>
      <trkpt lat="43.27317" lon="-1.47617">
        <ele>372.46</ele>
        <time>2025-05-07T13:49:57.852Z</time>
      </trkpt>
      <trkpt lat="43.27305" lon="-1.47613">
        <ele>374.45</ele>
        <time>2025-05-07T13:49:59.052Z</time>
      </trkpt>
      <trkpt lat="43.27281" lon="-1.47609">
        <ele>376.65</ele>
        <time>2025-05-07T13:50:00.260Z</time>
      </trkpt>
      <trkpt lat="43.27255" lon="-1.47603">
        <ele>378.91</ele>
        <time>2025-05-07T13:50:01.477Z</time>
      </trkpt>
      <trkpt lat="43.27246" lon="-1.47598">
        <ele>380.74</ele>
        <time>2025-05-07T13:50:02.697Z</time>
      </trkpt>
      <trkpt lat="43.27243" lon="-1.47595">
        <ele>382.39</ele>
        <time>2025-05-07T13:50:03.918Z</time>
      </trkpt>
      <trkpt lat="43.2724" lon="-1.47587">
        <ele>383.95</ele>
        <time>2025-05-07T13:50:05.141Z</time>
      </trkpt>
      <trkpt lat="43.27239" lon="-1.47577">
        <ele>385.4</ele>
        <time>2025-05-07T13:50:06.367Z</time>
      </trkpt>
      <trkpt lat="43.27243" lon="-1.4754">
        <ele>386.66</ele>
        <time>2025-05-07T13:50:07.602Z</time>
      </trkpt>
      <trkpt lat="43.27246" lon="-1.47524">
        <ele>387.92</ele>
        <time>2025-05-07T13:50:08.841Z</time>
      </trkpt>
      <trkpt lat="43.27246" lon="-1.47504">
        <ele>389.16</ele>
        <time>2025-05-07T13:50:10.085Z</time>
      </trkpt>
      <trkpt lat="43.27242" lon="-1.47461">
        <ele>390.55</ele>
        <time>2025-05-07T13:50:11.339Z</time>
      </trkpt>
      <trkpt lat="43.27241" lon="-1.47455">
        <ele>391.79</ele>
        <time>2025-05-07T13:50:12.595Z</time>
      </trkpt>
      <trkpt lat="43.27236" lon="-1.47413">
        <ele>393.02</ele>
        <time>2025-05-07T13:50:13.861Z</time>
      </trkpt>
      <trkpt lat="43.27235" lon="-1.47409">
        <ele>394.2</ele>
        <time>2025-05-07T13:50:15.128Z</time>
      </trkpt>
      <trkpt lat="43.27229" lon="-1.47394">
        <ele>395.54</ele>
        <time>2025-05-07T13:50:16.399Z</time>
      </trkpt>
      <trkpt lat="43.2722" lon="-1.47381">
        <ele>396.89</ele>
        <time>2025-05-07T13:50:17.675Z</time>
      </trkpt>
      <trkpt lat="43.27218" lon="-1.47375">
        <ele>398.02</ele>
        <time>2025-05-07T13:50:18.952Z</time>
      </trkpt>
      <trkpt lat="43.27218" lon="-1.47366">
        <ele>399.1</ele>
        <time>2025-05-07T13:50:20.231Z</time>
      </trkpt>
      <trkpt lat="43.27222" lon="-1.47341">
        <ele>400.06</ele>
        <time>2025-05-07T13:50:21.517Z</time>
      </trkpt>
      <trkpt lat="43.2722" lon="-1.47316">
        <ele>401.23</ele>
        <time>2025-05-07T13:50:22.809Z</time>
      </trkpt>
      <trkpt lat="43.27215" lon="-1.47274">
        <ele>402.61</ele>
        <time>2025-05-07T13:50:24.111Z</time>
      </trkpt>
      <trkpt lat="43.27214" lon="-1.47268">
        <ele>403.87</ele>
        <time>2025-05-07T13:50:25.415Z</time>
      </trkpt>
      <trkpt lat="43.27208" lon="-1.4725">
        <ele>405.25</ele>
        <time>2025-05-07T13:50:26.723Z</time>
      </trkpt>
      <trkpt lat="43.2719" lon="-1.47218">
        <ele>406.66</ele>
        <time>2025-05-07T13:50:28.041Z</time>
      </trkpt>
      <trkpt lat="43.27165" lon="-1.47191">
        <ele>408.38</ele>
        <time>2025-05-07T13:50:29.370Z</time>
      </trkpt>
      <trkpt lat="43.27141" lon="-1.47164">
        <ele>410.21</ele>
        <time>2025-05-07T13:50:30.709Z</time>
      </trkpt>
      <trkpt lat="43.2714" lon="-1.47163">
        <ele>411.78</ele>
        <time>2025-05-07T13:50:32.049Z</time>
      </trkpt>
      <trkpt lat="43.27113" lon="-1.4714">
        <ele>413.46</ele>
        <time>2025-05-07T13:50:33.399Z</time>
      </trkpt>
      <trkpt lat="43.27107" lon="-1.47135">
        <ele>415.13</ele>
        <time>2025-05-07T13:50:34.752Z</time>
      </trkpt>
      <trkpt lat="43.27094" lon="-1.4713">
        <ele>417.07</ele>
        <time>2025-05-07T13:50:36.109Z</time>
      </trkpt>
      <trkpt lat="43.27084" lon="-1.47124">
        <ele>419</ele>
        <time>2025-05-07T13:50:37.470Z</time>
      </trkpt>
      <trkpt lat="43.27075" lon="-1.47109">
        <ele>420.9</ele>
        <time>2025-05-07T13:50:38.835Z</time>
      </trkpt>
      <trkpt lat="43.27064" lon="-1.47085">
        <ele>422.7</ele>
        <time>2025-05-07T13:50:40.207Z</time>
      </trkpt>
      <trkpt lat="43.27053" lon="-1.47056">
        <ele>424.49</ele>
        <time>2025-05-07T13:50:41.587Z</time>
      </trkpt>
      <trkpt lat="43.27043" lon="-1.47018">
        <ele>426.4</ele>
        <time>2025-05-07T13:50:42.977Z</time>
      </trkpt>
      <trkpt lat="43.27031" lon="-1.46978">
        <ele>428.32</ele>
        <time>2025-05-07T13:50:44.378Z</time>
      </trkpt>
      <trkpt lat="43.27018" lon="-1.46939">
        <ele>430.08</ele>
        <time>2025-05-07T13:50:45.789Z</time>
      </trkpt>
      <trkpt lat="43.27006" lon="-1.46899">
        <ele>432.05</ele>
        <time>2025-05-07T13:50:47.211Z</time>
      </trkpt>
      <trkpt lat="43.27004" lon="-1.46892">
        <ele>433.77</ele>
        <time>2025-05-07T13:50:48.634Z</time>
      </trkpt>
      <trkpt lat="43.26988" lon="-1.46858">
        <ele>435.63</ele>
        <time>2025-05-07T13:50:50.067Z</time>
      </trkpt>
      <trkpt lat="43.26968" lon="-1.46824">
        <ele>437.14</ele>
        <time>2025-05-07T13:50:51.511Z</time>
      </trkpt>
      <trkpt lat="43.26961" lon="-1.46812">
        <ele>438.63</ele>
        <time>2025-05-07T13:50:52.959Z</time>
      </trkpt>
      <trkpt lat="43.26938" lon="-1.46788">
        <ele>440.24</ele>
        <time>2025-05-07T13:50:54.416Z</time>
      </trkpt>
      <trkpt lat="43.26923" lon="-1.46776">
        <ele>441.91</ele>
        <time>2025-05-07T13:50:55.879Z</time>
      </trkpt>
      <trkpt lat="43.26898" lon="-1.4676">
        <ele>443.75</ele>
        <time>2025-05-07T13:50:57.351Z</time>
      </trkpt>
      <trkpt lat="43.26872" lon="-1.46735">
        <ele>445.59</ele>
        <time>2025-05-07T13:50:58.834Z</time>
      </trkpt>
      <trkpt lat="43.26869" lon="-1.46732">
        <ele>447</ele>
        <time>2025-05-07T13:51:00.318Z</time>
      </trkpt>
      <trkpt lat="43.26865" lon="-1.46726">
        <ele>448.33</ele>
        <time>2025-05-07T13:51:01.804Z</time>
      </trkpt>
      <trkpt lat="43.26864" lon="-1.46706">
        <ele>449.44</ele>
        <time>2025-05-07T13:51:03.295Z</time>
      </trkpt>
      <trkpt lat="43.26867" lon="-1.46663">
        <ele>450.44</ele>
        <time>2025-05-07T13:51:04.797Z</time>
      </trkpt>
      <trkpt lat="43.26868" lon="-1.46644">
        <ele>451.62</ele>
        <time>2025-05-07T13:51:06.303Z</time>
      </trkpt>
      <trkpt lat="43.26874" lon="-1.46602">
        <ele>452.84</ele>
        <time>2025-05-07T13:51:07.820Z</time>
      </trkpt>
      <trkpt lat="43.26876" lon="-1.46589">
        <ele>453.93</ele>
        <time>2025-05-07T13:51:09.340Z</time>
      </trkpt>
      <trkpt lat="43.2688" lon="-1.46546">
        <ele>455.1</ele>
        <time>2025-05-07T13:51:10.870Z</time>
      </trkpt>
      <trkpt lat="43.26881" lon="-1.4654">
        <ele>456.09</ele>
        <time>2025-05-07T13:51:12.402Z</time>
      </trkpt>
      <trkpt lat="43.26886" lon="-1.46513">
        <ele>457.03</ele>
        <time>2025-05-07T13:51:13.941Z</time>
      </trkpt>
      <trkpt lat="43.26887" lon="-1.46499">
        <ele>458.02</ele>
        <time>2025-05-07T13:51:15.483Z</time>
      </trkpt>
      <trkpt lat="43.26879" lon="-1.46469">
        <ele>459.15</ele>
        <time>2025-05-07T13:51:17.033Z</time>
      </trkpt>
      <trkpt lat="43.26872" lon="-1.46427">
        <ele>460.15</ele>
        <time>2025-05-07T13:51:18.593Z</time>
      </trkpt>
      <trkpt lat="43.26871" lon="-1.46421">
        <ele>461.09</ele>
        <time>2025-05-07T13:51:20.155Z</time>
      </trkpt>
      <trkpt lat="43.26868" lon="-1.4641">
        <ele>462.02</ele>
        <time>2025-05-07T13:51:21.720Z</time>
      </trkpt>
      <trkpt lat="43.26865" lon="-1.46404">
        <ele>463</ele>
        <time>2025-05-07T13:51:23.287Z</time>
      </trkpt>
      <trkpt lat="43.26862" lon="-1.46401">
        <ele>464.04</ele>
        <time>2025-05-07T13:51:24.855Z</time>
      </trkpt>
      <trkpt lat="43.2686" lon="-1.46402">
        <ele>465.13</ele>
        <time>2025-05-07T13:51:26.423Z</time>
      </trkpt>
      <trkpt lat="43.26856" lon="-1.46408">
        <ele>466.3</ele>
        <time>2025-05-07T13:51:27.993Z</time>
      </trkpt>
      <trkpt lat="43.26856" lon="-1.46422">
        <ele>467.51</ele>
        <time>2025-05-07T13:51:29.567Z</time>
      </trkpt>
      <trkpt lat="43.26855" lon="-1.46457">
        <ele>468.82</ele>
        <time>2025-05-07T13:51:31.149Z</time>
      </trkpt>
      <trkpt lat="43.26853" lon="-1.46474">
        <ele>470.05</ele>
        <time>2025-05-07T13:51:32.736Z</time>
      </trkpt>
      <trkpt lat="43.26849" lon="-1.46492">
        <ele>471.33</ele>
        <time>2025-05-07T13:51:34.327Z</time>
      </trkpt>
      <trkpt lat="43.26839" lon="-1.46516">
        <ele>472.66</ele>
        <time>2025-05-07T13:51:35.925Z</time>
      </trkpt>
      <trkpt lat="43.26831" lon="-1.46538">
        <ele>473.95</ele>
        <time>2025-05-07T13:51:37.529Z</time>
      </trkpt>
      <trkpt lat="43.26823" lon="-1.4656">
        <ele>475.29</ele>
        <time>2025-05-07T13:51:39.139Z</time>
      </trkpt>
      <trkpt lat="43.26809" lon="-1.46592">
        <ele>476.84</ele>
        <time>2025-05-07T13:51:40.758Z</time>
      </trkpt>
      <trkpt lat="43.26807" lon="-1.46604">
        <ele>478</ele>
        <time>2025-05-07T13:51:42.380Z</time>
      </trkpt>
      <trkpt lat="43.26806" lon="-1.46628">
        <ele>479.07</ele>
        <time>2025-05-07T13:51:44.008Z</time>
      </trkpt>
      <trkpt lat="43.26806" lon="-1.46671">
        <ele>479.92</ele>
        <time>2025-05-07T13:51:45.646Z</time>
      </trkpt>
      <trkpt lat="43.26806" lon="-1.46703">
        <ele>480.92</ele>
        <time>2025-05-07T13:51:47.292Z</time>
      </trkpt>
      <trkpt lat="43.26807" lon="-1.46746">
        <ele>482.07</ele>
        <time>2025-05-07T13:51:48.949Z</time>
      </trkpt>
      <trkpt lat="43.26808" lon="-1.46763">
        <ele>483.04</ele>
        <time>2025-05-07T13:51:50.610Z</time>
      </trkpt>
      <trkpt lat="43.26827" lon="-1.46793">
        <ele>483.5</ele>
        <time>2025-05-07T13:51:52.280Z</time>
      </trkpt>
      <trkpt lat="43.26836" lon="-1.46813">
        <ele>484.15</ele>
        <time>2025-05-07T13:51:53.956Z</time>
      </trkpt>
      <trkpt lat="43.26847" lon="-1.46832">
        <ele>484.74</ele>
        <time>2025-05-07T13:51:55.638Z</time>
      </trkpt>
      <trkpt lat="43.26865" lon="-1.4686">
        <ele>485.27</ele>
        <time>2025-05-07T13:51:57.329Z</time>
      </trkpt>
      <trkpt lat="43.26869" lon="-1.46875">
        <ele>485.88</ele>
        <time>2025-05-07T13:51:59.024Z</time>
      </trkpt>
      <trkpt lat="43.26876" lon="-1.46917">
        <ele>486.53</ele>
        <time>2025-05-07T13:52:00.729Z</time>
      </trkpt>
      <trkpt lat="43.26876" lon="-1.46919">
        <ele>487.02</ele>
        <time>2025-05-07T13:52:02.435Z</time>
      </trkpt>
      <trkpt lat="43.2688" lon="-1.46962">
        <ele>487.72</ele>
        <time>2025-05-07T13:52:04.151Z</time>
      </trkpt>
      <trkpt lat="43.26883" lon="-1.46991">
        <ele>488.29</ele>
        <time>2025-05-07T13:52:05.875Z</time>
      </trkpt>
      <trkpt lat="43.2689" lon="-1.47027">
        <ele>488.79</ele>
        <time>2025-05-07T13:52:07.608Z</time>
      </trkpt>
      <trkpt lat="43.269" lon="-1.47063">
        <ele>489.23</ele>
        <time>2025-05-07T13:52:09.350Z</time>
      </trkpt>
      <trkpt lat="43.26914" lon="-1.47102">
        <ele>489.44</ele>
        <time>2025-05-07T13:52:11.103Z</time>
      </trkpt>
      <trkpt lat="43.26918" lon="-1.47112">
        <ele>489.83</ele>
        <time>2025-05-07T13:52:12.858Z</time>
      </trkpt>
      <trkpt lat="43.26935" lon="-1.47148">
        <ele>490.25</ele>
        <time>2025-05-07T13:52:14.624Z</time>
      </trkpt>
      <trkpt lat="43.26951" lon="-1.47182">
        <ele>490.72</ele>
        <time>2025-05-07T13:52:16.400Z</time>
      </trkpt>
      <trkpt lat="43.26956" lon="-1.47193">
        <ele>491.28</ele>
        <time>2025-05-07T13:52:18.179Z</time>
      </trkpt>
      <trkpt lat="43.2696" lon="-1.47213">
        <ele>491.85</ele>
        <time>2025-05-07T13:52:19.963Z</time>
      </trkpt>
      <trkpt lat="43.26961" lon="-1.47236">
        <ele>492.47</ele>
        <time>2025-05-07T13:52:21.753Z</time>
      </trkpt>
      <trkpt lat="43.26955" lon="-1.4725">
        <ele>493.15</ele>
        <time>2025-05-07T13:52:23.546Z</time>
      </trkpt>
      <trkpt lat="43.26947" lon="-1.47252">
        <ele>493.83</ele>
        <time>2025-05-07T13:52:25.342Z</time>
      </trkpt>
      <trkpt lat="43.2694" lon="-1.47249">
        <ele>494.59</ele>
        <time>2025-05-07T13:52:27.141Z</time>
      </trkpt>
      <trkpt lat="43.26933" lon="-1.4724">
        <ele>495.39</ele>
        <time>2025-05-07T13:52:28.943Z</time>
      </trkpt>
      <trkpt lat="43.26922" lon="-1.47231">
        <ele>496.27</ele>
        <time>2025-05-07T13:52:30.749Z</time>
      </trkpt>
      <trkpt lat="43.26897" lon="-1.47218">
        <ele>497.29</ele>
        <time>2025-05-07T13:52:32.564Z</time>
      </trkpt>
      <trkpt lat="43.26869" lon="-1.47201">
        <ele>498.44</ele>
        <time>2025-05-07T13:52:34.389Z</time>
      </trkpt>
      <trkpt lat="43.26864" lon="-1.47194">
        <ele>499.56</ele>
        <time>2025-05-07T13:52:36.217Z</time>
      </trkpt>
      <trkpt lat="43.26844" lon="-1.47161">
        <ele>500.78</ele>
        <time>2025-05-07T13:52:38.055Z</time>
      </trkpt>
      <trkpt lat="43.26832" lon="-1.47142">
        <ele>501.97</ele>
        <time>2025-05-07T13:52:39.899Z</time>
      </trkpt>
      <trkpt lat="43.2681" lon="-1.47112">
        <ele>503.31</ele>
        <time>2025-05-07T13:52:41.754Z</time>
      </trkpt>
      <trkpt lat="43.26807" lon="-1.47108">
        <ele>504.7</ele>
        <time>2025-05-07T13:52:43.610Z</time>
      </trkpt>
      <trkpt lat="43.26796" lon="-1.4709">
        <ele>506.21</ele>
        <time>2025-05-07T13:52:45.472Z</time>
      </trkpt>
      <trkpt lat="43.26788" lon="-1.47071">
        <ele>507.85</ele>
        <time>2025-05-07T13:52:47.339Z</time>
      </trkpt>
      <trkpt lat="43.26779" lon="-1.4703">
        <ele>509.83</ele>
        <time>2025-05-07T13:52:49.216Z</time>
      </trkpt>
      <trkpt lat="43.26777" lon="-1.47023">
        <ele>511.68</ele>
        <time>2025-05-07T13:52:51.095Z</time>
      </trkpt>
      <trkpt lat="43.26767" lon="-1.46999">
        <ele>513.73</ele>
        <time>2025-05-07T13:52:52.981Z</time>
      </trkpt>
      <trkpt lat="43.26748" lon="-1.46965">
        <ele>515.89</ele>
        <time>2025-05-07T13:52:54.877Z</time>
      </trkpt>
      <trkpt lat="43.26729" lon="-1.46931">
        <ele>517.93</ele>
        <time>2025-05-07T13:52:56.784Z</time>
      </trkpt>
      <trkpt lat="43.26709" lon="-1.46897">
        <ele>520.14</ele>
        <time>2025-05-07T13:52:58.701Z</time>
      </trkpt>
      <trkpt lat="43.26706" lon="-1.46891">
        <ele>522.53</ele>
        <time>2025-05-07T13:53:00.620Z</time>
      </trkpt>
      <trkpt lat="43.26689" lon="-1.46855">
        <ele>525.26</ele>
        <time>2025-05-07T13:53:02.550Z</time>
      </trkpt>
      <trkpt lat="43.26682" lon="-1.46841">
        <ele>527.94</ele>
        <time>2025-05-07T13:53:04.484Z</time>
      </trkpt>
      <trkpt lat="43.26667" lon="-1.46803">
        <ele>530.75</ele>
        <time>2025-05-07T13:53:06.428Z</time>
      </trkpt>
      <trkpt lat="43.26656" lon="-1.46776">
        <ele>533.68</ele>
        <time>2025-05-07T13:53:08.380Z</time>
      </trkpt>
      <trkpt lat="43.2664" lon="-1.46739">
        <ele>536.85</ele>
        <time>2025-05-07T13:53:10.342Z</time>
      </trkpt>
      <trkpt lat="43.26628" lon="-1.46712">
        <ele>540.06</ele>
        <time>2025-05-07T13:53:12.312Z</time>
      </trkpt>
      <trkpt lat="43.26615" lon="-1.46684">
        <ele>543.36</ele>
        <time>2025-05-07T13:53:14.290Z</time>
      </trkpt>
      <trkpt lat="43.26603" lon="-1.46662">
        <ele>546.62</ele>
        <time>2025-05-07T13:53:16.275Z</time>
      </trkpt>
      <trkpt lat="43.26593" lon="-1.4663">
        <ele>549.8</ele>
        <time>2025-05-07T13:53:18.268Z</time>
      </trkpt>
      <trkpt lat="43.26588" lon="-1.46587">
        <ele>553.22</ele>
        <time>2025-05-07T13:53:20.272Z</time>
      </trkpt>
      <trkpt lat="43.26586" lon="-1.46565">
        <ele>556.53</ele>
        <time>2025-05-07T13:53:22.281Z</time>
      </trkpt>
      <trkpt lat="43.2658" lon="-1.46523">
        <ele>560.05</ele>
        <time>2025-05-07T13:53:24.301Z</time>
      </trkpt>
      <trkpt lat="43.26573" lon="-1.46481">
        <ele>563.32</ele>
        <time>2025-05-07T13:53:26.331Z</time>
      </trkpt>
      <trkpt lat="43.26572" lon="-1.46474">
        <ele>566.43</ele>
        <time>2025-05-07T13:53:28.363Z</time>
      </trkpt>
      <trkpt lat="43.26565" lon="-1.46434">
        <ele>569.87</ele>
        <time>2025-05-07T13:53:30.405Z</time>
      </trkpt>
      <trkpt lat="43.26555" lon="-1.46393">
        <ele>573.33</ele>
        <time>2025-05-07T13:53:32.457Z</time>
      </trkpt>
      <trkpt lat="43.26554" lon="-1.46387">
        <ele>576.27</ele>
        <time>2025-05-07T13:53:34.511Z</time>
      </trkpt>
      <trkpt lat="43.26542" lon="-1.46347">
        <ele>579.54</ele>
        <time>2025-05-07T13:53:36.575Z</time>
      </trkpt>
      <trkpt lat="43.26541" lon="-1.46342">
        <ele>582.25</ele>
        <time>2025-05-07T13:53:38.641Z</time>
      </trkpt>
      <trkpt lat="43.26538" lon="-1.46334">
        <ele>584.88</ele>
        <time>2025-05-07T13:53:40.709Z</time>
      </trkpt>
      <trkpt lat="43.26531" lon="-1.4632">
        <ele>587.37</ele>
        <time>2025-05-07T13:53:42.781Z</time>
      </trkpt>
      <trkpt lat="43.26519" lon="-1.46301">
        <ele>589.79</ele>
        <time>2025-05-07T13:53:44.859Z</time>
      </trkpt>
      <trkpt lat="43.26496" lon="-1.46276">
        <ele>592.06</ele>
        <time>2025-05-07T13:53:46.947Z</time>
      </trkpt>
      <trkpt lat="43.26477" lon="-1.46246">
        <ele>594.2</ele>
        <time>2025-05-07T13:53:49.045Z</time>
      </trkpt>
      <trkpt lat="43.26471" lon="-1.4623">
        <ele>596.32</ele>
        <time>2025-05-07T13:53:51.147Z</time>
      </trkpt>
      <trkpt lat="43.26463" lon="-1.46198">
        <ele>598.51</ele>
        <time>2025-05-07T13:53:53.257Z</time>
      </trkpt>
      <trkpt lat="43.26456" lon="-1.46186">
        <ele>600.58</ele>
        <time>2025-05-07T13:53:55.371Z</time>
      </trkpt>
      <trkpt lat="43.26445" lon="-1.46166">
        <ele>602.75</ele>
        <time>2025-05-07T13:53:57.491Z</time>
      </trkpt>
      <trkpt lat="43.26438" lon="-1.46143">
        <ele>604.83</ele>
        <time>2025-05-07T13:53:59.617Z</time>
      </trkpt>
      <trkpt lat="43.26427" lon="-1.46124">
        <ele>606.85</ele>
        <time>2025-05-07T13:54:01.749Z</time>
      </trkpt>
      <trkpt lat="43.26416" lon="-1.46113">
        <ele>609.13</ele>
        <time>2025-05-07T13:54:03.886Z</time>
      </trkpt>
      <trkpt lat="43.26409" lon="-1.46108">
        <ele>611.33</ele>
        <time>2025-05-07T13:54:06.025Z</time>
      </trkpt>
      <trkpt lat="43.26398" lon="-1.46095">
        <ele>613.52</ele>
        <time>2025-05-07T13:54:08.169Z</time>
      </trkpt>
      <trkpt lat="43.26388" lon="-1.46078">
        <ele>615.93</ele>
        <time>2025-05-07T13:54:10.318Z</time>
      </trkpt>
      <trkpt lat="43.2638" lon="-1.46053">
        <ele>618.24</ele>
        <time>2025-05-07T13:54:12.474Z</time>
      </trkpt>
      <trkpt lat="43.26375" lon="-1.46031">
        <ele>620.38</ele>
        <time>2025-05-07T13:54:14.636Z</time>
      </trkpt>
      <trkpt lat="43.26369" lon="-1.46022">
        <ele>622.6</ele>
        <time>2025-05-07T13:54:16.801Z</time>
      </trkpt>
      <trkpt lat="43.26355" lon="-1.45999">
        <ele>625.01</ele>
        <time>2025-05-07T13:54:18.973Z</time>
      </trkpt>
      <trkpt lat="43.26333" lon="-1.45968">
        <ele>627.57</ele>
        <time>2025-05-07T13:54:21.155Z</time>
      </trkpt>
      <trkpt lat="43.26326" lon="-1.45957">
        <ele>629.95</ele>
        <time>2025-05-07T13:54:23.341Z</time>
      </trkpt>
      <trkpt lat="43.26312" lon="-1.45943">
        <ele>632.45</ele>
        <time>2025-05-07T13:54:25.533Z</time>
      </trkpt>
      <trkpt lat="43.26285" lon="-1.45921">
        <ele>635.21</ele>
        <time>2025-05-07T13:54:27.735Z</time>
      </trkpt>
      <trkpt lat="43.26283" lon="-1.45919">
        <ele>637.47</ele>
        <time>2025-05-07T13:54:29.938Z</time>
      </trkpt>
      <trkpt lat="43.26256" lon="-1.45896">
        <ele>639.9</ele>
        <time>2025-05-07T13:54:32.152Z</time>
      </trkpt>
      <trkpt lat="43.2625" lon="-1.45891">
        <ele>642.04</ele>
        <time>2025-05-07T13:54:34.368Z</time>
      </trkpt>
      <trkpt lat="43.26242" lon="-1.45882">
        <ele>644.15</ele>
        <time>2025-05-07T13:54:36.587Z</time>
      </trkpt>
      <trkpt lat="43.2624" lon="-1.45876">
        <ele>646.22</ele>
        <time>2025-05-07T13:54:38.808Z</time>
      </trkpt>
      <trkpt lat="43.2624" lon="-1.45869">
        <ele>648.29</ele>
        <time>2025-05-07T13:54:41.031Z</time>
      </trkpt>
      <trkpt lat="43.26245" lon="-1.4586">
        <ele>650.38</ele>
        <time>2025-05-07T13:54:43.256Z</time>
      </trkpt>
      <trkpt lat="43.26251" lon="-1.45855">
        <ele>652.3</ele>
        <time>2025-05-07T13:54:45.484Z</time>
      </trkpt>
      <trkpt lat="43.26259" lon="-1.45846">
        <ele>654.19</ele>
        <time>2025-05-07T13:54:47.715Z</time>
      </trkpt>
      <trkpt lat="43.26263" lon="-1.45833">
        <ele>656.05</ele>
        <time>2025-05-07T13:54:49.950Z</time>
      </trkpt>
      <trkpt lat="43.26262" lon="-1.45816">
        <ele>657.74</ele>
        <time>2025-05-07T13:54:52.189Z</time>
      </trkpt>
      <trkpt lat="43.26253" lon="-1.45799">
        <ele>659.39</ele>
        <time>2025-05-07T13:54:54.433Z</time>
      </trkpt>
      <trkpt lat="43.26234" lon="-1.45765">
        <ele>661.05</ele>
        <time>2025-05-07T13:54:56.687Z</time>
      </trkpt>
      <trkpt lat="43.26233" lon="-1.45764">
        <ele>662.46</ele>
        <time>2025-05-07T13:54:58.942Z</time>
      </trkpt>
      <trkpt lat="43.26215" lon="-1.45731">
        <ele>663.98</ele>
        <time>2025-05-07T13:55:01.207Z</time>
      </trkpt>
      <trkpt lat="43.26207" lon="-1.45715">
        <ele>665.35</ele>
        <time>2025-05-07T13:55:03.477Z</time>
      </trkpt>
      <trkpt lat="43.26201" lon="-1.45709">
        <ele>666.56</ele>
        <time>2025-05-07T13:55:05.749Z</time>
      </trkpt>
      <trkpt lat="43.26182" lon="-1.45696">
        <ele>667.79</ele>
        <time>2025-05-07T13:55:08.028Z</time>
      </trkpt>
      <trkpt lat="43.26176" lon="-1.45699">
        <ele>668.72</ele>
        <time>2025-05-07T13:55:10.309Z</time>
      </trkpt>
      <trkpt lat="43.26182" lon="-1.45696">
        <ele>667.79</ele>
        <time>2025-05-07T13:55:12.592Z</time>
      </trkpt>
      <trkpt lat="43.26193" lon="-1.45689">
        <ele>670.22</ele>
        <time>2025-05-07T13:55:14.879Z</time>
      </trkpt>
      <trkpt lat="43.26198" lon="-1.4568">
        <ele>670.86</ele>
        <time>2025-05-07T13:55:17.169Z</time>
      </trkpt>
      <trkpt lat="43.26211" lon="-1.45641">
        <ele>671.52</ele>
        <time>2025-05-07T13:55:19.470Z</time>
      </trkpt>
      <trkpt lat="43.26219" lon="-1.45615">
        <ele>672.02</ele>
        <time>2025-05-07T13:55:21.777Z</time>
      </trkpt>
      <trkpt lat="43.26225" lon="-1.45592">
        <ele>672.33</ele>
        <time>2025-05-07T13:55:24.090Z</time>
      </trkpt>
      <trkpt lat="43.26228" lon="-1.45567">
        <ele>672.56</ele>
        <time>2025-05-07T13:55:26.410Z</time>
      </trkpt>
      <trkpt lat="43.26226" lon="-1.45551">
        <ele>672.69</ele>
        <time>2025-05-07T13:55:28.734Z</time>
      </trkpt>
      <trkpt lat="43.26218" lon="-1.45522">
        <ele>672.84</ele>
        <time>2025-05-07T13:55:31.065Z</time>
      </trkpt>
      <trkpt lat="43.26214" lon="-1.45502">
        <ele>673.07</ele>
        <time>2025-05-07T13:55:33.401Z</time>
      </trkpt>
      <trkpt lat="43.26211" lon="-1.45459">
        <ele>673.41</ele>
        <time>2025-05-07T13:55:35.748Z</time>
      </trkpt>
      <trkpt lat="43.2621" lon="-1.45451">
        <ele>673.58</ele>
        <time>2025-05-07T13:55:38.097Z</time>
      </trkpt>
      <trkpt lat="43.26212" lon="-1.45413">
        <ele>673.57</ele>
        <time>2025-05-07T13:55:40.455Z</time>
      </trkpt>
      <trkpt lat="43.26215" lon="-1.45393">
        <ele>673.59</ele>
        <time>2025-05-07T13:55:42.818Z</time>
      </trkpt>
      <trkpt lat="43.26224" lon="-1.45352">
        <ele>673.58</ele>
        <time>2025-05-07T13:55:45.191Z</time>
      </trkpt>
      <trkpt lat="43.26224" lon="-1.45351">
        <ele>673.56</ele>
        <time>2025-05-07T13:55:47.565Z</time>
      </trkpt>
      <trkpt lat="43.26229" lon="-1.45336">
        <ele>673.52</ele>
        <time>2025-05-07T13:55:49.943Z</time>
      </trkpt>
      <trkpt lat="43.26234" lon="-1.45327">
        <ele>673.44</ele>
        <time>2025-05-07T13:55:52.323Z</time>
      </trkpt>
      <trkpt lat="43.26256" lon="-1.45298">
        <ele>673.05</ele>
        <time>2025-05-07T13:55:54.714Z</time>
      </trkpt>
      <trkpt lat="43.26278" lon="-1.45267">
        <ele>672.8</ele>
        <time>2025-05-07T13:55:57.115Z</time>
      </trkpt>
      <trkpt lat="43.26283" lon="-1.45259">
        <ele>672.79</ele>
        <time>2025-05-07T13:55:59.519Z</time>
      </trkpt>
      <trkpt lat="43.26292" lon="-1.45242">
        <ele>672.87</ele>
        <time>2025-05-07T13:56:01.928Z</time>
      </trkpt>
      <trkpt lat="43.26296" lon="-1.45228">
        <ele>672.99</ele>
        <time>2025-05-07T13:56:04.340Z</time>
      </trkpt>
      <trkpt lat="43.26307" lon="-1.45188">
        <ele>673.34</ele>
        <time>2025-05-07T13:56:06.763Z</time>
      </trkpt>
      <trkpt lat="43.26308" lon="-1.45183">
        <ele>673.25</ele>
        <time>2025-05-07T13:56:09.187Z</time>
      </trkpt>
      <trkpt lat="43.26315" lon="-1.45172">
        <ele>673.14</ele>
        <time>2025-05-07T13:56:11.615Z</time>
      </trkpt>
      <trkpt lat="43.26322" lon="-1.45166">
        <ele>672.86</ele>
        <time>2025-05-07T13:56:14.045Z</time>
      </trkpt>
      <trkpt lat="43.26339" lon="-1.45158">
        <ele>672.45</ele>
        <time>2025-05-07T13:56:16.481Z</time>
      </trkpt>
      <trkpt lat="43.26352" lon="-1.45153">
        <ele>672.03</ele>
        <time>2025-05-07T13:56:18.922Z</time>
      </trkpt>
      <trkpt lat="43.26379" lon="-1.45131">
        <ele>671.65</ele>
        <time>2025-05-07T13:56:21.373Z</time>
      </trkpt>
      <trkpt lat="43.26386" lon="-1.45125">
        <ele>671.08</ele>
        <time>2025-05-07T13:56:23.827Z</time>
      </trkpt>
      <trkpt lat="43.26412" lon="-1.45101">
        <ele>670.3</ele>
        <time>2025-05-07T13:56:26.292Z</time>
      </trkpt>
      <trkpt lat="43.26417" lon="-1.45096">
        <ele>669.59</ele>
        <time>2025-05-07T13:56:28.759Z</time>
      </trkpt>
      <trkpt lat="43.26443" lon="-1.45088">
        <ele>668.6</ele>
        <time>2025-05-07T13:56:31.234Z</time>
      </trkpt>
      <trkpt lat="43.26459" lon="-1.45081">
        <ele>667.65</ele>
        <time>2025-05-07T13:56:33.715Z</time>
      </trkpt>
      <trkpt lat="43.26488" lon="-1.45063">
        <ele>666.54</ele>
        <time>2025-05-07T13:56:36.207Z</time>
      </trkpt>
      <trkpt lat="43.26493" lon="-1.4506">
        <ele>665.45</ele>
        <time>2025-05-07T13:56:38.700Z</time>
      </trkpt>
      <trkpt lat="43.26521" lon="-1.45041">
        <ele>664.34</ele>
        <time>2025-05-07T13:56:41.204Z</time>
      </trkpt>
      <trkpt lat="43.26527" lon="-1.45037">
        <ele>663.13</ele>
        <time>2025-05-07T13:56:43.710Z</time>
      </trkpt>
      <trkpt lat="43.26542" lon="-1.4503">
        <ele>661.78</ele>
        <time>2025-05-07T13:56:46.221Z</time>
      </trkpt>
      <trkpt lat="43.2656" lon="-1.45029">
        <ele>660.34</ele>
        <time>2025-05-07T13:56:48.738Z</time>
      </trkpt>
      <trkpt lat="43.26591" lon="-1.45033">
        <ele>658.93</ele>
        <time>2025-05-07T13:56:51.266Z</time>
      </trkpt>
      <trkpt lat="43.26596" lon="-1.45033">
        <ele>657.55</ele>
        <time>2025-05-07T13:56:53.795Z</time>
      </trkpt>
      <trkpt lat="43.26627" lon="-1.45038">
        <ele>656.06</ele>
        <time>2025-05-07T13:56:56.335Z</time>
      </trkpt>
      <trkpt lat="43.26659" lon="-1.45044">
        <ele>654.58</ele>
        <time>2025-05-07T13:56:58.885Z</time>
      </trkpt>
      <trkpt lat="43.26679" lon="-1.45047">
        <ele>652.93</ele>
        <time>2025-05-07T13:57:01.442Z</time>
      </trkpt>
      <trkpt lat="43.26693" lon="-1.4505">
        <ele>651.29</ele>
        <time>2025-05-07T13:57:04.004Z</time>
      </trkpt>
      <trkpt lat="43.26712" lon="-1.45048">
        <ele>649.62</ele>
        <time>2025-05-07T13:57:06.572Z</time>
      </trkpt>
      <trkpt lat="43.26723" lon="-1.45043">
        <ele>648.13</ele>
        <time>2025-05-07T13:57:09.144Z</time>
      </trkpt>
      <trkpt lat="43.26732" lon="-1.45037">
        <ele>646.72</ele>
        <time>2025-05-07T13:57:11.720Z</time>
      </trkpt>
      <trkpt lat="43.26741" lon="-1.45026">
        <ele>645.45</ele>
        <time>2025-05-07T13:57:14.300Z</time>
      </trkpt>
      <trkpt lat="43.26763" lon="-1.44995">
        <ele>643.78</ele>
        <time>2025-05-07T13:57:16.890Z</time>
      </trkpt>
      <trkpt lat="43.26765" lon="-1.44993">
        <ele>642.57</ele>
        <time>2025-05-07T13:57:19.481Z</time>
      </trkpt>
      <trkpt lat="43.26781" lon="-1.44974">
        <ele>641.23</ele>
        <time>2025-05-07T13:57:22.079Z</time>
      </trkpt>
      <trkpt lat="43.26799" lon="-1.44938">
        <ele>640.37</ele>
        <time>2025-05-07T13:57:24.688Z</time>
      </trkpt>
      <trkpt lat="43.268" lon="-1.44935">
        <ele>639.55</ele>
        <time>2025-05-07T13:57:27.297Z</time>
      </trkpt>
      <trkpt lat="43.26805" lon="-1.4492">
        <ele>639</ele>
        <time>2025-05-07T13:57:29.910Z</time>
      </trkpt>
      <trkpt lat="43.2681" lon="-1.44899">
        <ele>638.67</ele>
        <time>2025-05-07T13:57:32.529Z</time>
      </trkpt>
      <trkpt lat="43.26809" lon="-1.44856">
        <ele>638.47</ele>
        <time>2025-05-07T13:57:35.158Z</time>
      </trkpt>
      <trkpt lat="43.26809" lon="-1.44853">
        <ele>638.17</ele>
        <time>2025-05-07T13:57:37.788Z</time>
      </trkpt>
      <trkpt lat="43.26806" lon="-1.44823">
        <ele>638.13</ele>
        <time>2025-05-07T13:57:40.425Z</time>
      </trkpt>
      <trkpt lat="43.26804" lon="-1.44805">
        <ele>638.15</ele>
        <time>2025-05-07T13:57:43.067Z</time>
      </trkpt>
      <trkpt lat="43.26804" lon="-1.44786">
        <ele>638.22</ele>
        <time>2025-05-07T13:57:45.713Z</time>
      </trkpt>
      <trkpt lat="43.26812" lon="-1.44751">
        <ele>638.21</ele>
        <time>2025-05-07T13:57:48.368Z</time>
      </trkpt>
      <trkpt lat="43.26827" lon="-1.44713">
        <ele>638.46</ele>
        <time>2025-05-07T13:57:51.034Z</time>
      </trkpt>
      <trkpt lat="43.26838" lon="-1.44686">
        <ele>639.24</ele>
        <time>2025-05-07T13:57:53.707Z</time>
      </trkpt>
      <trkpt lat="43.26844" lon="-1.4467">
        <ele>640.2</ele>
        <time>2025-05-07T13:57:56.385Z</time>
      </trkpt>
      <trkpt lat="43.26837" lon="-1.4467">
        <ele>641.37</ele>
        <time>2025-05-07T13:57:59.065Z</time>
      </trkpt>
      <trkpt lat="43.26836" lon="-1.44669">
        <ele>642.77</ele>
        <time>2025-05-07T13:58:01.745Z</time>
      </trkpt>
      <trkpt lat="43.26839" lon="-1.44666">
        <ele>644.41</ele>
        <time>2025-05-07T13:58:04.427Z</time>
      </trkpt>
      <trkpt lat="43.26841" lon="-1.44672">
        <ele>646.3</ele>
        <time>2025-05-07T13:58:07.110Z</time>
      </trkpt>
      <trkpt lat="43.26831" lon="-1.4469">
        <ele>648.42</ele>
        <time>2025-05-07T13:58:09.799Z</time>
      </trkpt>
      <trkpt lat="43.26822" lon="-1.44708">
        <ele>650.82</ele>
        <time>2025-05-07T13:58:12.493Z</time>
      </trkpt>
      <trkpt lat="43.26815" lon="-1.44708">
        <ele>653.53</ele>
        <time>2025-05-07T13:58:15.190Z</time>
      </trkpt>
      <trkpt lat="43.26796" lon="-1.44726">
        <ele>656.63</ele>
        <time>2025-05-07T13:58:17.894Z</time>
      </trkpt>
      <trkpt lat="43.26777" lon="-1.44743">
        <ele>660.07</ele>
        <time>2025-05-07T13:58:20.606Z</time>
      </trkpt>
      <trkpt lat="43.26767" lon="-1.4476">
        <ele>663.5</ele>
        <time>2025-05-07T13:58:23.323Z</time>
      </trkpt>
      <trkpt lat="43.26757" lon="-1.44777">
        <ele>667.04</ele>
        <time>2025-05-07T13:58:26.045Z</time>
      </trkpt>
      <trkpt lat="43.26738" lon="-1.44788">
        <ele>670.76</ele>
        <time>2025-05-07T13:58:28.774Z</time>
      </trkpt>
      <trkpt lat="43.26719" lon="-1.44799">
        <ele>674.57</ele>
        <time>2025-05-07T13:58:31.510Z</time>
      </trkpt>
      <trkpt lat="43.26706" lon="-1.44818">
        <ele>678.5</ele>
        <time>2025-05-07T13:58:34.253Z</time>
      </trkpt>
      <trkpt lat="43.26693" lon="-1.44837">
        <ele>682.43</ele>
        <time>2025-05-07T13:58:37.002Z</time>
      </trkpt>
      <trkpt lat="43.26678" lon="-1.44847">
        <ele>686.25</ele>
        <time>2025-05-07T13:58:39.756Z</time>
      </trkpt>
      <trkpt lat="43.26652" lon="-1.44865">
        <ele>690.21</ele>
        <time>2025-05-07T13:58:42.520Z</time>
      </trkpt>
      <trkpt lat="43.26644" lon="-1.44869">
        <ele>693.73</ele>
        <time>2025-05-07T13:58:45.287Z</time>
      </trkpt>
      <trkpt lat="43.26624" lon="-1.44867">
        <ele>697.17</ele>
        <time>2025-05-07T13:58:48.061Z</time>
      </trkpt>
      <trkpt lat="43.26605" lon="-1.44865">
        <ele>700.55</ele>
        <time>2025-05-07T13:58:50.841Z</time>
      </trkpt>
      <trkpt lat="43.26576" lon="-1.44855">
        <ele>703.87</ele>
        <time>2025-05-07T13:58:53.631Z</time>
      </trkpt>
      <trkpt lat="43.26547" lon="-1.44846">
        <ele>707.14</ele>
        <time>2025-05-07T13:58:56.431Z</time>
      </trkpt>
      <trkpt lat="43.26519" lon="-1.44846">
        <ele>710.24</ele>
        <time>2025-05-07T13:58:59.240Z</time>
      </trkpt>
      <trkpt lat="43.26492" lon="-1.44862">
        <ele>713.11</ele>
        <time>2025-05-07T13:59:02.059Z</time>
      </trkpt>
      <trkpt lat="43.26465" lon="-1.44878">
        <ele>715.8</ele>
        <time>2025-05-07T13:59:04.888Z</time>
      </trkpt>
      <trkpt lat="43.26439" lon="-1.44894">
        <ele>718.35</ele>
        <time>2025-05-07T13:59:07.727Z</time>
      </trkpt>
      <trkpt lat="43.26412" lon="-1.4491">
        <ele>720.61</ele>
        <time>2025-05-07T13:59:10.575Z</time>
      </trkpt>
      <trkpt lat="43.26382" lon="-1.44919">
        <ele>722.98</ele>
        <time>2025-05-07T13:59:13.434Z</time>
      </trkpt>
      <trkpt lat="43.26356" lon="-1.44931">
        <ele>725.24</ele>
        <time>2025-05-07T13:59:16.302Z</time>
      </trkpt>
      <trkpt lat="43.2633" lon="-1.44942">
        <ele>727.35</ele>
        <time>2025-05-07T13:59:19.179Z</time>
      </trkpt>
      <trkpt lat="43.26304" lon="-1.44947">
        <ele>729.39</ele>
        <time>2025-05-07T13:59:22.064Z</time>
      </trkpt>
      <trkpt lat="43.26287" lon="-1.44966">
        <ele>731.33</ele>
        <time>2025-05-07T13:59:24.957Z</time>
      </trkpt>
      <trkpt lat="43.26278" lon="-1.44991">
        <ele>733.19</ele>
        <time>2025-05-07T13:59:27.857Z</time>
      </trkpt>
      <trkpt lat="43.26268" lon="-1.45015">
        <ele>734.92</ele>
        <time>2025-05-07T13:59:30.763Z</time>
      </trkpt>
      <trkpt lat="43.26257" lon="-1.45052">
        <ele>736.42</ele>
        <time>2025-05-07T13:59:33.679Z</time>
      </trkpt>
      <trkpt lat="43.26241" lon="-1.45088">
        <ele>738.24</ele>
        <time>2025-05-07T13:59:36.606Z</time>
      </trkpt>
      <trkpt lat="43.26224" lon="-1.45125">
        <ele>740.37</ele>
        <time>2025-05-07T13:59:39.543Z</time>
      </trkpt>
      <trkpt lat="43.26207" lon="-1.45161">
        <ele>742.32</ele>
        <time>2025-05-07T13:59:42.490Z</time>
      </trkpt>
      <trkpt lat="43.26191" lon="-1.45198">
        <ele>744.42</ele>
        <time>2025-05-07T13:59:45.448Z</time>
      </trkpt>
      <trkpt lat="43.26168" lon="-1.45227">
        <ele>746.41</ele>
        <time>2025-05-07T13:59:48.416Z</time>
      </trkpt>
      <trkpt lat="43.26146" lon="-1.45256">
        <ele>748.51</ele>
        <time>2025-05-07T13:59:51.395Z</time>
      </trkpt>
      <trkpt lat="43.26123" lon="-1.45285">
        <ele>751</ele>
        <time>2025-05-07T13:59:54.384Z</time>
      </trkpt>
      <trkpt lat="43.26101" lon="-1.45314">
        <ele>753.68</ele>
        <time>2025-05-07T13:59:57.383Z</time>
      </trkpt>
      <trkpt lat="43.2608" lon="-1.45343">
        <ele>756.6</ele>
        <time>2025-05-07T14:00:00.392Z</time>
      </trkpt>
      <trkpt lat="43.2606" lon="-1.45371">
        <ele>759.25</ele>
        <time>2025-05-07T14:00:03.411Z</time>
      </trkpt>
      <trkpt lat="43.26051" lon="-1.4539">
        <ele>761.51</ele>
        <time>2025-05-07T14:00:06.435Z</time>
      </trkpt>
      <trkpt lat="43.26043" lon="-1.45408">
        <ele>763.69</ele>
        <time>2025-05-07T14:00:09.464Z</time>
      </trkpt>
      <trkpt lat="43.26017" lon="-1.45404">
        <ele>766.37</ele>
        <time>2025-05-07T14:00:12.502Z</time>
      </trkpt>
      <trkpt lat="43.25989" lon="-1.45404">
        <ele>768.69</ele>
        <time>2025-05-07T14:00:15.549Z</time>
      </trkpt>
      <trkpt lat="43.25961" lon="-1.45405">
        <ele>770.38</ele>
        <time>2025-05-07T14:00:18.606Z</time>
      </trkpt>
      <trkpt lat="43.25933" lon="-1.45406">
        <ele>771.38</ele>
        <time>2025-05-07T14:00:21.672Z</time>
      </trkpt>
      <trkpt lat="43.2591" lon="-1.4541">
        <ele>771.84</ele>
        <time>2025-05-07T14:00:24.746Z</time>
      </trkpt>
      <trkpt lat="43.25886" lon="-1.45414">
        <ele>771.83</ele>
        <time>2025-05-07T14:00:27.828Z</time>
      </trkpt>
      <trkpt lat="43.25858" lon="-1.4541">
        <ele>771.12</ele>
        <time>2025-05-07T14:00:30.919Z</time>
      </trkpt>
      <trkpt lat="43.25845" lon="-1.45412">
        <ele>770.1</ele>
        <time>2025-05-07T14:00:34.014Z</time>
      </trkpt>
      <trkpt lat="43.2583" lon="-1.45437">
        <ele>768.52</ele>
        <time>2025-05-07T14:00:37.117Z</time>
      </trkpt>
      <trkpt lat="43.25815" lon="-1.45462">
        <ele>766.38</ele>
        <time>2025-05-07T14:00:40.228Z</time>
      </trkpt>
      <trkpt lat="43.258" lon="-1.45487">
        <ele>763.76</ele>
        <time>2025-05-07T14:00:43.347Z</time>
      </trkpt>
      <trkpt lat="43.25791" lon="-1.45509">
        <ele>760.67</ele>
        <time>2025-05-07T14:00:46.472Z</time>
      </trkpt>
      <trkpt lat="43.25781" lon="-1.4553">
        <ele>757.13</ele>
        <time>2025-05-07T14:00:49.603Z</time>
      </trkpt>
      <trkpt lat="43.2577" lon="-1.45567">
        <ele>753.18</ele>
        <time>2025-05-07T14:00:52.744Z</time>
      </trkpt>
      <trkpt lat="43.25757" lon="-1.45575">
        <ele>749.07</ele>
        <time>2025-05-07T14:00:55.890Z</time>
      </trkpt>
      <trkpt lat="43.25749" lon="-1.4559">
        <ele>744.76</ele>
        <time>2025-05-07T14:00:59.040Z</time>
      </trkpt>
      <trkpt lat="43.25744" lon="-1.45612">
        <ele>740.29</ele>
        <time>2025-05-07T14:01:02.196Z</time>
      </trkpt>
      <trkpt lat="43.2574" lon="-1.45633">
        <ele>735.63</ele>
        <time>2025-05-07T14:01:05.357Z</time>
      </trkpt>
      <trkpt lat="43.25724" lon="-1.45664">
        <ele>730.69</ele>
        <time>2025-05-07T14:01:08.527Z</time>
      </trkpt>
      <trkpt lat="43.25708" lon="-1.45694">
        <ele>725.74</ele>
        <time>2025-05-07T14:01:11.706Z</time>
      </trkpt>
      <trkpt lat="43.25692" lon="-1.45725">
        <ele>720.91</ele>
        <time>2025-05-07T14:01:14.895Z</time>
      </trkpt>
      <trkpt lat="43.25677" lon="-1.45755">
        <ele>716.17</ele>
        <time>2025-05-07T14:01:18.093Z</time>
      </trkpt>
      <trkpt lat="43.25661" lon="-1.45786">
        <ele>711.49</ele>
        <time>2025-05-07T14:01:21.300Z</time>
      </trkpt>
      <trkpt lat="43.25653" lon="-1.45814">
        <ele>707.16</ele>
        <time>2025-05-07T14:01:24.514Z</time>
      </trkpt>
      <trkpt lat="43.25645" lon="-1.45843">
        <ele>703.14</ele>
        <time>2025-05-07T14:01:27.736Z</time>
      </trkpt>
      <trkpt lat="43.25637" lon="-1.45871">
        <ele>699.54</ele>
        <time>2025-05-07T14:01:30.965Z</time>
      </trkpt>
      <trkpt lat="43.2562" lon="-1.45904">
        <ele>696.14</ele>
        <time>2025-05-07T14:01:34.204Z</time>
      </trkpt>
      <trkpt lat="43.25599" lon="-1.45901">
        <ele>677.7</ele>
      </trkpt>
      <trkpt lat="43.25586" lon="-1.45904">
        <ele>676.7</ele>
      </trkpt>
      <trkpt lat="43.25573" lon="-1.45912">
        <ele>675.9</ele>
      </trkpt>
      <trkpt lat="43.25572" lon="-1.45912">
        <ele>672.41</ele>
        <time>2025-05-07T14:24:28.474Z</time>
      </trkpt>
      <trkpt lat="43.25555" lon="-1.45924">
        <ele>671.5</ele>
        <time>2025-05-07T14:24:33.048Z</time>
      </trkpt>
      <trkpt lat="43.25537" lon="-1.45929">
        <ele>670.6</ele>
        <time>2025-05-07T14:24:37.636Z</time>
      </trkpt>
      <trkpt lat="43.2553" lon="-1.45927">
        <ele>669.7</ele>
        <time>2025-05-07T14:24:42.229Z</time>
      </trkpt>
      <trkpt lat="43.25517" lon="-1.45927">
        <ele>668.86</ele>
        <time>2025-05-07T14:24:46.832Z</time>
      </trkpt>
      <trkpt lat="43.25497" lon="-1.45929">
        <ele>668.11</ele>
        <time>2025-05-07T14:24:51.449Z</time>
      </trkpt>
      <trkpt lat="43.25478" lon="-1.45925">
        <ele>667.29</ele>
        <time>2025-05-07T14:24:56.081Z</time>
      </trkpt>
      <trkpt lat="43.25459" lon="-1.4592">
        <ele>666.44</ele>
        <time>2025-05-07T14:25:00.727Z</time>
      </trkpt>
      <trkpt lat="43.25453" lon="-1.45917">
        <ele>665.76</ele>
        <time>2025-05-07T14:25:05.378Z</time>
      </trkpt>
      <trkpt lat="43.25435" lon="-1.45921">
        <ele>665.12</ele>
        <time>2025-05-07T14:25:10.043Z</time>
      </trkpt>
      <trkpt lat="43.25426" lon="-1.45931">
        <ele>664.57</ele>
        <time>2025-05-07T14:25:14.717Z</time>
      </trkpt>
      <trkpt lat="43.25414" lon="-1.45944">
        <ele>664.09</ele>
        <time>2025-05-07T14:25:19.402Z</time>
      </trkpt>
      <trkpt lat="43.25402" lon="-1.45965">
        <ele>663.6</ele>
        <time>2025-05-07T14:25:24.101Z</time>
      </trkpt>
      <trkpt lat="43.25393" lon="-1.45987">
        <ele>663.21</ele>
        <time>2025-05-07T14:25:28.815Z</time>
      </trkpt>
      <trkpt lat="43.25392" lon="-1.4599">
        <ele>662.95</ele>
        <time>2025-05-07T14:25:33.530Z</time>
      </trkpt>
      <trkpt lat="43.25389" lon="-1.45999">
        <ele>662.76</ele>
        <time>2025-05-07T14:25:38.251Z</time>
      </trkpt>
      <trkpt lat="43.25379" lon="-1.46022">
        <ele>662.66</ele>
        <time>2025-05-07T14:25:42.986Z</time>
      </trkpt>
      <trkpt lat="43.2537" lon="-1.46043">
        <ele>662.71</ele>
        <time>2025-05-07T14:25:47.735Z</time>
      </trkpt>
      <trkpt lat="43.25358" lon="-1.46066">
        <ele>662.78</ele>
        <time>2025-05-07T14:25:52.499Z</time>
      </trkpt>
      <trkpt lat="43.25348" lon="-1.46086">
        <ele>662.93</ele>
        <time>2025-05-07T14:25:57.277Z</time>
      </trkpt>
      <trkpt lat="43.25335" lon="-1.46106">
        <ele>663.09</ele>
        <time>2025-05-07T14:26:02.069Z</time>
      </trkpt>
      <trkpt lat="43.25321" lon="-1.46122">
        <ele>663.34</ele>
        <time>2025-05-07T14:26:06.875Z</time>
      </trkpt>
      <trkpt lat="43.25308" lon="-1.46139">
        <ele>663.71</ele>
        <time>2025-05-07T14:26:11.694Z</time>
      </trkpt>
      <trkpt lat="43.25304" lon="-1.46142">
        <ele>664.18</ele>
        <time>2025-05-07T14:26:16.517Z</time>
      </trkpt>
      <trkpt lat="43.25293" lon="-1.46145">
        <ele>664.75</ele>
        <time>2025-05-07T14:26:21.348Z</time>
      </trkpt>
      <trkpt lat="43.25282" lon="-1.46145">
        <ele>665.44</ele>
        <time>2025-05-07T14:26:26.187Z</time>
      </trkpt>
      <trkpt lat="43.25274" lon="-1.46145">
        <ele>666.22</ele>
        <time>2025-05-07T14:26:31.032Z</time>
      </trkpt>
      <trkpt lat="43.25263" lon="-1.46142">
        <ele>667.13</ele>
        <time>2025-05-07T14:26:35.885Z</time>
      </trkpt>
      <trkpt lat="43.25257" lon="-1.46139">
        <ele>668.12</ele>
        <time>2025-05-07T14:26:40.744Z</time>
      </trkpt>
      <trkpt lat="43.25251" lon="-1.46135">
        <ele>669.18</ele>
        <time>2025-05-07T14:26:45.607Z</time>
      </trkpt>
      <trkpt lat="43.25246" lon="-1.46133">
        <ele>670.32</ele>
        <time>2025-05-07T14:26:50.474Z</time>
      </trkpt>
      <trkpt lat="43.25238" lon="-1.4613">
        <ele>671.55</ele>
        <time>2025-05-07T14:26:55.347Z</time>
      </trkpt>
      <trkpt lat="43.25232" lon="-1.46127">
        <ele>672.84</ele>
        <time>2025-05-07T14:27:00.225Z</time>
      </trkpt>
      <trkpt lat="43.25223" lon="-1.46123">
        <ele>674.21</ele>
        <time>2025-05-07T14:27:05.110Z</time>
      </trkpt>
      <trkpt lat="43.25218" lon="-1.46121">
        <ele>675.58</ele>
        <time>2025-05-07T14:27:09.999Z</time>
      </trkpt>
      <trkpt lat="43.25213" lon="-1.46119">
        <ele>677</ele>
        <time>2025-05-07T14:27:14.892Z</time>
      </trkpt>
      <trkpt lat="43.25206" lon="-1.46117">
        <ele>678.49</ele>
        <time>2025-05-07T14:27:19.790Z</time>
      </trkpt>
      <trkpt lat="43.25201" lon="-1.46115">
        <ele>679.98</ele>
        <time>2025-05-07T14:27:24.692Z</time>
      </trkpt>
      <trkpt lat="43.25199" lon="-1.46115">
        <ele>681.44</ele>
        <time>2025-05-07T14:27:29.596Z</time>
      </trkpt>
      <trkpt lat="43.25196" lon="-1.46114">
        <ele>682.91</ele>
        <time>2025-05-07T14:27:34.502Z</time>
      </trkpt>
      <trkpt lat="43.25187" lon="-1.46111">
        <ele>684.48</ele>
        <time>2025-05-07T14:27:39.415Z</time>
      </trkpt>
      <trkpt lat="43.2518" lon="-1.46109">
        <ele>685.97</ele>
        <time>2025-05-07T14:27:44.333Z</time>
      </trkpt>
      <trkpt lat="43.25176" lon="-1.46108">
        <ele>687.41</ele>
        <time>2025-05-07T14:27:49.254Z</time>
      </trkpt>
      <trkpt lat="43.25169" lon="-1.46106">
        <ele>688.85</ele>
        <time>2025-05-07T14:27:54.181Z</time>
      </trkpt>
      <trkpt lat="43.25165" lon="-1.46105">
        <ele>690.21</ele>
        <time>2025-05-07T14:27:59.111Z</time>
      </trkpt>
      <trkpt lat="43.25161" lon="-1.46103">
        <ele>691.52</ele>
        <time>2025-05-07T14:28:04.044Z</time>
      </trkpt>
      <trkpt lat="43.25157" lon="-1.46102">
        <ele>692.78</ele>
        <time>2025-05-07T14:28:08.980Z</time>
      </trkpt>
      <trkpt lat="43.25153" lon="-1.46101">
        <ele>693.98</ele>
        <time>2025-05-07T14:28:13.920Z</time>
      </trkpt>
      <trkpt lat="43.25149" lon="-1.461">
        <ele>695.11</ele>
        <time>2025-05-07T14:28:18.862Z</time>
      </trkpt>
      <trkpt lat="43.25142" lon="-1.46098">
        <ele>696.21</ele>
        <time>2025-05-07T14:28:23.810Z</time>
      </trkpt>
      <trkpt lat="43.25136" lon="-1.46096">
        <ele>697.22</ele>
        <time>2025-05-07T14:28:28.762Z</time>
      </trkpt>
      <trkpt lat="43.25132" lon="-1.46095">
        <ele>698.15</ele>
        <time>2025-05-07T14:28:33.717Z</time>
      </trkpt>
      <trkpt lat="43.2513" lon="-1.46094">
        <ele>699</ele>
        <time>2025-05-07T14:28:38.674Z</time>
      </trkpt>
      <trkpt lat="43.25122" lon="-1.46092">
        <ele>699.77</ele>
        <time>2025-05-07T14:28:43.637Z</time>
      </trkpt>
      <trkpt lat="43.25119" lon="-1.4609">
        <ele>700.46</ele>
        <time>2025-05-07T14:28:48.603Z</time>
      </trkpt>
      <trkpt lat="43.25116" lon="-1.46089">
        <ele>701.06</ele>
        <time>2025-05-07T14:28:53.571Z</time>
      </trkpt>
      <trkpt lat="43.2511" lon="-1.46088">
        <ele>701.59</ele>
        <time>2025-05-07T14:28:58.543Z</time>
      </trkpt>
      <trkpt lat="43.25106" lon="-1.46088">
        <ele>702.03</ele>
        <time>2025-05-07T14:29:03.518Z</time>
      </trkpt>
      <trkpt lat="43.25103" lon="-1.46089">
        <ele>702.39</ele>
        <time>2025-05-07T14:29:08.495Z</time>
      </trkpt>
      <trkpt lat="43.25101" lon="-1.4609">
        <ele>702.65</ele>
        <time>2025-05-07T14:29:13.475Z</time>
      </trkpt>
      <trkpt lat="43.25093" lon="-1.46094">
        <ele>702.84</ele>
        <time>2025-05-07T14:29:18.461Z</time>
      </trkpt>
      <trkpt lat="43.25084" lon="-1.46101">
        <ele>702.96</ele>
        <time>2025-05-07T14:29:23.454Z</time>
      </trkpt>
      <trkpt lat="43.25081" lon="-1.46105">
        <ele>702.97</ele>
        <time>2025-05-07T14:29:28.451Z</time>
      </trkpt>
      <trkpt lat="43.25075" lon="-1.4611">
        <ele>702.89</ele>
        <time>2025-05-07T14:29:33.452Z</time>
      </trkpt>
      <trkpt lat="43.25067" lon="-1.46117">
        <ele>702.7</ele>
        <time>2025-05-07T14:29:38.461Z</time>
      </trkpt>
      <trkpt lat="43.25065" lon="-1.46119">
        <ele>702.43</ele>
        <time>2025-05-07T14:29:43.472Z</time>
      </trkpt>
      <trkpt lat="43.25061" lon="-1.46122">
        <ele>702.07</ele>
        <time>2025-05-07T14:29:48.486Z</time>
      </trkpt>
      <trkpt lat="43.25056" lon="-1.46125">
        <ele>701.62</ele>
        <time>2025-05-07T14:29:53.504Z</time>
      </trkpt>
      <trkpt lat="43.2505" lon="-1.46128">
        <ele>701.09</ele>
        <time>2025-05-07T14:29:58.527Z</time>
      </trkpt>
      <trkpt lat="43.25049" lon="-1.46129">
        <ele>700.49</ele>
        <time>2025-05-07T14:30:03.551Z</time>
      </trkpt>
      <trkpt lat="43.25044" lon="-1.46128">
        <ele>699.8</ele>
        <time>2025-05-07T14:30:08.578Z</time>
      </trkpt>
      <trkpt lat="43.25039" lon="-1.46128">
        <ele>699.02</ele>
        <time>2025-05-07T14:30:13.610Z</time>
      </trkpt>
      <trkpt lat="43.25021" lon="-1.46134">
        <ele>698.14</ele>
        <time>2025-05-07T14:30:18.655Z</time>
      </trkpt>
      <trkpt lat="43.25017" lon="-1.46136">
        <ele>697.23</ele>
        <time>2025-05-07T14:30:23.704Z</time>
      </trkpt>
      <trkpt lat="43.25014" lon="-1.46138">
        <ele>696.27</ele>
        <time>2025-05-07T14:30:28.755Z</time>
      </trkpt>
      <trkpt lat="43.2501" lon="-1.46138">
        <ele>695.26</ele>
        <time>2025-05-07T14:30:33.809Z</time>
      </trkpt>
      <trkpt lat="43.25004" lon="-1.46139">
        <ele>694.2</ele>
        <time>2025-05-07T14:30:38.867Z</time>
      </trkpt>
      <trkpt lat="43.24999" lon="-1.46139">
        <ele>693.1</ele>
        <time>2025-05-07T14:30:43.929Z</time>
      </trkpt>
      <trkpt lat="43.24992" lon="-1.46141">
        <ele>691.96</ele>
        <time>2025-05-07T14:30:48.996Z</time>
      </trkpt>
      <trkpt lat="43.24988" lon="-1.46141">
        <ele>690.84</ele>
        <time>2025-05-07T14:30:54.067Z</time>
      </trkpt>
      <trkpt lat="43.24984" lon="-1.46142">
        <ele>689.72</ele>
        <time>2025-05-07T14:30:59.140Z</time>
      </trkpt>
      <trkpt lat="43.24981" lon="-1.46144">
        <ele>688.6</ele>
        <time>2025-05-07T14:31:04.216Z</time>
      </trkpt>
      <trkpt lat="43.24977" lon="-1.46146">
        <ele>687.47</ele>
        <time>2025-05-07T14:31:09.295Z</time>
      </trkpt>
      <trkpt lat="43.24973" lon="-1.46147">
        <ele>686.35</ele>
        <time>2025-05-07T14:31:14.377Z</time>
      </trkpt>
      <trkpt lat="43.2497" lon="-1.46147">
        <ele>685.25</ele>
        <time>2025-05-07T14:31:19.462Z</time>
      </trkpt>
      <trkpt lat="43.24966" lon="-1.46149">
        <ele>684.17</ele>
        <time>2025-05-07T14:31:24.550Z</time>
      </trkpt>
      <trkpt lat="43.2496" lon="-1.46151">
        <ele>683.13</ele>
        <time>2025-05-07T14:31:29.642Z</time>
      </trkpt>
      <trkpt lat="43.24954" lon="-1.46152">
        <ele>682.11</ele>
        <time>2025-05-07T14:31:34.739Z</time>
      </trkpt>
      <trkpt lat="43.2495" lon="-1.46153">
        <ele>681.15</ele>
        <time>2025-05-07T14:31:39.839Z</time>
      </trkpt>
      <trkpt lat="43.24935" lon="-1.46156">
        <ele>680.18</ele>
        <time>2025-05-07T14:31:44.950Z</time>
      </trkpt>
      <trkpt lat="43.24924" lon="-1.4616">
        <ele>679.29</ele>
        <time>2025-05-07T14:31:50.070Z</time>
      </trkpt>
      <trkpt lat="43.24905" lon="-1.46166">
        <ele>678.44</ele>
        <time>2025-05-07T14:31:55.205Z</time>
      </trkpt>
      <trkpt lat="43.24894" lon="-1.46171">
        <ele>677.69</ele>
        <time>2025-05-07T14:32:00.348Z</time>
      </trkpt>
      <trkpt lat="43.24889" lon="-1.46175">
        <ele>676.99</ele>
        <time>2025-05-07T14:32:05.495Z</time>
      </trkpt>
      <trkpt lat="43.24887" lon="-1.46177">
        <ele>676.37</ele>
        <time>2025-05-07T14:32:10.645Z</time>
      </trkpt>
      <trkpt lat="43.24884" lon="-1.46178">
        <ele>675.81</ele>
        <time>2025-05-07T14:32:15.796Z</time>
      </trkpt>
      <trkpt lat="43.24882" lon="-1.46179">
        <ele>675.33</ele>
        <time>2025-05-07T14:32:20.949Z</time>
      </trkpt>
      <trkpt lat="43.2488" lon="-1.46179">
        <ele>674.91</ele>
        <time>2025-05-07T14:32:26.104Z</time>
      </trkpt>
      <trkpt lat="43.24878" lon="-1.46179">
        <ele>674.57</ele>
        <time>2025-05-07T14:32:31.260Z</time>
      </trkpt>
      <trkpt lat="43.24869" lon="-1.46178">
        <ele>674.29</ele>
        <time>2025-05-07T14:32:36.423Z</time>
      </trkpt>
      <trkpt lat="43.24862" lon="-1.46176">
        <ele>674.07</ele>
        <time>2025-05-07T14:32:41.591Z</time>
      </trkpt>
      <trkpt lat="43.24854" lon="-1.46174">
        <ele>673.93</ele>
        <time>2025-05-07T14:32:46.766Z</time>
      </trkpt>
      <trkpt lat="43.24849" lon="-1.46173">
        <ele>673.87</ele>
        <time>2025-05-07T14:32:51.944Z</time>
      </trkpt>
      <trkpt lat="43.24831" lon="-1.46165">
        <ele>673.88</ele>
        <time>2025-05-07T14:32:57.137Z</time>
      </trkpt>
      <trkpt lat="43.24819" lon="-1.46158">
        <ele>674</ele>
        <time>2025-05-07T14:33:02.339Z</time>
      </trkpt>
      <trkpt lat="43.24816" lon="-1.46158">
        <ele>674.18</ele>
        <time>2025-05-07T14:33:07.543Z</time>
      </trkpt>
      <trkpt lat="43.24814" lon="-1.46158">
        <ele>674.43</ele>
        <time>2025-05-07T14:33:12.749Z</time>
      </trkpt>
      <trkpt lat="43.24812" lon="-1.46156">
        <ele>674.75</ele>
        <time>2025-05-07T14:33:17.957Z</time>
      </trkpt>
      <trkpt lat="43.2481" lon="-1.46154">
        <ele>675.15</ele>
        <time>2025-05-07T14:33:23.167Z</time>
      </trkpt>
      <trkpt lat="43.24804" lon="-1.46155">
        <ele>675.61</ele>
        <time>2025-05-07T14:33:28.381Z</time>
      </trkpt>
      <trkpt lat="43.24801" lon="-1.46149">
        <ele>676.18</ele>
        <time>2025-05-07T14:33:33.599Z</time>
      </trkpt>
      <trkpt lat="43.24797" lon="-1.46141">
        <ele>676.8</ele>
        <time>2025-05-07T14:33:38.822Z</time>
      </trkpt>
      <trkpt lat="43.2479" lon="-1.46127">
        <ele>677.53</ele>
        <time>2025-05-07T14:33:44.055Z</time>
      </trkpt>
      <trkpt lat="43.24788" lon="-1.46123">
        <ele>678.24</ele>
        <time>2025-05-07T14:33:49.291Z</time>
      </trkpt>
      <trkpt lat="43.24786" lon="-1.46114">
        <ele>679.07</ele>
        <time>2025-05-07T14:33:54.532Z</time>
      </trkpt>
      <trkpt lat="43.24785" lon="-1.46109">
        <ele>679.89</ele>
        <time>2025-05-07T14:33:59.776Z</time>
      </trkpt>
      <trkpt lat="43.24784" lon="-1.46104">
        <ele>680.73</ele>
        <time>2025-05-07T14:34:05.022Z</time>
      </trkpt>
      <trkpt lat="43.24783" lon="-1.46097">
        <ele>681.61</ele>
        <time>2025-05-07T14:34:10.272Z</time>
      </trkpt>
      <trkpt lat="43.24782" lon="-1.4609">
        <ele>682.53</ele>
        <time>2025-05-07T14:34:15.526Z</time>
      </trkpt>
      <trkpt lat="43.2478" lon="-1.46079">
        <ele>683.49</ele>
        <time>2025-05-07T14:34:20.786Z</time>
      </trkpt>
      <trkpt lat="43.24781" lon="-1.4607">
        <ele>684.44</ele>
        <time>2025-05-07T14:34:26.051Z</time>
      </trkpt>
      <trkpt lat="43.2478" lon="-1.46066">
        <ele>685.4</ele>
        <time>2025-05-07T14:34:31.319Z</time>
      </trkpt>
      <trkpt lat="43.24781" lon="-1.46061">
        <ele>686.38</ele>
        <time>2025-05-07T14:34:36.590Z</time>
      </trkpt>
      <trkpt lat="43.24781" lon="-1.46054">
        <ele>687.38</ele>
        <time>2025-05-07T14:34:41.864Z</time>
      </trkpt>
      <trkpt lat="43.24781" lon="-1.46048">
        <ele>688.38</ele>
        <time>2025-05-07T14:34:47.141Z</time>
      </trkpt>
      <trkpt lat="43.24782" lon="-1.46042">
        <ele>689.39</ele>
        <time>2025-05-07T14:34:52.422Z</time>
      </trkpt>
      <trkpt lat="43.24787" lon="-1.46023">
        <ele>690.46</ele>
        <time>2025-05-07T14:34:57.714Z</time>
      </trkpt>
      <trkpt lat="43.24788" lon="-1.46009">
        <ele>691.47</ele>
        <time>2025-05-07T14:35:03.014Z</time>
      </trkpt>
      <trkpt lat="43.24787" lon="-1.46002">
        <ele>692.58</ele>
        <time>2025-05-07T14:35:08.318Z</time>
      </trkpt>
      <trkpt lat="43.24784" lon="-1.45999">
        <ele>693.73</ele>
        <time>2025-05-07T14:35:13.625Z</time>
      </trkpt>
      <trkpt lat="43.24782" lon="-1.45999">
        <ele>694.88</ele>
        <time>2025-05-07T14:35:18.933Z</time>
      </trkpt>
      <trkpt lat="43.2478" lon="-1.46001">
        <ele>696.05</ele>
        <time>2025-05-07T14:35:24.243Z</time>
      </trkpt>
      <trkpt lat="43.24777" lon="-1.46002">
        <ele>697.26</ele>
        <time>2025-05-07T14:35:29.555Z</time>
      </trkpt>
      <trkpt lat="43.24773" lon="-1.46002">
        <ele>698.5</ele>
        <time>2025-05-07T14:35:34.870Z</time>
      </trkpt>
      <trkpt lat="43.2477" lon="-1.46002">
        <ele>699.74</ele>
        <time>2025-05-07T14:35:40.187Z</time>
      </trkpt>
      <trkpt lat="43.24767" lon="-1.46003">
        <ele>701.01</ele>
        <time>2025-05-07T14:35:45.507Z</time>
      </trkpt>
      <trkpt lat="43.24763" lon="-1.46002">
        <ele>702.32</ele>
        <time>2025-05-07T14:35:50.830Z</time>
      </trkpt>
      <trkpt lat="43.2476" lon="-1.46002">
        <ele>703.62</ele>
        <time>2025-05-07T14:35:56.155Z</time>
      </trkpt>
      <trkpt lat="43.24757" lon="-1.46002">
        <ele>704.95</ele>
        <time>2025-05-07T14:36:01.482Z</time>
      </trkpt>
      <trkpt lat="43.24752" lon="-1.45999">
        <ele>706.34</ele>
        <time>2025-05-07T14:36:06.813Z</time>
      </trkpt>
      <trkpt lat="43.24749" lon="-1.45997">
        <ele>707.69</ele>
        <time>2025-05-07T14:36:12.147Z</time>
      </trkpt>
      <trkpt lat="43.24744" lon="-1.45997">
        <ele>709.07</ele>
        <time>2025-05-07T14:36:17.484Z</time>
      </trkpt>
      <trkpt lat="43.2474" lon="-1.45996">
        <ele>710.4</ele>
        <time>2025-05-07T14:36:22.824Z</time>
      </trkpt>
      <trkpt lat="43.24737" lon="-1.45998">
        <ele>711.74</ele>
        <time>2025-05-07T14:36:28.167Z</time>
      </trkpt>
      <trkpt lat="43.24734" lon="-1.45997">
        <ele>713.06</ele>
        <time>2025-05-07T14:36:33.512Z</time>
      </trkpt>
      <trkpt lat="43.24728" lon="-1.45999">
        <ele>714.42</ele>
        <time>2025-05-07T14:36:38.862Z</time>
      </trkpt>
      <trkpt lat="43.24721" lon="-1.46001">
        <ele>715.78</ele>
        <time>2025-05-07T14:36:44.217Z</time>
      </trkpt>
      <trkpt lat="43.24715" lon="-1.45998">
        <ele>717.14</ele>
        <time>2025-05-07T14:36:49.577Z</time>
      </trkpt>
      <trkpt lat="43.24709" lon="-1.45996">
        <ele>718.42</ele>
        <time>2025-05-07T14:36:54.941Z</time>
      </trkpt>
      <trkpt lat="43.24706" lon="-1.45993">
        <ele>719.7</ele>
        <time>2025-05-07T14:37:00.308Z</time>
      </trkpt>
      <trkpt lat="43.247" lon="-1.45988">
        <ele>720.97</ele>
        <time>2025-05-07T14:37:05.680Z</time>
      </trkpt>
      <trkpt lat="43.24697" lon="-1.45985">
        <ele>722.27</ele>
        <time>2025-05-07T14:37:11.055Z</time>
      </trkpt>
      <trkpt lat="43.24695" lon="-1.45982">
        <ele>723.56</ele>
        <time>2025-05-07T14:37:16.432Z</time>
      </trkpt>
      <trkpt lat="43.24691" lon="-1.45976">
        <ele>724.88</ele>
        <time>2025-05-07T14:37:21.814Z</time>
      </trkpt>
      <trkpt lat="43.24687" lon="-1.45973">
        <ele>726.17</ele>
        <time>2025-05-07T14:37:27.199Z</time>
      </trkpt>
      <trkpt lat="43.24681" lon="-1.45968">
        <ele>727.46</ele>
        <time>2025-05-07T14:37:32.589Z</time>
      </trkpt>
      <trkpt lat="43.24677" lon="-1.45964">
        <ele>728.7</ele>
        <time>2025-05-07T14:37:37.983Z</time>
      </trkpt>
      <trkpt lat="43.24676" lon="-1.45963">
        <ele>729.88</ele>
        <time>2025-05-07T14:37:43.378Z</time>
      </trkpt>
      <trkpt lat="43.24672" lon="-1.45961">
        <ele>731.06</ele>
        <time>2025-05-07T14:37:48.776Z</time>
      </trkpt>
      <trkpt lat="43.2467" lon="-1.45959">
        <ele>732.22</ele>
        <time>2025-05-07T14:37:54.176Z</time>
      </trkpt>
      <trkpt lat="43.24668" lon="-1.45956">
        <ele>733.37</ele>
        <time>2025-05-07T14:37:59.578Z</time>
      </trkpt>
      <trkpt lat="43.24665" lon="-1.45951">
        <ele>734.54</ele>
        <time>2025-05-07T14:38:04.984Z</time>
      </trkpt>
      <trkpt lat="43.24662" lon="-1.45948">
        <ele>735.63</ele>
        <time>2025-05-07T14:38:10.392Z</time>
      </trkpt>
      <trkpt lat="43.2466" lon="-1.45942">
        <ele>736.73</ele>
        <time>2025-05-07T14:38:15.804Z</time>
      </trkpt>
      <trkpt lat="43.24658" lon="-1.45938">
        <ele>737.74</ele>
        <time>2025-05-07T14:38:21.219Z</time>
      </trkpt>
      <trkpt lat="43.24655" lon="-1.45933">
        <ele>738.72</ele>
        <time>2025-05-07T14:38:26.638Z</time>
      </trkpt>
      <trkpt lat="43.24653" lon="-1.45928">
        <ele>739.63</ele>
        <time>2025-05-07T14:38:32.059Z</time>
      </trkpt>
      <trkpt lat="43.24652" lon="-1.45923">
        <ele>740.51</ele>
        <time>2025-05-07T14:38:37.483Z</time>
      </trkpt>
      <trkpt lat="43.2465" lon="-1.45918">
        <ele>741.39</ele>
        <time>2025-05-07T14:38:42.911Z</time>
      </trkpt>
      <trkpt lat="43.24648" lon="-1.45914">
        <ele>742.19</ele>
        <time>2025-05-07T14:38:48.341Z</time>
      </trkpt>
      <trkpt lat="43.24651" lon="-1.45892">
        <ele>743.02</ele>
        <time>2025-05-07T14:38:53.783Z</time>
      </trkpt>
      <trkpt lat="43.24653" lon="-1.45886">
        <ele>743.68</ele>
        <time>2025-05-07T14:38:59.229Z</time>
      </trkpt>
      <trkpt lat="43.24657" lon="-1.45879">
        <ele>744.31</ele>
        <time>2025-05-07T14:39:04.680Z</time>
      </trkpt>
      <trkpt lat="43.24658" lon="-1.4588">
        <ele>744.86</ele>
        <time>2025-05-07T14:39:10.132Z</time>
      </trkpt>
      <trkpt lat="43.24665" lon="-1.45877">
        <ele>745.34</ele>
        <time>2025-05-07T14:39:15.590Z</time>
      </trkpt>
      <trkpt lat="43.24666" lon="-1.45876">
        <ele>745.85</ele>
        <time>2025-05-07T14:39:21.049Z</time>
      </trkpt>
      <trkpt lat="43.24672" lon="-1.45874">
        <ele>746.3</ele>
        <time>2025-05-07T14:39:26.512Z</time>
      </trkpt>
      <trkpt lat="43.24688" lon="-1.45862">
        <ele>746.68</ele>
        <time>2025-05-07T14:39:31.988Z</time>
      </trkpt>
      <trkpt lat="43.24688" lon="-1.4586">
        <ele>747.18</ele>
        <time>2025-05-07T14:39:37.466Z</time>
      </trkpt>
      <trkpt lat="43.24703" lon="-1.45844">
        <ele>747.63</ele>
        <time>2025-05-07T14:39:42.958Z</time>
      </trkpt>
      <trkpt lat="43.24707" lon="-1.45836">
        <ele>748.16</ele>
        <time>2025-05-07T14:39:48.455Z</time>
      </trkpt>
      <trkpt lat="43.2471" lon="-1.4583">
        <ele>748.71</ele>
        <time>2025-05-07T14:39:53.956Z</time>
      </trkpt>
      <trkpt lat="43.24713" lon="-1.45823">
        <ele>749.28</ele>
        <time>2025-05-07T14:39:59.461Z</time>
      </trkpt>
      <trkpt lat="43.24714" lon="-1.45818">
        <ele>749.9</ele>
        <time>2025-05-07T14:40:04.970Z</time>
      </trkpt>
      <trkpt lat="43.24717" lon="-1.45814">
        <ele>750.5</ele>
        <time>2025-05-07T14:40:10.482Z</time>
      </trkpt>
      <trkpt lat="43.24719" lon="-1.45811">
        <ele>751.14</ele>
        <time>2025-05-07T14:40:15.996Z</time>
      </trkpt>
      <trkpt lat="43.24717" lon="-1.45808">
        <ele>751.9</ele>
        <time>2025-05-07T14:40:21.512Z</time>
      </trkpt>
      <trkpt lat="43.24712" lon="-1.45809">
        <ele>752.68</ele>
        <time>2025-05-07T14:40:27.032Z</time>
      </trkpt>
      <trkpt lat="43.24706" lon="-1.45813">
        <ele>753.5</ele>
        <time>2025-05-07T14:40:32.557Z</time>
      </trkpt>
      <trkpt lat="43.24703" lon="-1.45813">
        <ele>754.36</ele>
        <time>2025-05-07T14:40:38.084Z</time>
      </trkpt>
      <trkpt lat="43.24699" lon="-1.45814">
        <ele>755.24</ele>
        <time>2025-05-07T14:40:43.614Z</time>
      </trkpt>
      <trkpt lat="43.24696" lon="-1.45816">
        <ele>756.14</ele>
        <time>2025-05-07T14:40:49.146Z</time>
      </trkpt>
      <trkpt lat="43.24689" lon="-1.45818">
        <ele>757.15</ele>
        <time>2025-05-07T14:40:54.684Z</time>
      </trkpt>
      <trkpt lat="43.24685" lon="-1.45819">
        <ele>758.13</ele>
        <time>2025-05-07T14:41:00.225Z</time>
      </trkpt>
      <trkpt lat="43.24681" lon="-1.45819">
        <ele>759.14</ele>
        <time>2025-05-07T14:41:05.769Z</time>
      </trkpt>
      <trkpt lat="43.24679" lon="-1.45812">
        <ele>760.24</ele>
        <time>2025-05-07T14:41:11.317Z</time>
      </trkpt>
      <trkpt lat="43.24679" lon="-1.45808">
        <ele>761.29</ele>
        <time>2025-05-07T14:41:16.867Z</time>
      </trkpt>
      <trkpt lat="43.24679" lon="-1.45807">
        <ele>762.31</ele>
        <time>2025-05-07T14:41:22.418Z</time>
      </trkpt>
      <trkpt lat="43.24675" lon="-1.45808">
        <ele>763.38</ele>
        <time>2025-05-07T14:41:27.972Z</time>
      </trkpt>
      <trkpt lat="43.24671" lon="-1.45806">
        <ele>764.51</ele>
        <time>2025-05-07T14:41:33.529Z</time>
      </trkpt>
      <trkpt lat="43.24667" lon="-1.45803">
        <ele>765.65</ele>
        <time>2025-05-07T14:41:39.090Z</time>
      </trkpt>
      <trkpt lat="43.24659" lon="-1.45801">
        <ele>766.82</ele>
        <time>2025-05-07T14:41:44.656Z</time>
      </trkpt>
      <trkpt lat="43.24657" lon="-1.45798">
        <ele>767.92</ele>
        <time>2025-05-07T14:41:50.225Z</time>
      </trkpt>
      <trkpt lat="43.24659" lon="-1.45794">
        <ele>768.99</ele>
        <time>2025-05-07T14:41:55.797Z</time>
      </trkpt>
      <trkpt lat="43.24663" lon="-1.45788">
        <ele>770.03</ele>
        <time>2025-05-07T14:42:01.373Z</time>
      </trkpt>
      <trkpt lat="43.24667" lon="-1.45783">
        <ele>771.05</ele>
        <time>2025-05-07T14:42:06.953Z</time>
      </trkpt>
      <trkpt lat="43.2467" lon="-1.45781">
        <ele>772.04</ele>
        <time>2025-05-07T14:42:12.536Z</time>
      </trkpt>
      <trkpt lat="43.24674" lon="-1.45776">
        <ele>773.05</ele>
        <time>2025-05-07T14:42:18.123Z</time>
      </trkpt>
      <trkpt lat="43.24678" lon="-1.45769">
        <ele>774.06</ele>
        <time>2025-05-07T14:42:23.715Z</time>
      </trkpt>
      <trkpt lat="43.24682" lon="-1.45762">
        <ele>775.06</ele>
        <time>2025-05-07T14:42:29.311Z</time>
      </trkpt>
      <trkpt lat="43.24685" lon="-1.45757">
        <ele>776.03</ele>
        <time>2025-05-07T14:42:34.911Z</time>
      </trkpt>
      <trkpt lat="43.24688" lon="-1.45752">
        <ele>777</ele>
        <time>2025-05-07T14:42:40.514Z</time>
      </trkpt>
      <trkpt lat="43.24687" lon="-1.45752">
        <ele>777.95</ele>
        <time>2025-05-07T14:42:46.118Z</time>
      </trkpt>
      <trkpt lat="43.24689" lon="-1.45747">
        <ele>778.92</ele>
        <time>2025-05-07T14:42:51.725Z</time>
      </trkpt>
      <trkpt lat="43.24688" lon="-1.45742">
        <ele>779.88</ele>
        <time>2025-05-07T14:42:57.334Z</time>
      </trkpt>
      <trkpt lat="43.24694" lon="-1.4573">
        <ele>780.81</ele>
        <time>2025-05-07T14:43:02.951Z</time>
      </trkpt>
      <trkpt lat="43.24695" lon="-1.45729">
        <ele>781.7</ele>
        <time>2025-05-07T14:43:08.569Z</time>
      </trkpt>
      <trkpt lat="43.24696" lon="-1.45724">
        <ele>782.61</ele>
        <time>2025-05-07T14:43:14.190Z</time>
      </trkpt>
      <trkpt lat="43.24696" lon="-1.45722">
        <ele>783.51</ele>
        <time>2025-05-07T14:43:19.812Z</time>
      </trkpt>
      <trkpt lat="43.24697" lon="-1.4572">
        <ele>784.37</ele>
        <time>2025-05-07T14:43:25.436Z</time>
      </trkpt>
      <trkpt lat="43.24697" lon="-1.45714">
        <ele>785.26</ele>
        <time>2025-05-07T14:43:31.063Z</time>
      </trkpt>
      <trkpt lat="43.24698" lon="-1.4571">
        <ele>786.14</ele>
        <time>2025-05-07T14:43:36.692Z</time>
      </trkpt>
      <trkpt lat="43.24698" lon="-1.45705">
        <ele>787</ele>
        <time>2025-05-07T14:43:42.324Z</time>
      </trkpt>
      <trkpt lat="43.24696" lon="-1.45705">
        <ele>787.84</ele>
        <time>2025-05-07T14:43:47.957Z</time>
      </trkpt>
      <trkpt lat="43.24695" lon="-1.457">
        <ele>788.71</ele>
        <time>2025-05-07T14:43:53.593Z</time>
      </trkpt>
      <trkpt lat="43.24695" lon="-1.45696">
        <ele>789.53</ele>
        <time>2025-05-07T14:43:59.231Z</time>
      </trkpt>
      <trkpt lat="43.24694" lon="-1.45694">
        <ele>790.35</ele>
        <time>2025-05-07T14:44:04.870Z</time>
      </trkpt>
      <trkpt lat="43.2469" lon="-1.45691">
        <ele>791.19</ele>
        <time>2025-05-07T14:44:10.512Z</time>
      </trkpt>
      <trkpt lat="43.2469" lon="-1.45683">
        <ele>792.01</ele>
        <time>2025-05-07T14:44:16.158Z</time>
      </trkpt>
      <trkpt lat="43.24688" lon="-1.45679">
        <ele>792.81</ele>
        <time>2025-05-07T14:44:21.807Z</time>
      </trkpt>
      <trkpt lat="43.24688" lon="-1.45673">
        <ele>793.56</ele>
        <time>2025-05-07T14:44:27.460Z</time>
      </trkpt>
      <trkpt lat="43.24689" lon="-1.45668">
        <ele>794.25</ele>
        <time>2025-05-07T14:44:33.115Z</time>
      </trkpt>
      <trkpt lat="43.24689" lon="-1.45664">
        <ele>794.92</ele>
        <time>2025-05-07T14:44:38.772Z</time>
      </trkpt>
      <trkpt lat="43.24687" lon="-1.4566">
        <ele>795.61</ele>
        <time>2025-05-07T14:44:44.432Z</time>
      </trkpt>
      <trkpt lat="43.24686" lon="-1.45654">
        <ele>796.24</ele>
        <time>2025-05-07T14:44:50.096Z</time>
      </trkpt>
      <trkpt lat="43.24688" lon="-1.45645">
        <ele>796.84</ele>
        <time>2025-05-07T14:44:55.765Z</time>
      </trkpt>
      <trkpt lat="43.24689" lon="-1.45633">
        <ele>797.38</ele>
        <time>2025-05-07T14:45:01.440Z</time>
      </trkpt>
      <trkpt lat="43.24688" lon="-1.4563">
        <ele>797.85</ele>
        <time>2025-05-07T14:45:07.117Z</time>
      </trkpt>
      <trkpt lat="43.24688" lon="-1.45627">
        <ele>798.25</ele>
        <time>2025-05-07T14:45:12.796Z</time>
      </trkpt>
      <trkpt lat="43.24688" lon="-1.45624">
        <ele>798.62</ele>
        <time>2025-05-07T14:45:18.477Z</time>
      </trkpt>
      <trkpt lat="43.24687" lon="-1.45617">
        <ele>798.94</ele>
        <time>2025-05-07T14:45:24.162Z</time>
      </trkpt>
      <trkpt lat="43.24682" lon="-1.45607">
        <ele>799.17</ele>
        <time>2025-05-07T14:45:29.853Z</time>
      </trkpt>
      <trkpt lat="43.24678" lon="-1.45604">
        <ele>799.36</ele>
        <time>2025-05-07T14:45:35.548Z</time>
      </trkpt>
      <trkpt lat="43.24672" lon="-1.456">
        <ele>799.5</ele>
        <time>2025-05-07T14:45:41.248Z</time>
      </trkpt>
      <trkpt lat="43.24671" lon="-1.45599">
        <ele>799.62</ele>
        <time>2025-05-07T14:45:46.949Z</time>
      </trkpt>
      <trkpt lat="43.24672" lon="-1.45598">
        <ele>799.71</ele>
        <time>2025-05-07T14:45:52.650Z</time>
      </trkpt>
      <trkpt lat="43.24673" lon="-1.45599">
        <ele>799.77</ele>
        <time>2025-05-07T14:45:58.352Z</time>
      </trkpt>
      <trkpt lat="43.24677" lon="-1.45599">
        <ele>799.79</ele>
        <time>2025-05-07T14:46:04.057Z</time>
      </trkpt>
      <trkpt lat="43.24681" lon="-1.456">
        <ele>799.77</ele>
        <time>2025-05-07T14:46:09.765Z</time>
      </trkpt>
      <trkpt lat="43.24681" lon="-1.45604">
        <ele>799.7</ele>
        <time>2025-05-07T14:46:15.475Z</time>
      </trkpt>
      <trkpt lat="43.24681" lon="-1.45604">
        <ele>799.57</ele>
        <time>2025-05-07T14:46:21.185Z</time>
      </trkpt>
      <trkpt lat="43.24672" lon="-1.45619">
        <ele>799.39</ele>
        <time>2025-05-07T14:46:26.905Z</time>
      </trkpt>
      <trkpt lat="43.24664" lon="-1.4563">
        <ele>799.16</ele>
        <time>2025-05-07T14:46:32.634Z</time>
      </trkpt>
      <trkpt lat="43.24661" lon="-1.45633">
        <ele>798.89</ele>
        <time>2025-05-07T14:46:38.366Z</time>
      </trkpt>
      <trkpt lat="43.24656" lon="-1.45634">
        <ele>798.56</ele>
        <time>2025-05-07T14:46:44.101Z</time>
      </trkpt>
      <trkpt lat="43.24653" lon="-1.45636">
        <ele>798.21</ele>
        <time>2025-05-07T14:46:49.839Z</time>
      </trkpt>
      <trkpt lat="43.24648" lon="-1.45642">
        <ele>797.8</ele>
        <time>2025-05-07T14:46:55.582Z</time>
      </trkpt>
      <trkpt lat="43.24638" lon="-1.45663">
        <ele>797.3</ele>
        <time>2025-05-07T14:47:01.339Z</time>
      </trkpt>
      <trkpt lat="43.24636" lon="-1.45666">
        <ele>796.84</ele>
        <time>2025-05-07T14:47:07.098Z</time>
      </trkpt>
      <trkpt lat="43.24635" lon="-1.45667">
        <ele>796.34</ele>
        <time>2025-05-07T14:47:12.858Z</time>
      </trkpt>
      <trkpt lat="43.24625" lon="-1.45676">
        <ele>795.78</ele>
        <time>2025-05-07T14:47:18.627Z</time>
      </trkpt>
      <trkpt lat="43.2462" lon="-1.45675">
        <ele>795.2</ele>
        <time>2025-05-07T14:47:24.400Z</time>
      </trkpt>
      <trkpt lat="43.24619" lon="-1.45674">
        <ele>794.6</ele>
        <time>2025-05-07T14:47:30.173Z</time>
      </trkpt>
      <trkpt lat="43.24616" lon="-1.45671">
        <ele>793.96</ele>
        <time>2025-05-07T14:47:35.949Z</time>
      </trkpt>
      <trkpt lat="43.24607" lon="-1.4566">
        <ele>793.27</ele>
        <time>2025-05-07T14:47:41.734Z</time>
      </trkpt>
      <trkpt lat="43.24602" lon="-1.45659">
        <ele>792.51</ele>
        <time>2025-05-07T14:47:47.523Z</time>
      </trkpt>
      <trkpt lat="43.24596" lon="-1.45662">
        <ele>791.71</ele>
        <time>2025-05-07T14:47:53.317Z</time>
      </trkpt>
      <trkpt lat="43.2459" lon="-1.45663">
        <ele>790.86</ele>
        <time>2025-05-07T14:47:59.115Z</time>
      </trkpt>
      <trkpt lat="43.24587" lon="-1.45664">
        <ele>790.01</ele>
        <time>2025-05-07T14:48:04.916Z</time>
      </trkpt>
      <trkpt lat="43.24587" lon="-1.45664">
        <ele>789.15</ele>
        <time>2025-05-07T14:48:10.717Z</time>
      </trkpt>
      <trkpt lat="43.24585" lon="-1.45659">
        <ele>788.23</ele>
        <time>2025-05-07T14:48:16.521Z</time>
      </trkpt>
      <trkpt lat="43.24581" lon="-1.45658">
        <ele>787.27</ele>
        <time>2025-05-07T14:48:22.328Z</time>
      </trkpt>
      <trkpt lat="43.2458" lon="-1.45658">
        <ele>786.31</ele>
        <time>2025-05-07T14:48:28.136Z</time>
      </trkpt>
      <trkpt lat="43.24579" lon="-1.45658">
        <ele>785.32</ele>
        <time>2025-05-07T14:48:33.944Z</time>
      </trkpt>
      <trkpt lat="43.24577" lon="-1.4566">
        <ele>784.28</ele>
        <time>2025-05-07T14:48:39.755Z</time>
      </trkpt>
      <trkpt lat="43.24575" lon="-1.45662">
        <ele>783.2</ele>
        <time>2025-05-07T14:48:45.567Z</time>
      </trkpt>
      <trkpt lat="43.24572" lon="-1.45663">
        <ele>782.08</ele>
        <time>2025-05-07T14:48:51.381Z</time>
      </trkpt>
      <trkpt lat="43.24572" lon="-1.45662">
        <ele>780.96</ele>
        <time>2025-05-07T14:48:57.196Z</time>
      </trkpt>
      <trkpt lat="43.24572" lon="-1.4566">
        <ele>779.79</ele>
        <time>2025-05-07T14:49:03.011Z</time>
      </trkpt>
      <trkpt lat="43.24571" lon="-1.45657">
        <ele>778.58</ele>
        <time>2025-05-07T14:49:08.828Z</time>
      </trkpt>
      <trkpt lat="43.2457" lon="-1.45655">
        <ele>777.35</ele>
        <time>2025-05-07T14:49:14.647Z</time>
      </trkpt>
      <trkpt lat="43.24565" lon="-1.45648">
        <ele>775.99</ele>
        <time>2025-05-07T14:49:20.471Z</time>
      </trkpt>
      <trkpt lat="43.24563" lon="-1.45643">
        <ele>774.63</ele>
        <time>2025-05-07T14:49:26.298Z</time>
      </trkpt>
      <trkpt lat="43.24562" lon="-1.45637">
        <ele>773.26</ele>
        <time>2025-05-07T14:49:32.129Z</time>
      </trkpt>
      <trkpt lat="43.24561" lon="-1.45633">
        <ele>771.86</ele>
        <time>2025-05-07T14:49:37.962Z</time>
      </trkpt>
      <trkpt lat="43.24561" lon="-1.4563">
        <ele>770.49</ele>
        <time>2025-05-07T14:49:43.796Z</time>
      </trkpt>
      <trkpt lat="43.2456" lon="-1.45627">
        <ele>769.08</ele>
        <time>2025-05-07T14:49:49.632Z</time>
      </trkpt>
      <trkpt lat="43.24558" lon="-1.45623">
        <ele>767.65</ele>
        <time>2025-05-07T14:49:55.471Z</time>
      </trkpt>
      <trkpt lat="43.24555" lon="-1.45622">
        <ele>766.21</ele>
        <time>2025-05-07T14:50:01.313Z</time>
      </trkpt>
      <trkpt lat="43.2455" lon="-1.45621">
        <ele>764.77</ele>
        <time>2025-05-07T14:50:07.158Z</time>
      </trkpt>
      <trkpt lat="43.24546" lon="-1.45621">
        <ele>763.38</ele>
        <time>2025-05-07T14:50:13.006Z</time>
      </trkpt>
      <trkpt lat="43.24543" lon="-1.4562">
        <ele>761.99</ele>
        <time>2025-05-07T14:50:18.856Z</time>
      </trkpt>
      <trkpt lat="43.2454" lon="-1.45616">
        <ele>760.59</ele>
        <time>2025-05-07T14:50:24.709Z</time>
      </trkpt>
      <trkpt lat="43.24534" lon="-1.45612">
        <ele>759.17</ele>
        <time>2025-05-07T14:50:30.567Z</time>
      </trkpt>
      <trkpt lat="43.24527" lon="-1.45612">
        <ele>757.8</ele>
        <time>2025-05-07T14:50:36.431Z</time>
      </trkpt>
      <trkpt lat="43.24519" lon="-1.45613">
        <ele>756.5</ele>
        <time>2025-05-07T14:50:42.301Z</time>
      </trkpt>
      <trkpt lat="43.24511" lon="-1.45623">
        <ele>755.35</ele>
        <time>2025-05-07T14:50:48.179Z</time>
      </trkpt>
      <trkpt lat="43.24507" lon="-1.45625">
        <ele>754.22</ele>
        <time>2025-05-07T14:50:54.060Z</time>
      </trkpt>
      <trkpt lat="43.24504" lon="-1.45627">
        <ele>753.15</ele>
        <time>2025-05-07T14:50:59.944Z</time>
      </trkpt>
      <trkpt lat="43.24503" lon="-1.45627">
        <ele>752.15</ele>
        <time>2025-05-07T14:51:05.829Z</time>
      </trkpt>
      <trkpt lat="43.24501" lon="-1.45626">
        <ele>751.21</ele>
        <time>2025-05-07T14:51:11.715Z</time>
      </trkpt>
      <trkpt lat="43.245" lon="-1.45625">
        <ele>750.34</ele>
        <time>2025-05-07T14:51:17.602Z</time>
      </trkpt>
      <trkpt lat="43.24499" lon="-1.45623">
        <ele>749.53</ele>
        <time>2025-05-07T14:51:23.490Z</time>
      </trkpt>
      <trkpt lat="43.24498" lon="-1.45622">
        <ele>748.81</ele>
        <time>2025-05-07T14:51:29.379Z</time>
      </trkpt>
      <trkpt lat="43.24495" lon="-1.45621">
        <ele>748.16</ele>
        <time>2025-05-07T14:51:35.271Z</time>
      </trkpt>
      <trkpt lat="43.24489" lon="-1.45618">
        <ele>747.54</ele>
        <time>2025-05-07T14:51:41.167Z</time>
      </trkpt>
      <trkpt lat="43.24484" lon="-1.45618">
        <ele>747.03</ele>
        <time>2025-05-07T14:51:47.067Z</time>
      </trkpt>
      <trkpt lat="43.2448" lon="-1.4562">
        <ele>746.64</ele>
        <time>2025-05-07T14:51:52.970Z</time>
      </trkpt>
      <trkpt lat="43.24476" lon="-1.45623">
        <ele>746.35</ele>
        <time>2025-05-07T14:51:58.876Z</time>
      </trkpt>
      <trkpt lat="43.24473" lon="-1.45627">
        <ele>746.17</ele>
        <time>2025-05-07T14:52:04.786Z</time>
      </trkpt>
      <trkpt lat="43.24469" lon="-1.45632">
        <ele>746.1</ele>
        <time>2025-05-07T14:52:10.700Z</time>
      </trkpt>
      <trkpt lat="43.24467" lon="-1.45652">
        <ele>746.15</ele>
        <time>2025-05-07T14:52:16.624Z</time>
      </trkpt>
      <trkpt lat="43.2447" lon="-1.4566">
        <ele>746.32</ele>
        <time>2025-05-07T14:52:22.553Z</time>
      </trkpt>
      <trkpt lat="43.24469" lon="-1.45674">
        <ele>746.59</ele>
        <time>2025-05-07T14:52:28.490Z</time>
      </trkpt>
      <trkpt lat="43.24466" lon="-1.45677">
        <ele>746.88</ele>
        <time>2025-05-07T14:52:34.430Z</time>
      </trkpt>
      <trkpt lat="43.24463" lon="-1.45687">
        <ele>747.29</ele>
        <time>2025-05-07T14:52:40.376Z</time>
      </trkpt>
      <trkpt lat="43.24461" lon="-1.45703">
        <ele>747.84</ele>
        <time>2025-05-07T14:52:46.331Z</time>
      </trkpt>
      <trkpt lat="43.24463" lon="-1.45708">
        <ele>748.52</ele>
        <time>2025-05-07T14:52:52.289Z</time>
      </trkpt>
      <trkpt lat="43.24464" lon="-1.45717">
        <ele>749.3</ele>
        <time>2025-05-07T14:52:58.252Z</time>
      </trkpt>
      <trkpt lat="43.24466" lon="-1.4572">
        <ele>750.14</ele>
        <time>2025-05-07T14:53:04.217Z</time>
      </trkpt>
      <trkpt lat="43.24468" lon="-1.45725">
        <ele>751.09</ele>
        <time>2025-05-07T14:53:10.185Z</time>
      </trkpt>
      <trkpt lat="43.24469" lon="-1.45726">
        <ele>752.08</ele>
        <time>2025-05-07T14:53:16.154Z</time>
      </trkpt>
      <trkpt lat="43.24472" lon="-1.45729">
        <ele>753.18</ele>
        <time>2025-05-07T14:53:22.126Z</time>
      </trkpt>
      <trkpt lat="43.24475" lon="-1.45732">
        <ele>754.32</ele>
        <time>2025-05-07T14:53:28.100Z</time>
      </trkpt>
      <trkpt lat="43.24483" lon="-1.45736">
        <ele>755.61</ele>
        <time>2025-05-07T14:53:34.081Z</time>
      </trkpt>
      <trkpt lat="43.24487" lon="-1.45736">
        <ele>756.84</ele>
        <time>2025-05-07T14:53:40.065Z</time>
      </trkpt>
      <trkpt lat="43.24497" lon="-1.45733">
        <ele>758.16</ele>
        <time>2025-05-07T14:53:46.056Z</time>
      </trkpt>
      <trkpt lat="43.24501" lon="-1.4573">
        <ele>759.46</ele>
        <time>2025-05-07T14:53:52.051Z</time>
      </trkpt>
      <trkpt lat="43.24508" lon="-1.4573">
        <ele>760.81</ele>
        <time>2025-05-07T14:53:58.051Z</time>
      </trkpt>
      <trkpt lat="43.2451" lon="-1.4573">
        <ele>762.11</ele>
        <time>2025-05-07T14:54:04.053Z</time>
      </trkpt>
      <trkpt lat="43.2451" lon="-1.4573">
        <ele>763.39</ele>
        <time>2025-05-07T14:54:10.055Z</time>
      </trkpt>
      <trkpt lat="43.24512" lon="-1.45731">
        <ele>764.7</ele>
        <time>2025-05-07T14:54:16.058Z</time>
      </trkpt>
      <trkpt lat="43.24515" lon="-1.45734">
        <ele>766.03</ele>
        <time>2025-05-07T14:54:22.064Z</time>
      </trkpt>
      <trkpt lat="43.24516" lon="-1.45736">
        <ele>767.31</ele>
        <time>2025-05-07T14:54:28.072Z</time>
      </trkpt>
      <trkpt lat="43.24518" lon="-1.45744">
        <ele>768.61</ele>
        <time>2025-05-07T14:54:34.084Z</time>
      </trkpt>
      <trkpt lat="43.24519" lon="-1.45748">
        <ele>769.86</ele>
        <time>2025-05-07T14:54:40.099Z</time>
      </trkpt>
      <trkpt lat="43.24518" lon="-1.45754">
        <ele>771.08</ele>
        <time>2025-05-07T14:54:46.117Z</time>
      </trkpt>
      <trkpt lat="43.24518" lon="-1.45756">
        <ele>772.27</ele>
        <time>2025-05-07T14:54:52.136Z</time>
      </trkpt>
      <trkpt lat="43.24517" lon="-1.45766">
        <ele>773.45</ele>
        <time>2025-05-07T14:54:58.161Z</time>
      </trkpt>
      <trkpt lat="43.24514" lon="-1.4578">
        <ele>774.6</ele>
        <time>2025-05-07T14:55:04.193Z</time>
      </trkpt>
      <trkpt lat="43.24513" lon="-1.45785">
        <ele>775.7</ele>
        <time>2025-05-07T14:55:10.229Z</time>
      </trkpt>
      <trkpt lat="43.24514" lon="-1.45792">
        <ele>776.77</ele>
        <time>2025-05-07T14:55:16.268Z</time>
      </trkpt>
      <trkpt lat="43.24513" lon="-1.45805">
        <ele>777.82</ele>
        <time>2025-05-07T14:55:22.314Z</time>
      </trkpt>
      <trkpt lat="43.24513" lon="-1.45813">
        <ele>778.81</ele>
        <time>2025-05-07T14:55:28.365Z</time>
      </trkpt>
      <trkpt lat="43.24514" lon="-1.45815">
        <ele>779.71</ele>
        <time>2025-05-07T14:55:34.417Z</time>
      </trkpt>
      <trkpt lat="43.24517" lon="-1.45819">
        <ele>780.57</ele>
        <time>2025-05-07T14:55:40.472Z</time>
      </trkpt>
      <trkpt lat="43.24519" lon="-1.45821">
        <ele>781.38</ele>
        <time>2025-05-07T14:55:46.529Z</time>
      </trkpt>
      <trkpt lat="43.24522" lon="-1.45824">
        <ele>782.15</ele>
        <time>2025-05-07T14:55:52.589Z</time>
      </trkpt>
      <trkpt lat="43.24522" lon="-1.45824">
        <ele>782.84</ele>
        <time>2025-05-07T14:55:58.649Z</time>
      </trkpt>
      <trkpt lat="43.24522" lon="-1.45829">
        <ele>783.5</ele>
        <time>2025-05-07T14:56:04.712Z</time>
      </trkpt>
      <trkpt lat="43.24522" lon="-1.45832">
        <ele>784.1</ele>
        <time>2025-05-07T14:56:10.777Z</time>
      </trkpt>
      <trkpt lat="43.24522" lon="-1.45833">
        <ele>784.66</ele>
        <time>2025-05-07T14:56:16.842Z</time>
      </trkpt>
      <trkpt lat="43.24519" lon="-1.45842">
        <ele>785.18</ele>
        <time>2025-05-07T14:56:22.912Z</time>
      </trkpt>
      <trkpt lat="43.24522" lon="-1.45844">
        <ele>785.64</ele>
        <time>2025-05-07T14:56:28.985Z</time>
      </trkpt>
      <trkpt lat="43.24523" lon="-1.45847">
        <ele>786.07</ele>
        <time>2025-05-07T14:56:35.059Z</time>
      </trkpt>
      <trkpt lat="43.24521" lon="-1.45854">
        <ele>786.47</ele>
        <time>2025-05-07T14:56:41.137Z</time>
      </trkpt>
      <trkpt lat="43.24517" lon="-1.45868">
        <ele>786.85</ele>
        <time>2025-05-07T14:56:47.223Z</time>
      </trkpt>
      <trkpt lat="43.24514" lon="-1.45875">
        <ele>787.2</ele>
        <time>2025-05-07T14:56:53.314Z</time>
      </trkpt>
      <trkpt lat="43.2451" lon="-1.4588">
        <ele>787.51</ele>
        <time>2025-05-07T14:56:59.409Z</time>
      </trkpt>
      <trkpt lat="43.24505" lon="-1.45885">
        <ele>787.81</ele>
        <time>2025-05-07T14:57:05.509Z</time>
      </trkpt>
      <trkpt lat="43.24505" lon="-1.45885">
        <ele>788.03</ele>
        <time>2025-05-07T14:57:11.609Z</time>
      </trkpt>
      <trkpt lat="43.245" lon="-1.45889">
        <ele>788.26</ele>
        <time>2025-05-07T14:57:17.713Z</time>
      </trkpt>
      <trkpt lat="43.24494" lon="-1.45894">
        <ele>788.45</ele>
        <time>2025-05-07T14:57:23.822Z</time>
      </trkpt>
      <trkpt lat="43.24491" lon="-1.45897">
        <ele>788.6</ele>
        <time>2025-05-07T14:57:29.934Z</time>
      </trkpt>
      <trkpt lat="43.24488" lon="-1.45893">
        <ele>788.74</ele>
        <time>2025-05-07T14:57:36.049Z</time>
      </trkpt>
      <trkpt lat="43.24483" lon="-1.45906">
        <ele>788.81</ele>
        <time>2025-05-07T14:57:42.172Z</time>
      </trkpt>
      <trkpt lat="43.24479" lon="-1.45911">
        <ele>788.87</ele>
        <time>2025-05-07T14:57:48.299Z</time>
      </trkpt>
      <trkpt lat="43.24473" lon="-1.45918">
        <ele>788.91</ele>
        <time>2025-05-07T14:57:54.432Z</time>
      </trkpt>
      <trkpt lat="43.2447" lon="-1.45919">
        <ele>788.92</ele>
        <time>2025-05-07T14:58:00.567Z</time>
      </trkpt>
      <trkpt lat="43.24466" lon="-1.45923">
        <ele>788.89</ele>
        <time>2025-05-07T14:58:06.706Z</time>
      </trkpt>
      <trkpt lat="43.24453" lon="-1.45941">
        <ele>788.73</ele>
        <time>2025-05-07T14:58:12.859Z</time>
      </trkpt>
      <trkpt lat="43.24452" lon="-1.45945">
        <ele>788.62</ele>
        <time>2025-05-07T14:58:19.014Z</time>
      </trkpt>
      <trkpt lat="43.2445" lon="-1.45954">
        <ele>788.48</ele>
        <time>2025-05-07T14:58:25.174Z</time>
      </trkpt>
      <trkpt lat="43.2445" lon="-1.45953">
        <ele>788.35</ele>
        <time>2025-05-07T14:58:31.334Z</time>
      </trkpt>
      <trkpt lat="43.24449" lon="-1.45953">
        <ele>788.2</ele>
        <time>2025-05-07T14:58:37.495Z</time>
      </trkpt>
      <trkpt lat="43.24447" lon="-1.45952">
        <ele>788.02</ele>
        <time>2025-05-07T14:58:43.658Z</time>
      </trkpt>
      <trkpt lat="43.24442" lon="-1.45947">
        <ele>787.82</ele>
        <time>2025-05-07T14:58:49.825Z</time>
      </trkpt>
      <trkpt lat="43.24439" lon="-1.45946">
        <ele>787.59</ele>
        <time>2025-05-07T14:58:55.994Z</time>
      </trkpt>
      <trkpt lat="43.24435" lon="-1.45946">
        <ele>787.32</ele>
        <time>2025-05-07T14:59:02.166Z</time>
      </trkpt>
      <trkpt lat="43.24431" lon="-1.45945">
        <ele>787.01</ele>
        <time>2025-05-07T14:59:08.342Z</time>
      </trkpt>
      <trkpt lat="43.24427" lon="-1.45942">
        <ele>786.67</ele>
        <time>2025-05-07T14:59:14.521Z</time>
      </trkpt>
      <trkpt lat="43.24425" lon="-1.4594">
        <ele>786.32</ele>
        <time>2025-05-07T14:59:20.702Z</time>
      </trkpt>
      <trkpt lat="43.24422" lon="-1.45939">
        <ele>785.92</ele>
        <time>2025-05-07T14:59:26.885Z</time>
      </trkpt>
      <trkpt lat="43.2442" lon="-1.45942">
        <ele>785.49</ele>
        <time>2025-05-07T14:59:33.070Z</time>
      </trkpt>
      <trkpt lat="43.24418" lon="-1.45944">
        <ele>785.03</ele>
        <time>2025-05-07T14:59:39.257Z</time>
      </trkpt>
      <trkpt lat="43.24415" lon="-1.45945">
        <ele>784.53</ele>
        <time>2025-05-07T14:59:45.446Z</time>
      </trkpt>
      <trkpt lat="43.24413" lon="-1.45946">
        <ele>783.99</ele>
        <time>2025-05-07T14:59:51.637Z</time>
      </trkpt>
      <trkpt lat="43.24411" lon="-1.45947">
        <ele>783.41</ele>
        <time>2025-05-07T14:59:57.830Z</time>
      </trkpt>
      <trkpt lat="43.24409" lon="-1.45947">
        <ele>782.79</ele>
        <time>2025-05-07T15:00:04.024Z</time>
      </trkpt>
      <trkpt lat="43.24405" lon="-1.45948">
        <ele>782.08</ele>
        <time>2025-05-07T15:00:10.221Z</time>
      </trkpt>
      <trkpt lat="43.24404" lon="-1.45949">
        <ele>781.36</ele>
        <time>2025-05-07T15:00:16.419Z</time>
      </trkpt>
      <trkpt lat="43.24402" lon="-1.45952">
        <ele>780.59</ele>
        <time>2025-05-07T15:00:22.619Z</time>
      </trkpt>
      <trkpt lat="43.24398" lon="-1.45964">
        <ele>779.72</ele>
        <time>2025-05-07T15:00:28.826Z</time>
      </trkpt>
      <trkpt lat="43.24397" lon="-1.45965">
        <ele>778.86</ele>
        <time>2025-05-07T15:00:35.034Z</time>
      </trkpt>
      <trkpt lat="43.24394" lon="-1.45963">
        <ele>777.92</ele>
        <time>2025-05-07T15:00:41.245Z</time>
      </trkpt>
      <trkpt lat="43.24393" lon="-1.45962">
        <ele>776.94</ele>
        <time>2025-05-07T15:00:47.457Z</time>
      </trkpt>
      <trkpt lat="43.24392" lon="-1.45961">
        <ele>775.91</ele>
        <time>2025-05-07T15:00:53.670Z</time>
      </trkpt>
      <trkpt lat="43.24389" lon="-1.45961">
        <ele>774.81</ele>
        <time>2025-05-07T15:00:59.885Z</time>
      </trkpt>
      <trkpt lat="43.24387" lon="-1.45961">
        <ele>773.65</ele>
        <time>2025-05-07T15:01:06.102Z</time>
      </trkpt>
      <trkpt lat="43.24384" lon="-1.45965">
        <ele>772.42</ele>
        <time>2025-05-07T15:01:12.321Z</time>
      </trkpt>
      <trkpt lat="43.24382" lon="-1.45969">
        <ele>771.14</ele>
        <time>2025-05-07T15:01:18.543Z</time>
      </trkpt>
      <trkpt lat="43.2438" lon="-1.45972">
        <ele>769.79</ele>
        <time>2025-05-07T15:01:24.767Z</time>
      </trkpt>
      <trkpt lat="43.24379" lon="-1.45973">
        <ele>768.41</ele>
        <time>2025-05-07T15:01:30.992Z</time>
      </trkpt>
      <trkpt lat="43.24378" lon="-1.45975">
        <ele>766.97</ele>
        <time>2025-05-07T15:01:37.219Z</time>
      </trkpt>
      <trkpt lat="43.24376" lon="-1.45979">
        <ele>765.45</ele>
        <time>2025-05-07T15:01:43.448Z</time>
      </trkpt>
      <trkpt lat="43.24374" lon="-1.45982">
        <ele>763.9</ele>
        <time>2025-05-07T15:01:49.679Z</time>
      </trkpt>
      <trkpt lat="43.24372" lon="-1.45987">
        <ele>762.27</ele>
        <time>2025-05-07T15:01:55.914Z</time>
      </trkpt>
      <trkpt lat="43.24368" lon="-1.45995">
        <ele>760.58</ele>
        <time>2025-05-07T15:02:02.154Z</time>
      </trkpt>
      <trkpt lat="43.24363" lon="-1.46012">
        <ele>758.69</ele>
        <time>2025-05-07T15:02:08.404Z</time>
      </trkpt>
      <trkpt lat="43.24363" lon="-1.46018">
        <ele>756.97</ele>
        <time>2025-05-07T15:02:14.657Z</time>
      </trkpt>
      <trkpt lat="43.24362" lon="-1.46024">
        <ele>755.21</ele>
        <time>2025-05-07T15:02:20.914Z</time>
      </trkpt>
      <trkpt lat="43.24361" lon="-1.46037">
        <ele>753.42</ele>
        <time>2025-05-07T15:02:27.178Z</time>
      </trkpt>
      <trkpt lat="43.24364" lon="-1.46062">
        <ele>751.65</ele>
        <time>2025-05-07T15:02:33.456Z</time>
      </trkpt>
      <trkpt lat="43.24367" lon="-1.46076">
        <ele>749.94</ele>
        <time>2025-05-07T15:02:39.741Z</time>
      </trkpt>
      <trkpt lat="43.24367" lon="-1.46086">
        <ele>748.14</ele>
        <time>2025-05-07T15:02:46.032Z</time>
      </trkpt>
      <trkpt lat="43.24366" lon="-1.46096">
        <ele>746.41</ele>
        <time>2025-05-07T15:02:52.329Z</time>
      </trkpt>
      <trkpt lat="43.24365" lon="-1.46103">
        <ele>744.65</ele>
        <time>2025-05-07T15:02:58.630Z</time>
      </trkpt>
      <trkpt lat="43.24363" lon="-1.4611">
        <ele>742.9</ele>
        <time>2025-05-07T15:03:04.934Z</time>
      </trkpt>
      <trkpt lat="43.24362" lon="-1.46115">
        <ele>741.21</ele>
        <time>2025-05-07T15:03:11.241Z</time>
      </trkpt>
      <trkpt lat="43.24358" lon="-1.46121">
        <ele>739.53</ele>
        <time>2025-05-07T15:03:17.553Z</time>
      </trkpt>
      <trkpt lat="43.24355" lon="-1.46125">
        <ele>737.87</ele>
        <time>2025-05-07T15:03:23.868Z</time>
      </trkpt>
      <trkpt lat="43.24353" lon="-1.46128">
        <ele>736.26</ele>
        <time>2025-05-07T15:03:30.185Z</time>
      </trkpt>
      <trkpt lat="43.24349" lon="-1.46132">
        <ele>734.66</ele>
        <time>2025-05-07T15:03:36.506Z</time>
      </trkpt>
      <trkpt lat="43.24345" lon="-1.46137">
        <ele>733.08</ele>
        <time>2025-05-07T15:03:42.831Z</time>
      </trkpt>
      <trkpt lat="43.24342" lon="-1.46141">
        <ele>731.52</ele>
        <time>2025-05-07T15:03:49.159Z</time>
      </trkpt>
      <trkpt lat="43.24338" lon="-1.46145">
        <ele>730</ele>
        <time>2025-05-07T15:03:55.491Z</time>
      </trkpt>
      <trkpt lat="43.24335" lon="-1.46152">
        <ele>728.49</ele>
        <time>2025-05-07T15:04:01.827Z</time>
      </trkpt>
      <trkpt lat="43.2433" lon="-1.46154">
        <ele>727.05</ele>
        <time>2025-05-07T15:04:08.167Z</time>
      </trkpt>
      <trkpt lat="43.24324" lon="-1.46163">
        <ele>725.57</ele>
        <time>2025-05-07T15:04:14.514Z</time>
      </trkpt>
      <trkpt lat="43.24322" lon="-1.46165">
        <ele>724.25</ele>
        <time>2025-05-07T15:04:20.862Z</time>
      </trkpt>
      <trkpt lat="43.2432" lon="-1.46183">
        <ele>722.91</ele>
        <time>2025-05-07T15:04:27.220Z</time>
      </trkpt>
      <trkpt lat="43.24315" lon="-1.46191">
        <ele>721.65</ele>
        <time>2025-05-07T15:04:33.584Z</time>
      </trkpt>
      <trkpt lat="43.24313" lon="-1.46194">
        <ele>720.47</ele>
        <time>2025-05-07T15:04:39.950Z</time>
      </trkpt>
      <trkpt lat="43.24304" lon="-1.46206">
        <ele>719.3</ele>
        <time>2025-05-07T15:04:46.325Z</time>
      </trkpt>
      <trkpt lat="43.24304" lon="-1.46207">
        <ele>718.22</ele>
        <time>2025-05-07T15:04:52.701Z</time>
      </trkpt>
      <trkpt lat="43.24303" lon="-1.46208">
        <ele>717.18</ele>
        <time>2025-05-07T15:04:59.078Z</time>
      </trkpt>
      <trkpt lat="43.24301" lon="-1.46213">
        <ele>716.17</ele>
        <time>2025-05-07T15:05:05.458Z</time>
      </trkpt>
      <trkpt lat="43.24295" lon="-1.46224">
        <ele>715.19</ele>
        <time>2025-05-07T15:05:11.845Z</time>
      </trkpt>
      <trkpt lat="43.24292" lon="-1.46234">
        <ele>714.22</ele>
        <time>2025-05-07T15:05:18.238Z</time>
      </trkpt>
      <trkpt lat="43.24287" lon="-1.46247">
        <ele>713.27</ele>
        <time>2025-05-07T15:05:24.640Z</time>
      </trkpt>
      <trkpt lat="43.24283" lon="-1.46257">
        <ele>712.44</ele>
        <time>2025-05-07T15:05:31.048Z</time>
      </trkpt>
      <trkpt lat="43.24277" lon="-1.46269">
        <ele>711.66</ele>
        <time>2025-05-07T15:05:37.464Z</time>
      </trkpt>
      <trkpt lat="43.24273" lon="-1.46281">
        <ele>710.92</ele>
        <time>2025-05-07T15:05:43.887Z</time>
      </trkpt>
      <trkpt lat="43.24269" lon="-1.46289">
        <ele>710.26</ele>
        <time>2025-05-07T15:05:50.315Z</time>
      </trkpt>
      <trkpt lat="43.24267" lon="-1.46291">
        <ele>709.64</ele>
        <time>2025-05-07T15:05:56.745Z</time>
      </trkpt>
      <trkpt lat="43.24262" lon="-1.46302">
        <ele>709.05</ele>
        <time>2025-05-07T15:06:03.182Z</time>
      </trkpt>
      <trkpt lat="43.24259" lon="-1.46313">
        <ele>708.51</ele>
        <time>2025-05-07T15:06:09.626Z</time>
      </trkpt>
      <trkpt lat="43.24256" lon="-1.46323">
        <ele>708.02</ele>
        <time>2025-05-07T15:06:16.076Z</time>
      </trkpt>
      <trkpt lat="43.24254" lon="-1.46331">
        <ele>707.6</ele>
        <time>2025-05-07T15:06:22.531Z</time>
      </trkpt>
      <trkpt lat="43.24249" lon="-1.46341">
        <ele>707.24</ele>
        <time>2025-05-07T15:06:28.992Z</time>
      </trkpt>
      <trkpt lat="43.24243" lon="-1.46353">
        <ele>706.93</ele>
        <time>2025-05-07T15:06:35.461Z</time>
      </trkpt>
      <trkpt lat="43.24238" lon="-1.46373">
        <ele>706.63</ele>
        <time>2025-05-07T15:06:41.942Z</time>
      </trkpt>
      <trkpt lat="43.24234" lon="-1.46399">
        <ele>706.45</ele>
        <time>2025-05-07T15:06:48.437Z</time>
      </trkpt>
      <trkpt lat="43.24233" lon="-1.46401">
        <ele>706.35</ele>
        <time>2025-05-07T15:06:54.933Z</time>
      </trkpt>
      <trkpt lat="43.2422" lon="-1.4642">
        <ele>706.27</ele>
        <time>2025-05-07T15:07:01.443Z</time>
      </trkpt>
      <trkpt lat="43.24214" lon="-1.46426">
        <ele>706.27</ele>
        <time>2025-05-07T15:07:07.959Z</time>
      </trkpt>
      <trkpt lat="43.24204" lon="-1.46436">
        <ele>706.3</ele>
        <time>2025-05-07T15:07:14.484Z</time>
      </trkpt>
      <trkpt lat="43.24193" lon="-1.46455">
        <ele>706.45</ele>
        <time>2025-05-07T15:07:21.023Z</time>
      </trkpt>
      <trkpt lat="43.2419" lon="-1.46461">
        <ele>706.66</ele>
        <time>2025-05-07T15:07:27.566Z</time>
      </trkpt>
      <trkpt lat="43.24191" lon="-1.46462">
        <ele>706.92</ele>
        <time>2025-05-07T15:07:34.110Z</time>
      </trkpt>
      <trkpt lat="43.24194" lon="-1.46463">
        <ele>707.25</ele>
        <time>2025-05-07T15:07:40.656Z</time>
      </trkpt>
      <trkpt lat="43.24196" lon="-1.46463">
        <ele>707.58</ele>
        <time>2025-05-07T15:07:47.203Z</time>
      </trkpt>
      <trkpt lat="43.24197" lon="-1.46463">
        <ele>707.96</ele>
        <time>2025-05-07T15:07:53.751Z</time>
      </trkpt>
      <trkpt lat="43.24199" lon="-1.46463">
        <ele>708.38</ele>
        <time>2025-05-07T15:08:00.300Z</time>
      </trkpt>
      <trkpt lat="43.24201" lon="-1.46464">
        <ele>708.84</ele>
        <time>2025-05-07T15:08:06.851Z</time>
      </trkpt>
      <trkpt lat="43.24203" lon="-1.46465">
        <ele>709.33</ele>
        <time>2025-05-07T15:08:13.404Z</time>
      </trkpt>
      <trkpt lat="43.24204" lon="-1.46468">
        <ele>709.86</ele>
        <time>2025-05-07T15:08:19.959Z</time>
      </trkpt>
      <trkpt lat="43.24204" lon="-1.46475">
        <ele>710.43</ele>
        <time>2025-05-07T15:08:26.517Z</time>
      </trkpt>
      <trkpt lat="43.24208" lon="-1.46475">
        <ele>711.01</ele>
        <time>2025-05-07T15:08:33.078Z</time>
      </trkpt>
      <trkpt lat="43.24211" lon="-1.46478">
        <ele>711.59</ele>
        <time>2025-05-07T15:08:39.641Z</time>
      </trkpt>
      <trkpt lat="43.2422" lon="-1.46487">
        <ele>712.14</ele>
        <time>2025-05-07T15:08:46.213Z</time>
      </trkpt>
      <trkpt lat="43.24221" lon="-1.46488">
        <ele>712.71</ele>
        <time>2025-05-07T15:08:52.786Z</time>
      </trkpt>
      <trkpt lat="43.2422" lon="-1.46495">
        <ele>713.28</ele>
        <time>2025-05-07T15:08:59.362Z</time>
      </trkpt>
      <trkpt lat="43.24218" lon="-1.465">
        <ele>713.84</ele>
        <time>2025-05-07T15:09:05.942Z</time>
      </trkpt>
      <trkpt lat="43.24216" lon="-1.46506">
        <ele>714.43</ele>
        <time>2025-05-07T15:09:12.525Z</time>
      </trkpt>
      <trkpt lat="43.24216" lon="-1.46513">
        <ele>714.99</ele>
        <time>2025-05-07T15:09:19.112Z</time>
      </trkpt>
      <trkpt lat="43.24216" lon="-1.46518">
        <ele>715.55</ele>
        <time>2025-05-07T15:09:25.702Z</time>
      </trkpt>
      <trkpt lat="43.24215" lon="-1.46524">
        <ele>716.1</ele>
        <time>2025-05-07T15:09:32.295Z</time>
      </trkpt>
      <trkpt lat="43.24213" lon="-1.4653">
        <ele>716.64</ele>
        <time>2025-05-07T15:09:38.891Z</time>
      </trkpt>
      <trkpt lat="43.24213" lon="-1.46531">
        <ele>717.15</ele>
        <time>2025-05-07T15:09:45.488Z</time>
      </trkpt>
      <trkpt lat="43.24211" lon="-1.46534">
        <ele>717.67</ele>
        <time>2025-05-07T15:09:52.087Z</time>
      </trkpt>
      <trkpt lat="43.24207" lon="-1.46537">
        <ele>718.18</ele>
        <time>2025-05-07T15:09:58.690Z</time>
      </trkpt>
      <trkpt lat="43.24204" lon="-1.46539">
        <ele>718.65</ele>
        <time>2025-05-07T15:10:05.295Z</time>
      </trkpt>
      <trkpt lat="43.242" lon="-1.46545">
        <ele>719.12</ele>
        <time>2025-05-07T15:10:11.905Z</time>
      </trkpt>
      <trkpt lat="43.24196" lon="-1.46551">
        <ele>719.55</ele>
        <time>2025-05-07T15:10:18.519Z</time>
      </trkpt>
      <trkpt lat="43.24193" lon="-1.46554">
        <ele>719.95</ele>
        <time>2025-05-07T15:10:25.136Z</time>
      </trkpt>
      <trkpt lat="43.24176" lon="-1.46563">
        <ele>720.33</ele>
        <time>2025-05-07T15:10:31.766Z</time>
      </trkpt>
      <trkpt lat="43.24167" lon="-1.4658">
        <ele>720.6</ele>
        <time>2025-05-07T15:10:38.408Z</time>
      </trkpt>
      <trkpt lat="43.24162" lon="-1.46589">
        <ele>720.84</ele>
        <time>2025-05-07T15:10:45.056Z</time>
      </trkpt>
      <trkpt lat="43.24158" lon="-1.46597">
        <ele>721.04</ele>
        <time>2025-05-07T15:10:51.709Z</time>
      </trkpt>
      <trkpt lat="43.24153" lon="-1.46605">
        <ele>721.2</ele>
        <time>2025-05-07T15:10:58.368Z</time>
      </trkpt>
      <trkpt lat="43.24146" lon="-1.46618">
        <ele>721.31</ele>
        <time>2025-05-07T15:11:05.036Z</time>
      </trkpt>
      <trkpt lat="43.24142" lon="-1.46626">
        <ele>721.44</ele>
        <time>2025-05-07T15:11:11.709Z</time>
      </trkpt>
      <trkpt lat="43.24139" lon="-1.46634">
        <ele>721.51</ele>
        <time>2025-05-07T15:11:18.387Z</time>
      </trkpt>
      <trkpt lat="43.24134" lon="-1.46642">
        <ele>721.59</ele>
        <time>2025-05-07T15:11:25.071Z</time>
      </trkpt>
      <trkpt lat="43.24126" lon="-1.46657">
        <ele>721.66</ele>
        <time>2025-05-07T15:11:31.765Z</time>
      </trkpt>
      <trkpt lat="43.24115" lon="-1.46675">
        <ele>721.73</ele>
        <time>2025-05-07T15:11:38.472Z</time>
      </trkpt>
      <trkpt lat="43.24108" lon="-1.4669">
        <ele>721.81</ele>
        <time>2025-05-07T15:11:45.189Z</time>
      </trkpt>
      <trkpt lat="43.24102" lon="-1.46705">
        <ele>721.86</ele>
        <time>2025-05-07T15:11:51.915Z</time>
      </trkpt>
      <trkpt lat="43.24101" lon="-1.46708">
        <ele>721.93</ele>
        <time>2025-05-07T15:11:58.643Z</time>
      </trkpt>
      <trkpt lat="43.24091" lon="-1.46731">
        <ele>722.01</ele>
        <time>2025-05-07T15:12:05.386Z</time>
      </trkpt>
      <trkpt lat="43.24085" lon="-1.46757">
        <ele>722.15</ele>
        <time>2025-05-07T15:12:12.144Z</time>
      </trkpt>
      <trkpt lat="43.24083" lon="-1.46764">
        <ele>722.25</ele>
        <time>2025-05-07T15:12:18.906Z</time>
      </trkpt>
      <trkpt lat="43.24082" lon="-1.46771">
        <ele>722.35</ele>
        <time>2025-05-07T15:12:25.671Z</time>
      </trkpt>
      <trkpt lat="43.24078" lon="-1.46788">
        <ele>722.49</ele>
        <time>2025-05-07T15:12:32.446Z</time>
      </trkpt>
      <trkpt lat="43.24073" lon="-1.46796">
        <ele>722.56</ele>
        <time>2025-05-07T15:12:39.227Z</time>
      </trkpt>
      <trkpt lat="43.24068" lon="-1.46802">
        <ele>722.58</ele>
        <time>2025-05-07T15:12:46.013Z</time>
      </trkpt>
      <trkpt lat="43.2406" lon="-1.46812">
        <ele>722.58</ele>
        <time>2025-05-07T15:12:52.807Z</time>
      </trkpt>
      <trkpt lat="43.24056" lon="-1.4682">
        <ele>722.57</ele>
        <time>2025-05-07T15:12:59.607Z</time>
      </trkpt>
      <trkpt lat="43.24053" lon="-1.46826">
        <ele>722.54</ele>
        <time>2025-05-07T15:13:06.411Z</time>
      </trkpt>
      <trkpt lat="43.2404" lon="-1.46844">
        <ele>722.46</ele>
        <time>2025-05-07T15:13:13.228Z</time>
      </trkpt>
      <trkpt lat="43.24038" lon="-1.46847">
        <ele>722.38</ele>
        <time>2025-05-07T15:13:20.048Z</time>
      </trkpt>
      <trkpt lat="43.24036" lon="-1.46854">
        <ele>722.28</ele>
        <time>2025-05-07T15:13:26.872Z</time>
      </trkpt>
      <trkpt lat="43.24035" lon="-1.46862">
        <ele>722.17</ele>
        <time>2025-05-07T15:13:33.700Z</time>
      </trkpt>
      <trkpt lat="43.24033" lon="-1.4687">
        <ele>722.05</ele>
        <time>2025-05-07T15:13:40.533Z</time>
      </trkpt>
      <trkpt lat="43.24031" lon="-1.46884">
        <ele>721.89</ele>
        <time>2025-05-07T15:13:47.374Z</time>
      </trkpt>
      <trkpt lat="43.24027" lon="-1.46903">
        <ele>721.71</ele>
        <time>2025-05-07T15:13:54.226Z</time>
      </trkpt>
      <trkpt lat="43.24025" lon="-1.46915">
        <ele>721.49</ele>
        <time>2025-05-07T15:14:01.084Z</time>
      </trkpt>
      <trkpt lat="43.24021" lon="-1.46934">
        <ele>721.36</ele>
        <time>2025-05-07T15:14:07.953Z</time>
      </trkpt>
      <trkpt lat="43.24017" lon="-1.46945">
        <ele>721.17</ele>
        <time>2025-05-07T15:14:14.829Z</time>
      </trkpt>
      <trkpt lat="43.24012" lon="-1.4697">
        <ele>720.98</ele>
        <time>2025-05-07T15:14:21.719Z</time>
      </trkpt>
      <trkpt lat="43.24006" lon="-1.46994">
        <ele>720.67</ele>
        <time>2025-05-07T15:14:28.623Z</time>
      </trkpt>
      <trkpt lat="43.24005" lon="-1.47013">
        <ele>720.32</ele>
        <time>2025-05-07T15:14:35.537Z</time>
      </trkpt>
      <trkpt lat="43.24006" lon="-1.47018">
        <ele>719.99</ele>
        <time>2025-05-07T15:14:42.454Z</time>
      </trkpt>
      <trkpt lat="43.24008" lon="-1.4702">
        <ele>719.66</ele>
        <time>2025-05-07T15:14:49.373Z</time>
      </trkpt>
      <trkpt lat="43.24009" lon="-1.47021">
        <ele>719.34</ele>
        <time>2025-05-07T15:14:56.293Z</time>
      </trkpt>
      <trkpt lat="43.24015" lon="-1.4702">
        <ele>718.97</ele>
        <time>2025-05-07T15:15:03.217Z</time>
      </trkpt>
      <trkpt lat="43.24019" lon="-1.47024">
        <ele>718.6</ele>
        <time>2025-05-07T15:15:10.145Z</time>
      </trkpt>
      <trkpt lat="43.24019" lon="-1.47027">
        <ele>718.27</ele>
        <time>2025-05-07T15:15:17.075Z</time>
      </trkpt>
      <trkpt lat="43.24018" lon="-1.47029">
        <ele>717.98</ele>
        <time>2025-05-07T15:15:24.006Z</time>
      </trkpt>
      <trkpt lat="43.24016" lon="-1.47035">
        <ele>717.7</ele>
        <time>2025-05-07T15:15:30.941Z</time>
      </trkpt>
      <trkpt lat="43.24015" lon="-1.47042">
        <ele>717.41</ele>
        <time>2025-05-07T15:15:37.879Z</time>
      </trkpt>
      <trkpt lat="43.24012" lon="-1.47049">
        <ele>717.16</ele>
        <time>2025-05-07T15:15:44.822Z</time>
      </trkpt>
      <trkpt lat="43.2401" lon="-1.47053">
        <ele>716.91</ele>
        <time>2025-05-07T15:15:51.768Z</time>
      </trkpt>
      <trkpt lat="43.24008" lon="-1.47057">
        <ele>716.69</ele>
        <time>2025-05-07T15:15:58.716Z</time>
      </trkpt>
      <trkpt lat="43.24007" lon="-1.47062">
        <ele>716.47</ele>
        <time>2025-05-07T15:16:05.667Z</time>
      </trkpt>
      <trkpt lat="43.24007" lon="-1.47069">
        <ele>716.25</ele>
        <time>2025-05-07T15:16:12.622Z</time>
      </trkpt>
      <trkpt lat="43.24009" lon="-1.47075">
        <ele>716.04</ele>
        <time>2025-05-07T15:16:19.580Z</time>
      </trkpt>
      <trkpt lat="43.24011" lon="-1.47081">
        <ele>715.86</ele>
        <time>2025-05-07T15:16:26.542Z</time>
      </trkpt>
      <trkpt lat="43.24013" lon="-1.47086">
        <ele>715.67</ele>
        <time>2025-05-07T15:16:33.507Z</time>
      </trkpt>
      <trkpt lat="43.24015" lon="-1.47089">
        <ele>715.52</ele>
        <time>2025-05-07T15:16:40.474Z</time>
      </trkpt>
      <trkpt lat="43.24017" lon="-1.47095">
        <ele>715.43</ele>
        <time>2025-05-07T15:16:47.445Z</time>
      </trkpt>
      <trkpt lat="43.24019" lon="-1.47102">
        <ele>715.35</ele>
        <time>2025-05-07T15:16:54.420Z</time>
      </trkpt>
      <trkpt lat="43.24022" lon="-1.47111">
        <ele>715.28</ele>
        <time>2025-05-07T15:17:01.401Z</time>
      </trkpt>
      <trkpt lat="43.24025" lon="-1.4712">
        <ele>715.2</ele>
        <time>2025-05-07T15:17:08.387Z</time>
      </trkpt>
      <trkpt lat="43.24029" lon="-1.47128">
        <ele>715.12</ele>
        <time>2025-05-07T15:17:15.378Z</time>
      </trkpt>
      <trkpt lat="43.24033" lon="-1.47139">
        <ele>715.15</ele>
        <time>2025-05-07T15:17:22.376Z</time>
      </trkpt>
      <trkpt lat="43.24038" lon="-1.47151">
        <ele>715.14</ele>
        <time>2025-05-07T15:17:29.382Z</time>
      </trkpt>
      <trkpt lat="43.24042" lon="-1.47163">
        <ele>715.21</ele>
        <time>2025-05-07T15:17:36.395Z</time>
      </trkpt>
      <trkpt lat="43.24045" lon="-1.47169">
        <ele>715.23</ele>
        <time>2025-05-07T15:17:43.412Z</time>
      </trkpt>
      <trkpt lat="43.24047" lon="-1.47174">
        <ele>715.24</ele>
        <time>2025-05-07T15:17:50.432Z</time>
      </trkpt>
      <trkpt lat="43.24048" lon="-1.47178">
        <ele>715.22</ele>
        <time>2025-05-07T15:17:57.454Z</time>
      </trkpt>
      <trkpt lat="43.24049" lon="-1.47181">
        <ele>715.18</ele>
        <time>2025-05-07T15:18:04.478Z</time>
      </trkpt>
      <trkpt lat="43.24054" lon="-1.47188">
        <ele>715.1</ele>
        <time>2025-05-07T15:18:11.507Z</time>
      </trkpt>
      <trkpt lat="43.24054" lon="-1.47191">
        <ele>715.01</ele>
        <time>2025-05-07T15:18:18.538Z</time>
      </trkpt>
      <trkpt lat="43.24056" lon="-1.47195">
        <ele>714.89</ele>
        <time>2025-05-07T15:18:25.571Z</time>
      </trkpt>
      <trkpt lat="43.24065" lon="-1.47213">
        <ele>714.76</ele>
        <time>2025-05-07T15:18:32.617Z</time>
      </trkpt>
      <trkpt lat="43.24073" lon="-1.47238">
        <ele>714.63</ele>
        <time>2025-05-07T15:18:39.677Z</time>
      </trkpt>
      <trkpt lat="43.24078" lon="-1.47253">
        <ele>714.39</ele>
        <time>2025-05-07T15:18:46.746Z</time>
      </trkpt>
      <trkpt lat="43.2408" lon="-1.47259">
        <ele>714</ele>
        <time>2025-05-07T15:18:53.819Z</time>
      </trkpt>
      <trkpt lat="43.24081" lon="-1.47266">
        <ele>713.55</ele>
        <time>2025-05-07T15:19:00.896Z</time>
      </trkpt>
      <trkpt lat="43.24083" lon="-1.47272">
        <ele>713.06</ele>
        <time>2025-05-07T15:19:07.976Z</time>
      </trkpt>
      <trkpt lat="43.24085" lon="-1.4728">
        <ele>712.51</ele>
        <time>2025-05-07T15:19:15.061Z</time>
      </trkpt>
      <trkpt lat="43.24087" lon="-1.47288">
        <ele>711.88</ele>
        <time>2025-05-07T15:19:22.151Z</time>
      </trkpt>
      <trkpt lat="43.2409" lon="-1.473">
        <ele>711.17</ele>
        <time>2025-05-07T15:19:29.248Z</time>
      </trkpt>
      <trkpt lat="43.24096" lon="-1.47326">
        <ele>710.29</ele>
        <time>2025-05-07T15:19:36.359Z</time>
      </trkpt>
      <trkpt lat="43.24095" lon="-1.47331">
        <ele>709.5</ele>
        <time>2025-05-07T15:19:43.473Z</time>
      </trkpt>
      <trkpt lat="43.24094" lon="-1.47343">
        <ele>708.59</ele>
        <time>2025-05-07T15:19:50.594Z</time>
      </trkpt>
      <trkpt lat="43.24091" lon="-1.47353">
        <ele>707.66</ele>
        <time>2025-05-07T15:19:57.721Z</time>
      </trkpt>
      <trkpt lat="43.24088" lon="-1.47363">
        <ele>706.68</ele>
        <time>2025-05-07T15:20:04.854Z</time>
      </trkpt>
      <trkpt lat="43.24085" lon="-1.4738">
        <ele>705.62</ele>
        <time>2025-05-07T15:20:11.996Z</time>
      </trkpt>
      <trkpt lat="43.24089" lon="-1.47405">
        <ele>704.54</ele>
        <time>2025-05-07T15:20:19.152Z</time>
      </trkpt>
      <trkpt lat="43.24093" lon="-1.47425">
        <ele>703.48</ele>
        <time>2025-05-07T15:20:26.319Z</time>
      </trkpt>
      <trkpt lat="43.24096" lon="-1.47434">
        <ele>702.46</ele>
        <time>2025-05-07T15:20:33.492Z</time>
      </trkpt>
      <trkpt lat="43.24098" lon="-1.47439">
        <ele>701.45</ele>
        <time>2025-05-07T15:20:40.668Z</time>
      </trkpt>
      <trkpt lat="43.241" lon="-1.47445">
        <ele>700.45</ele>
        <time>2025-05-07T15:20:47.848Z</time>
      </trkpt>
      <trkpt lat="43.24102" lon="-1.4745">
        <ele>699.47</ele>
        <time>2025-05-07T15:20:55.031Z</time>
      </trkpt>
      <trkpt lat="43.24103" lon="-1.47453">
        <ele>698.5</ele>
        <time>2025-05-07T15:21:02.216Z</time>
      </trkpt>
      <trkpt lat="43.24104" lon="-1.47457">
        <ele>697.52</ele>
        <time>2025-05-07T15:21:09.403Z</time>
      </trkpt>
      <trkpt lat="43.24105" lon="-1.47461">
        <ele>696.55</ele>
        <time>2025-05-07T15:21:16.593Z</time>
      </trkpt>
      <trkpt lat="43.24105" lon="-1.47466">
        <ele>695.6</ele>
        <time>2025-05-07T15:21:23.785Z</time>
      </trkpt>
      <trkpt lat="43.24105" lon="-1.47472">
        <ele>694.64</ele>
        <time>2025-05-07T15:21:30.981Z</time>
      </trkpt>
      <trkpt lat="43.24106" lon="-1.4748">
        <ele>693.7</ele>
        <time>2025-05-07T15:21:38.181Z</time>
      </trkpt>
      <trkpt lat="43.24106" lon="-1.47487">
        <ele>692.77</ele>
        <time>2025-05-07T15:21:45.385Z</time>
      </trkpt>
      <trkpt lat="43.24107" lon="-1.47498">
        <ele>691.81</ele>
        <time>2025-05-07T15:21:52.595Z</time>
      </trkpt>
      <trkpt lat="43.24106" lon="-1.47507">
        <ele>690.88</ele>
        <time>2025-05-07T15:21:59.810Z</time>
      </trkpt>
      <trkpt lat="43.24106" lon="-1.4751">
        <ele>690</ele>
        <time>2025-05-07T15:22:07.027Z</time>
      </trkpt>
      <trkpt lat="43.24101" lon="-1.47531">
        <ele>689.02</ele>
        <time>2025-05-07T15:22:14.255Z</time>
      </trkpt>
      <trkpt lat="43.24109" lon="-1.47552">
        <ele>688.16</ele>
        <time>2025-05-07T15:22:21.496Z</time>
      </trkpt>
      <trkpt lat="43.24109" lon="-1.47555">
        <ele>687.32</ele>
        <time>2025-05-07T15:22:28.739Z</time>
      </trkpt>
      <trkpt lat="43.24115" lon="-1.4758">
        <ele>686.45</ele>
        <time>2025-05-07T15:22:35.996Z</time>
      </trkpt>
      <trkpt lat="43.24116" lon="-1.47607">
        <ele>685.56</ele>
        <time>2025-05-07T15:22:43.268Z</time>
      </trkpt>
      <trkpt lat="43.24114" lon="-1.47633">
        <ele>684.6</ele>
        <time>2025-05-07T15:22:50.554Z</time>
      </trkpt>
      <trkpt lat="43.24111" lon="-1.47648">
        <ele>683.71</ele>
        <time>2025-05-07T15:22:57.849Z</time>
      </trkpt>
      <trkpt lat="43.24108" lon="-1.47658">
        <ele>682.85</ele>
        <time>2025-05-07T15:23:05.150Z</time>
      </trkpt>
      <trkpt lat="43.24105" lon="-1.47666">
        <ele>682</ele>
        <time>2025-05-07T15:23:12.456Z</time>
      </trkpt>
      <trkpt lat="43.24101" lon="-1.47679">
        <ele>681.18</ele>
        <time>2025-05-07T15:23:19.770Z</time>
      </trkpt>
      <trkpt lat="43.24099" lon="-1.4769">
        <ele>680.33</ele>
        <time>2025-05-07T15:23:27.090Z</time>
      </trkpt>
      <trkpt lat="43.24096" lon="-1.47701">
        <ele>679.48</ele>
        <time>2025-05-07T15:23:34.416Z</time>
      </trkpt>
      <trkpt lat="43.24095" lon="-1.47709">
        <ele>678.6</ele>
        <time>2025-05-07T15:23:41.747Z</time>
      </trkpt>
      <trkpt lat="43.24092" lon="-1.47725">
        <ele>677.7</ele>
        <time>2025-05-07T15:23:49.087Z</time>
      </trkpt>
      <trkpt lat="43.2409" lon="-1.47733">
        <ele>676.77</ele>
        <time>2025-05-07T15:23:56.431Z</time>
      </trkpt>
      <trkpt lat="43.24087" lon="-1.47743">
        <ele>675.81</ele>
        <time>2025-05-07T15:24:03.781Z</time>
      </trkpt>
      <trkpt lat="43.24084" lon="-1.47753">
        <ele>674.82</ele>
        <time>2025-05-07T15:24:11.137Z</time>
      </trkpt>
      <trkpt lat="43.24077" lon="-1.47776">
        <ele>673.8</ele>
        <time>2025-05-07T15:24:18.507Z</time>
      </trkpt>
      <trkpt lat="43.24067" lon="-1.47796">
        <ele>672.64</ele>
        <time>2025-05-07T15:24:25.890Z</time>
      </trkpt>
      <trkpt lat="43.24065" lon="-1.47802">
        <ele>671.57</ele>
        <time>2025-05-07T15:24:33.277Z</time>
      </trkpt>
      <trkpt lat="43.24062" lon="-1.47808">
        <ele>670.46</ele>
        <time>2025-05-07T15:24:40.668Z</time>
      </trkpt>
      <trkpt lat="43.24058" lon="-1.47816">
        <ele>669.32</ele>
        <time>2025-05-07T15:24:48.064Z</time>
      </trkpt>
      <trkpt lat="43.24057" lon="-1.47818">
        <ele>668.2</ele>
        <time>2025-05-07T15:24:55.462Z</time>
      </trkpt>
      <trkpt lat="43.24053" lon="-1.47826">
        <ele>667.02</ele>
        <time>2025-05-07T15:25:02.865Z</time>
      </trkpt>
      <trkpt lat="43.24047" lon="-1.47834">
        <ele>665.81</ele>
        <time>2025-05-07T15:25:10.274Z</time>
      </trkpt>
      <trkpt lat="43.24037" lon="-1.47849">
        <ele>664.53</ele>
        <time>2025-05-07T15:25:17.694Z</time>
      </trkpt>
      <trkpt lat="43.24031" lon="-1.47857">
        <ele>663.31</ele>
        <time>2025-05-07T15:25:25.121Z</time>
      </trkpt>
      <trkpt lat="43.24024" lon="-1.47869">
        <ele>662.1</ele>
        <time>2025-05-07T15:25:32.556Z</time>
      </trkpt>
      <trkpt lat="43.2402" lon="-1.47876">
        <ele>660.94</ele>
        <time>2025-05-07T15:25:39.995Z</time>
      </trkpt>
      <trkpt lat="43.24014" lon="-1.47887">
        <ele>659.75</ele>
        <time>2025-05-07T15:25:47.442Z</time>
      </trkpt>
      <trkpt lat="43.24008" lon="-1.47899">
        <ele>658.59</ele>
        <time>2025-05-07T15:25:54.897Z</time>
      </trkpt>
      <trkpt lat="43.24003" lon="-1.47908">
        <ele>657.44</ele>
        <time>2025-05-07T15:26:02.358Z</time>
      </trkpt>
      <trkpt lat="43.23999" lon="-1.47917">
        <ele>656.29</ele>
        <time>2025-05-07T15:26:09.826Z</time>
      </trkpt>
      <trkpt lat="43.23995" lon="-1.47926">
        <ele>655.14</ele>
        <time>2025-05-07T15:26:17.299Z</time>
      </trkpt>
      <trkpt lat="43.23991" lon="-1.47936">
        <ele>654.01</ele>
        <time>2025-05-07T15:26:24.778Z</time>
      </trkpt>
      <trkpt lat="43.23988" lon="-1.47944">
        <ele>652.91</ele>
        <time>2025-05-07T15:26:32.262Z</time>
      </trkpt>
      <trkpt lat="43.23986" lon="-1.47948">
        <ele>651.88</ele>
        <time>2025-05-07T15:26:39.749Z</time>
      </trkpt>
      <trkpt lat="43.2398" lon="-1.47963">
        <ele>650.78</ele>
        <time>2025-05-07T15:26:47.245Z</time>
      </trkpt>
      <trkpt lat="43.23975" lon="-1.47988">
        <ele>649.67</ele>
        <time>2025-05-07T15:26:54.755Z</time>
      </trkpt>
      <trkpt lat="43.23974" lon="-1.47997">
        <ele>648.71</ele>
        <time>2025-05-07T15:27:02.270Z</time>
      </trkpt>
      <trkpt lat="43.2397" lon="-1.48006">
        <ele>647.81</ele>
        <time>2025-05-07T15:27:09.791Z</time>
      </trkpt>
      <trkpt lat="43.23959" lon="-1.48026">
        <ele>646.98</ele>
        <time>2025-05-07T15:27:17.326Z</time>
      </trkpt>
      <trkpt lat="43.23946" lon="-1.48044">
        <ele>646.25</ele>
        <time>2025-05-07T15:27:24.875Z</time>
      </trkpt>
      <trkpt lat="43.23941" lon="-1.48053">
        <ele>645.48</ele>
        <time>2025-05-07T15:27:32.430Z</time>
      </trkpt>
      <trkpt lat="43.23925" lon="-1.48065">
        <ele>644.75</ele>
        <time>2025-05-07T15:27:39.999Z</time>
      </trkpt>
      <trkpt lat="43.23912" lon="-1.48083">
        <ele>643.98</ele>
        <time>2025-05-07T15:27:47.582Z</time>
      </trkpt>
      <trkpt lat="43.2391" lon="-1.48085">
        <ele>643.21</ele>
        <time>2025-05-07T15:27:55.167Z</time>
      </trkpt>
      <trkpt lat="43.23907" lon="-1.48088">
        <ele>642.43</ele>
        <time>2025-05-07T15:28:02.754Z</time>
      </trkpt>
      <trkpt lat="43.23902" lon="-1.48094">
        <ele>641.64</ele>
        <time>2025-05-07T15:28:10.346Z</time>
      </trkpt>
      <trkpt lat="43.23898" lon="-1.48099">
        <ele>640.84</ele>
        <time>2025-05-07T15:28:17.942Z</time>
      </trkpt>
      <trkpt lat="43.23893" lon="-1.48102">
        <ele>640.06</ele>
        <time>2025-05-07T15:28:25.542Z</time>
      </trkpt>
      <trkpt lat="43.23887" lon="-1.48106">
        <ele>639.27</ele>
        <time>2025-05-07T15:28:33.147Z</time>
      </trkpt>
      <trkpt lat="43.23882" lon="-1.4811">
        <ele>638.45</ele>
        <time>2025-05-07T15:28:40.756Z</time>
      </trkpt>
      <trkpt lat="43.23879" lon="-1.4812">
        <ele>637.52</ele>
        <time>2025-05-07T15:28:48.371Z</time>
      </trkpt>
      <trkpt lat="43.23875" lon="-1.48127">
        <ele>636.61</ele>
        <time>2025-05-07T15:28:55.991Z</time>
      </trkpt>
      <trkpt lat="43.23871" lon="-1.48134">
        <ele>635.67</ele>
        <time>2025-05-07T15:29:03.616Z</time>
      </trkpt>
      <trkpt lat="43.23869" lon="-1.48139">
        <ele>634.75</ele>
        <time>2025-05-07T15:29:11.244Z</time>
      </trkpt>
      <trkpt lat="43.23866" lon="-1.48143">
        <ele>633.82</ele>
        <time>2025-05-07T15:29:18.875Z</time>
      </trkpt>
      <trkpt lat="43.23864" lon="-1.48149">
        <ele>632.88</ele>
        <time>2025-05-07T15:29:26.510Z</time>
      </trkpt>
      <trkpt lat="43.23861" lon="-1.48154">
        <ele>631.91</ele>
        <time>2025-05-07T15:29:34.148Z</time>
      </trkpt>
      <trkpt lat="43.23859" lon="-1.4816">
        <ele>630.94</ele>
        <time>2025-05-07T15:29:41.790Z</time>
      </trkpt>
      <trkpt lat="43.23856" lon="-1.48165">
        <ele>629.95</ele>
        <time>2025-05-07T15:29:49.436Z</time>
      </trkpt>
      <trkpt lat="43.23852" lon="-1.4817">
        <ele>628.93</ele>
        <time>2025-05-07T15:29:57.085Z</time>
      </trkpt>
      <trkpt lat="43.23849" lon="-1.48175">
        <ele>627.91</ele>
        <time>2025-05-07T15:30:04.738Z</time>
      </trkpt>
      <trkpt lat="43.23846" lon="-1.4818">
        <ele>626.87</ele>
        <time>2025-05-07T15:30:12.395Z</time>
      </trkpt>
      <trkpt lat="43.23843" lon="-1.48186">
        <ele>625.81</ele>
        <time>2025-05-07T15:30:20.055Z</time>
      </trkpt>
      <trkpt lat="43.23841" lon="-1.48192">
        <ele>624.75</ele>
        <time>2025-05-07T15:30:27.719Z</time>
      </trkpt>
      <trkpt lat="43.23838" lon="-1.48201">
        <ele>623.7</ele>
        <time>2025-05-07T15:30:35.388Z</time>
      </trkpt>
      <trkpt lat="43.23837" lon="-1.48204">
        <ele>622.69</ele>
        <time>2025-05-07T15:30:43.060Z</time>
      </trkpt>
      <trkpt lat="43.23837" lon="-1.48207">
        <ele>621.69</ele>
        <time>2025-05-07T15:30:50.733Z</time>
      </trkpt>
      <trkpt lat="43.23836" lon="-1.48209">
        <ele>620.69</ele>
        <time>2025-05-07T15:30:58.407Z</time>
      </trkpt>
      <trkpt lat="43.23834" lon="-1.48215">
        <ele>619.67</ele>
        <time>2025-05-07T15:31:06.085Z</time>
      </trkpt>
      <trkpt lat="43.23833" lon="-1.4822">
        <ele>618.64</ele>
        <time>2025-05-07T15:31:13.766Z</time>
      </trkpt>
      <trkpt lat="43.2383" lon="-1.48225">
        <ele>617.65</ele>
        <time>2025-05-07T15:31:21.450Z</time>
      </trkpt>
      <trkpt lat="43.23828" lon="-1.4823">
        <ele>616.67</ele>
        <time>2025-05-07T15:31:29.137Z</time>
      </trkpt>
      <trkpt lat="43.23826" lon="-1.48235">
        <ele>615.7</ele>
        <time>2025-05-07T15:31:36.828Z</time>
      </trkpt>
      <trkpt lat="43.23826" lon="-1.48239">
        <ele>614.76</ele>
        <time>2025-05-07T15:31:44.521Z</time>
      </trkpt>
      <trkpt lat="43.23825" lon="-1.48245">
        <ele>613.81</ele>
        <time>2025-05-07T15:31:52.217Z</time>
      </trkpt>
      <trkpt lat="43.23823" lon="-1.48252">
        <ele>612.89</ele>
        <time>2025-05-07T15:31:59.917Z</time>
      </trkpt>
      <trkpt lat="43.23824" lon="-1.48259">
        <ele>611.98</ele>
        <time>2025-05-07T15:32:07.621Z</time>
      </trkpt>
      <trkpt lat="43.23824" lon="-1.48266">
        <ele>611.1</ele>
        <time>2025-05-07T15:32:15.329Z</time>
      </trkpt>
      <trkpt lat="43.23824" lon="-1.48275">
        <ele>610.23</ele>
        <time>2025-05-07T15:32:23.041Z</time>
      </trkpt>
      <trkpt lat="43.23823" lon="-1.48281">
        <ele>609.43</ele>
        <time>2025-05-07T15:32:30.757Z</time>
      </trkpt>
      <trkpt lat="43.23822" lon="-1.48284">
        <ele>608.69</ele>
        <time>2025-05-07T15:32:38.475Z</time>
      </trkpt>
      <trkpt lat="43.23822" lon="-1.48289">
        <ele>607.97</ele>
        <time>2025-05-07T15:32:46.195Z</time>
      </trkpt>
      <trkpt lat="43.23822" lon="-1.48289">
        <ele>607.33</ele>
        <time>2025-05-07T15:32:53.916Z</time>
      </trkpt>
      <trkpt lat="43.23821" lon="-1.48291">
        <ele>606.71</ele>
        <time>2025-05-07T15:33:01.638Z</time>
      </trkpt>
      <trkpt lat="43.23821" lon="-1.48293">
        <ele>606.15</ele>
        <time>2025-05-07T15:33:09.361Z</time>
      </trkpt>
      <trkpt lat="43.23821" lon="-1.48296">
        <ele>605.62</ele>
        <time>2025-05-07T15:33:17.085Z</time>
      </trkpt>
      <trkpt lat="43.2382" lon="-1.48299">
        <ele>605.13</ele>
        <time>2025-05-07T15:33:24.812Z</time>
      </trkpt>
      <trkpt lat="43.23814" lon="-1.48307">
        <ele>604.7</ele>
        <time>2025-05-07T15:33:32.544Z</time>
      </trkpt>
      <trkpt lat="43.23813" lon="-1.48312">
        <ele>604.32</ele>
        <time>2025-05-07T15:33:40.279Z</time>
      </trkpt>
      <trkpt lat="43.23812" lon="-1.48317">
        <ele>603.99</ele>
        <time>2025-05-07T15:33:48.017Z</time>
      </trkpt>
      <trkpt lat="43.23811" lon="-1.48321">
        <ele>603.72</ele>
        <time>2025-05-07T15:33:55.757Z</time>
      </trkpt>
      <trkpt lat="43.2381" lon="-1.48327">
        <ele>603.49</ele>
        <time>2025-05-07T15:34:03.501Z</time>
      </trkpt>
      <trkpt lat="43.23807" lon="-1.48334">
        <ele>603.32</ele>
        <time>2025-05-07T15:34:11.249Z</time>
      </trkpt>
      <trkpt lat="43.23805" lon="-1.48341">
        <ele>603.24</ele>
        <time>2025-05-07T15:34:19.001Z</time>
      </trkpt>
      <trkpt lat="43.23803" lon="-1.48351">
        <ele>603.21</ele>
        <time>2025-05-07T15:34:26.759Z</time>
      </trkpt>
      <trkpt lat="43.23802" lon="-1.48357">
        <ele>603.23</ele>
        <time>2025-05-07T15:34:34.521Z</time>
      </trkpt>
      <trkpt lat="43.23804" lon="-1.4837">
        <ele>602.6</ele>
      </trkpt>
      <trkpt lat="43.23805" lon="-1.48371">
        <ele>605.56</ele>
        <time>2025-05-07T14:13:50.408Z</time>
      </trkpt>
      <trkpt lat="43.23805" lon="-1.48372">
        <ele>605.58</ele>
        <time>2025-05-07T14:13:55.172Z</time>
      </trkpt>
      <trkpt lat="43.23803" lon="-1.48375">
        <ele>605.66</ele>
        <time>2025-05-07T14:13:59.938Z</time>
      </trkpt>
      <trkpt lat="43.23801" lon="-1.48377">
        <ele>605.8</ele>
        <time>2025-05-07T14:14:04.707Z</time>
      </trkpt>
      <trkpt lat="43.23798" lon="-1.48379">
        <ele>605.99</ele>
        <time>2025-05-07T14:14:09.478Z</time>
      </trkpt>
      <trkpt lat="43.23797" lon="-1.48381">
        <ele>606.22</ele>
        <time>2025-05-07T14:14:14.251Z</time>
      </trkpt>
      <trkpt lat="43.23794" lon="-1.48382">
        <ele>606.53</ele>
        <time>2025-05-07T14:14:19.027Z</time>
      </trkpt>
      <trkpt lat="43.23791" lon="-1.48383">
        <ele>606.9</ele>
        <time>2025-05-07T14:14:23.805Z</time>
      </trkpt>
      <trkpt lat="43.2379" lon="-1.48384">
        <ele>607.31</ele>
        <time>2025-05-07T14:14:28.584Z</time>
      </trkpt>
      <trkpt lat="43.23785" lon="-1.48388">
        <ele>607.8</ele>
        <time>2025-05-07T14:14:33.368Z</time>
      </trkpt>
      <trkpt lat="43.23782" lon="-1.48392">
        <ele>608.36</ele>
        <time>2025-05-07T14:14:38.156Z</time>
      </trkpt>
      <trkpt lat="43.23779" lon="-1.48398">
        <ele>609</ele>
        <time>2025-05-07T14:14:42.948Z</time>
      </trkpt>
      <trkpt lat="43.23776" lon="-1.48402">
        <ele>609.68</ele>
        <time>2025-05-07T14:14:47.744Z</time>
      </trkpt>
      <trkpt lat="43.23774" lon="-1.48407">
        <ele>610.4</ele>
        <time>2025-05-07T14:14:52.543Z</time>
      </trkpt>
      <trkpt lat="43.23774" lon="-1.48412">
        <ele>611.16</ele>
        <time>2025-05-07T14:14:57.346Z</time>
      </trkpt>
      <trkpt lat="43.23772" lon="-1.48417">
        <ele>611.98</ele>
        <time>2025-05-07T14:15:02.152Z</time>
      </trkpt>
      <trkpt lat="43.2377" lon="-1.48421">
        <ele>612.83</ele>
        <time>2025-05-07T14:15:06.961Z</time>
      </trkpt>
      <trkpt lat="43.23769" lon="-1.48426">
        <ele>613.72</ele>
        <time>2025-05-07T14:15:11.773Z</time>
      </trkpt>
      <trkpt lat="43.23768" lon="-1.4843">
        <ele>614.66</ele>
        <time>2025-05-07T14:15:16.588Z</time>
      </trkpt>
      <trkpt lat="43.23765" lon="-1.48434">
        <ele>615.67</ele>
        <time>2025-05-07T14:15:21.407Z</time>
      </trkpt>
      <trkpt lat="43.23762" lon="-1.48438">
        <ele>616.72</ele>
        <time>2025-05-07T14:15:26.229Z</time>
      </trkpt>
      <trkpt lat="43.23759" lon="-1.48442">
        <ele>617.8</ele>
        <time>2025-05-07T14:15:31.054Z</time>
      </trkpt>
      <trkpt lat="43.23757" lon="-1.48444">
        <ele>618.9</ele>
        <time>2025-05-07T14:15:35.882Z</time>
      </trkpt>
      <trkpt lat="43.2375" lon="-1.48443">
        <ele>620.1</ele>
        <time>2025-05-07T14:15:40.715Z</time>
      </trkpt>
      <trkpt lat="43.23745" lon="-1.4844">
        <ele>621.28</ele>
        <time>2025-05-07T14:15:45.553Z</time>
      </trkpt>
      <trkpt lat="43.2374" lon="-1.4844">
        <ele>622.45</ele>
        <time>2025-05-07T14:15:50.395Z</time>
      </trkpt>
      <trkpt lat="43.23735" lon="-1.48441">
        <ele>623.67</ele>
        <time>2025-05-07T14:15:55.241Z</time>
      </trkpt>
      <trkpt lat="43.23732" lon="-1.48447">
        <ele>624.97</ele>
        <time>2025-05-07T14:16:00.092Z</time>
      </trkpt>
      <trkpt lat="43.23731" lon="-1.48452">
        <ele>626.29</ele>
        <time>2025-05-07T14:16:04.946Z</time>
      </trkpt>
      <trkpt lat="43.23731" lon="-1.48456">
        <ele>627.6</ele>
        <time>2025-05-07T14:16:09.803Z</time>
      </trkpt>
      <trkpt lat="43.23728" lon="-1.48461">
        <ele>628.91</ele>
        <time>2025-05-07T14:16:14.663Z</time>
      </trkpt>
      <trkpt lat="43.23725" lon="-1.48467">
        <ele>630.24</ele>
        <time>2025-05-07T14:16:19.528Z</time>
      </trkpt>
      <trkpt lat="43.23724" lon="-1.4847">
        <ele>631.52</ele>
        <time>2025-05-07T14:16:24.395Z</time>
      </trkpt>
      <trkpt lat="43.23722" lon="-1.48474">
        <ele>632.8</ele>
        <time>2025-05-07T14:16:29.265Z</time>
      </trkpt>
      <trkpt lat="43.23719" lon="-1.48479">
        <ele>634.11</ele>
        <time>2025-05-07T14:16:34.139Z</time>
      </trkpt>
      <trkpt lat="43.23716" lon="-1.48486">
        <ele>635.41</ele>
        <time>2025-05-07T14:16:39.018Z</time>
      </trkpt>
      <trkpt lat="43.23712" lon="-1.48492">
        <ele>636.64</ele>
        <time>2025-05-07T14:16:43.902Z</time>
      </trkpt>
      <trkpt lat="43.2371" lon="-1.48495">
        <ele>637.8</ele>
        <time>2025-05-07T14:16:48.788Z</time>
      </trkpt>
      <trkpt lat="43.23708" lon="-1.48499">
        <ele>638.96</ele>
        <time>2025-05-07T14:16:53.678Z</time>
      </trkpt>
      <trkpt lat="43.23706" lon="-1.48505">
        <ele>640.1</ele>
        <time>2025-05-07T14:16:58.572Z</time>
      </trkpt>
      <trkpt lat="43.23703" lon="-1.48512">
        <ele>641.25</ele>
        <time>2025-05-07T14:17:03.471Z</time>
      </trkpt>
      <trkpt lat="43.23701" lon="-1.4852">
        <ele>642.35</ele>
        <time>2025-05-07T14:17:08.375Z</time>
      </trkpt>
      <trkpt lat="43.23701" lon="-1.48525">
        <ele>643.4</ele>
        <time>2025-05-07T14:17:13.282Z</time>
      </trkpt>
      <trkpt lat="43.23701" lon="-1.4853">
        <ele>644.44</ele>
        <time>2025-05-07T14:17:18.192Z</time>
      </trkpt>
      <trkpt lat="43.23701" lon="-1.48536">
        <ele>645.46</ele>
        <time>2025-05-07T14:17:23.106Z</time>
      </trkpt>
      <trkpt lat="43.23701" lon="-1.48539">
        <ele>646.44</ele>
        <time>2025-05-07T14:17:28.022Z</time>
      </trkpt>
      <trkpt lat="43.23699" lon="-1.48545">
        <ele>647.41</ele>
        <time>2025-05-07T14:17:32.942Z</time>
      </trkpt>
      <trkpt lat="43.23699" lon="-1.4855">
        <ele>648.34</ele>
        <time>2025-05-07T14:17:37.865Z</time>
      </trkpt>
      <trkpt lat="43.23699" lon="-1.48555">
        <ele>649.25</ele>
        <time>2025-05-07T14:17:42.791Z</time>
      </trkpt>
      <trkpt lat="43.23699" lon="-1.48561">
        <ele>650.18</ele>
        <time>2025-05-07T14:17:47.721Z</time>
      </trkpt>
      <trkpt lat="43.23701" lon="-1.48567">
        <ele>651.08</ele>
        <time>2025-05-07T14:17:52.655Z</time>
      </trkpt>
      <trkpt lat="43.23701" lon="-1.48572">
        <ele>651.99</ele>
        <time>2025-05-07T14:17:57.592Z</time>
      </trkpt>
      <trkpt lat="43.23696" lon="-1.48594">
        <ele>653.07</ele>
        <time>2025-05-07T14:18:02.544Z</time>
      </trkpt>
      <trkpt lat="43.23696" lon="-1.48602">
        <ele>654.02</ele>
        <time>2025-05-07T14:18:07.500Z</time>
      </trkpt>
      <trkpt lat="43.23695" lon="-1.48608">
        <ele>654.9</ele>
        <time>2025-05-07T14:18:12.461Z</time>
      </trkpt>
      <trkpt lat="43.23694" lon="-1.48614">
        <ele>655.78</ele>
        <time>2025-05-07T14:18:17.425Z</time>
      </trkpt>
      <trkpt lat="43.23692" lon="-1.48621">
        <ele>656.71</ele>
        <time>2025-05-07T14:18:22.394Z</time>
      </trkpt>
      <trkpt lat="43.23691" lon="-1.48621">
        <ele>657.59</ele>
        <time>2025-05-07T14:18:27.363Z</time>
      </trkpt>
      <trkpt lat="43.2369" lon="-1.48627">
        <ele>658.49</ele>
        <time>2025-05-07T14:18:32.336Z</time>
      </trkpt>
      <trkpt lat="43.23689" lon="-1.48632">
        <ele>659.41</ele>
        <time>2025-05-07T14:18:37.312Z</time>
      </trkpt>
      <trkpt lat="43.23688" lon="-1.48636">
        <ele>660.31</ele>
        <time>2025-05-07T14:18:42.291Z</time>
      </trkpt>
      <trkpt lat="43.23688" lon="-1.48641">
        <ele>661.21</ele>
        <time>2025-05-07T14:18:47.273Z</time>
      </trkpt>
      <trkpt lat="43.23687" lon="-1.48646">
        <ele>662.09</ele>
        <time>2025-05-07T14:18:52.258Z</time>
      </trkpt>
      <trkpt lat="43.23683" lon="-1.48658">
        <ele>663</ele>
        <time>2025-05-07T14:18:57.252Z</time>
      </trkpt>
      <trkpt lat="43.2368" lon="-1.48665">
        <ele>663.91</ele>
        <time>2025-05-07T14:19:02.251Z</time>
      </trkpt>
      <trkpt lat="43.23678" lon="-1.48671">
        <ele>664.87</ele>
        <time>2025-05-07T14:19:07.253Z</time>
      </trkpt>
      <trkpt lat="43.23675" lon="-1.48675">
        <ele>665.84</ele>
        <time>2025-05-07T14:19:12.259Z</time>
      </trkpt>
      <trkpt lat="43.23672" lon="-1.4868">
        <ele>666.82</ele>
        <time>2025-05-07T14:19:17.269Z</time>
      </trkpt>
      <trkpt lat="43.23668" lon="-1.48686">
        <ele>667.79</ele>
        <time>2025-05-07T14:19:22.284Z</time>
      </trkpt>
      <trkpt lat="43.23668" lon="-1.4869">
        <ele>668.66</ele>
        <time>2025-05-07T14:19:27.302Z</time>
      </trkpt>
      <trkpt lat="43.23665" lon="-1.48698">
        <ele>669.56</ele>
        <time>2025-05-07T14:19:32.325Z</time>
      </trkpt>
      <trkpt lat="43.23664" lon="-1.48706">
        <ele>670.41</ele>
        <time>2025-05-07T14:19:37.353Z</time>
      </trkpt>
      <trkpt lat="43.23664" lon="-1.48712">
        <ele>671.18</ele>
        <time>2025-05-07T14:19:42.385Z</time>
      </trkpt>
      <trkpt lat="43.23662" lon="-1.4872">
        <ele>671.93</ele>
        <time>2025-05-07T14:19:47.421Z</time>
      </trkpt>
      <trkpt lat="43.23661" lon="-1.48728">
        <ele>672.59</ele>
        <time>2025-05-07T14:19:52.463Z</time>
      </trkpt>
      <trkpt lat="43.2366" lon="-1.48733">
        <ele>673.14</ele>
        <time>2025-05-07T14:19:57.508Z</time>
      </trkpt>
      <trkpt lat="43.23658" lon="-1.48737">
        <ele>673.59</ele>
        <time>2025-05-07T14:20:02.556Z</time>
      </trkpt>
      <trkpt lat="43.23656" lon="-1.48741">
        <ele>673.93</ele>
        <time>2025-05-07T14:20:07.607Z</time>
      </trkpt>
      <trkpt lat="43.23653" lon="-1.48755">
        <ele>674.23</ele>
        <time>2025-05-07T14:20:12.667Z</time>
      </trkpt>
      <trkpt lat="43.2365" lon="-1.48766">
        <ele>674.37</ele>
        <time>2025-05-07T14:20:17.734Z</time>
      </trkpt>
      <trkpt lat="43.23645" lon="-1.48791">
        <ele>674.36</ele>
        <time>2025-05-07T14:20:22.817Z</time>
      </trkpt>
      <trkpt lat="43.23642" lon="-1.48806">
        <ele>674.21</ele>
        <time>2025-05-07T14:20:27.910Z</time>
      </trkpt>
      <trkpt lat="43.23638" lon="-1.4883">
        <ele>673.82</ele>
        <time>2025-05-07T14:20:33.019Z</time>
      </trkpt>
      <trkpt lat="43.2364" lon="-1.48833">
        <ele>673.51</ele>
        <time>2025-05-07T14:20:38.130Z</time>
      </trkpt>
      <trkpt lat="43.23639" lon="-1.4884">
        <ele>673.14</ele>
        <time>2025-05-07T14:20:43.245Z</time>
      </trkpt>
      <trkpt lat="43.23633" lon="-1.48845">
        <ele>672.77</ele>
        <time>2025-05-07T14:20:48.366Z</time>
      </trkpt>
      <trkpt lat="43.23632" lon="-1.48852">
        <ele>672.26</ele>
        <time>2025-05-07T14:20:53.491Z</time>
      </trkpt>
      <trkpt lat="43.2363" lon="-1.48859">
        <ele>671.69</ele>
        <time>2025-05-07T14:20:58.622Z</time>
      </trkpt>
      <trkpt lat="43.23627" lon="-1.48869">
        <ele>671.1</ele>
        <time>2025-05-07T14:21:03.759Z</time>
      </trkpt>
      <trkpt lat="43.23625" lon="-1.48879">
        <ele>670.47</ele>
        <time>2025-05-07T14:21:08.902Z</time>
      </trkpt>
      <trkpt lat="43.23622" lon="-1.48886">
        <ele>669.81</ele>
        <time>2025-05-07T14:21:14.050Z</time>
      </trkpt>
      <trkpt lat="43.2362" lon="-1.489">
        <ele>669.09</ele>
        <time>2025-05-07T14:21:19.207Z</time>
      </trkpt>
      <trkpt lat="43.23614" lon="-1.4892">
        <ele>668.25</ele>
        <time>2025-05-07T14:21:24.377Z</time>
      </trkpt>
      <trkpt lat="43.23612" lon="-1.48928">
        <ele>667.46</ele>
        <time>2025-05-07T14:21:29.553Z</time>
      </trkpt>
      <trkpt lat="43.23611" lon="-1.48937">
        <ele>666.65</ele>
        <time>2025-05-07T14:21:34.735Z</time>
      </trkpt>
      <trkpt lat="43.2361" lon="-1.48945">
        <ele>665.81</ele>
        <time>2025-05-07T14:21:39.922Z</time>
      </trkpt>
      <trkpt lat="43.23609" lon="-1.48951">
        <ele>665.03</ele>
        <time>2025-05-07T14:21:45.113Z</time>
      </trkpt>
      <trkpt lat="43.23608" lon="-1.48958">
        <ele>664.21</ele>
        <time>2025-05-07T14:21:50.308Z</time>
      </trkpt>
      <trkpt lat="43.23607" lon="-1.48966">
        <ele>663.37</ele>
        <time>2025-05-07T14:21:55.508Z</time>
      </trkpt>
      <trkpt lat="43.23607" lon="-1.48976">
        <ele>662.51</ele>
        <time>2025-05-07T14:22:00.714Z</time>
      </trkpt>
      <trkpt lat="43.23609" lon="-1.48985">
        <ele>661.63</ele>
        <time>2025-05-07T14:22:05.926Z</time>
      </trkpt>
      <trkpt lat="43.2361" lon="-1.48988">
        <ele>660.76</ele>
        <time>2025-05-07T14:22:11.140Z</time>
      </trkpt>
      <trkpt lat="43.23611" lon="-1.48993">
        <ele>659.88</ele>
        <time>2025-05-07T14:22:16.358Z</time>
      </trkpt>
      <trkpt lat="43.23612" lon="-1.49008">
        <ele>658.95</ele>
        <time>2025-05-07T14:22:21.585Z</time>
      </trkpt>
      <trkpt lat="43.23612" lon="-1.49021">
        <ele>658</ele>
        <time>2025-05-07T14:22:26.820Z</time>
      </trkpt>
      <trkpt lat="43.23611" lon="-1.49027">
        <ele>657.09</ele>
        <time>2025-05-07T14:22:32.059Z</time>
      </trkpt>
      <trkpt lat="43.23613" lon="-1.49034">
        <ele>656.11</ele>
        <time>2025-05-07T14:22:37.302Z</time>
      </trkpt>
      <trkpt lat="43.23617" lon="-1.49039">
        <ele>655.12</ele>
        <time>2025-05-07T14:22:42.550Z</time>
      </trkpt>
      <trkpt lat="43.23619" lon="-1.49045">
        <ele>654.12</ele>
        <time>2025-05-07T14:22:47.802Z</time>
      </trkpt>
      <trkpt lat="43.23621" lon="-1.49048">
        <ele>653.13</ele>
        <time>2025-05-07T14:22:53.056Z</time>
      </trkpt>
      <trkpt lat="43.23625" lon="-1.49052">
        <ele>652.09</ele>
        <time>2025-05-07T14:22:58.315Z</time>
      </trkpt>
      <trkpt lat="43.23627" lon="-1.49056">
        <ele>651.05</ele>
        <time>2025-05-07T14:23:03.577Z</time>
      </trkpt>
      <trkpt lat="43.23629" lon="-1.49063">
        <ele>649.96</ele>
        <time>2025-05-07T14:23:08.843Z</time>
      </trkpt>
      <trkpt lat="43.2363" lon="-1.49067">
        <ele>648.89</ele>
        <time>2025-05-07T14:23:14.112Z</time>
      </trkpt>
      <trkpt lat="43.23632" lon="-1.4907">
        <ele>647.79</ele>
        <time>2025-05-07T14:23:19.383Z</time>
      </trkpt>
      <trkpt lat="43.23634" lon="-1.49075">
        <ele>646.59</ele>
        <time>2025-05-07T14:23:24.658Z</time>
      </trkpt>
      <trkpt lat="43.23638" lon="-1.49082">
        <ele>645.3</ele>
        <time>2025-05-07T14:23:29.939Z</time>
      </trkpt>
      <trkpt lat="43.23638" lon="-1.49084">
        <ele>644.1</ele>
        <time>2025-05-07T14:23:35.220Z</time>
      </trkpt>
      <trkpt lat="43.23637" lon="-1.49089">
        <ele>642.85</ele>
        <time>2025-05-07T14:23:40.505Z</time>
      </trkpt>
      <trkpt lat="43.23637" lon="-1.49093">
        <ele>641.56</ele>
        <time>2025-05-07T14:23:45.792Z</time>
      </trkpt>
      <trkpt lat="43.23636" lon="-1.491">
        <ele>640.21</ele>
        <time>2025-05-07T14:23:51.084Z</time>
      </trkpt>
      <trkpt lat="43.23638" lon="-1.49107">
        <ele>638.77</ele>
        <time>2025-05-07T14:23:56.380Z</time>
      </trkpt>
      <trkpt lat="43.2364" lon="-1.49112">
        <ele>637.35</ele>
        <time>2025-05-07T14:24:01.680Z</time>
      </trkpt>
      <trkpt lat="43.23642" lon="-1.49117">
        <ele>635.86</ele>
        <time>2025-05-07T14:24:06.984Z</time>
      </trkpt>
      <trkpt lat="43.23644" lon="-1.49124">
        <ele>634.32</ele>
        <time>2025-05-07T14:24:12.292Z</time>
      </trkpt>
      <trkpt lat="43.23646" lon="-1.49129">
        <ele>632.79</ele>
        <time>2025-05-07T14:24:17.604Z</time>
      </trkpt>
      <trkpt lat="43.23646" lon="-1.49134">
        <ele>631.26</ele>
        <time>2025-05-07T14:24:22.919Z</time>
      </trkpt>
      <trkpt lat="43.23646" lon="-1.49138">
        <ele>629.74</ele>
        <time>2025-05-07T14:24:28.236Z</time>
      </trkpt>
      <trkpt lat="43.23645" lon="-1.49145">
        <ele>628.16</ele>
        <time>2025-05-07T14:24:33.558Z</time>
      </trkpt>
      <trkpt lat="43.23645" lon="-1.4915">
        <ele>626.59</ele>
        <time>2025-05-07T14:24:38.883Z</time>
      </trkpt>
      <trkpt lat="43.23645" lon="-1.49155">
        <ele>625.03</ele>
        <time>2025-05-07T14:24:44.211Z</time>
      </trkpt>
      <trkpt lat="43.23646" lon="-1.49159">
        <ele>623.51</ele>
        <time>2025-05-07T14:24:49.541Z</time>
      </trkpt>
      <trkpt lat="43.23647" lon="-1.49163">
        <ele>621.99</ele>
        <time>2025-05-07T14:24:54.874Z</time>
      </trkpt>
      <trkpt lat="43.23648" lon="-1.49167">
        <ele>620.51</ele>
        <time>2025-05-07T14:25:00.210Z</time>
      </trkpt>
      <trkpt lat="43.23648" lon="-1.49172">
        <ele>619.05</ele>
        <time>2025-05-07T14:25:05.548Z</time>
      </trkpt>
      <trkpt lat="43.23648" lon="-1.49177">
        <ele>617.61</ele>
        <time>2025-05-07T14:25:10.890Z</time>
      </trkpt>
      <trkpt lat="43.23648" lon="-1.49178">
        <ele>616.27</ele>
        <time>2025-05-07T14:25:16.232Z</time>
      </trkpt>
      <trkpt lat="43.23648" lon="-1.49181">
        <ele>614.93</ele>
        <time>2025-05-07T14:25:21.576Z</time>
      </trkpt>
      <trkpt lat="43.23648" lon="-1.49182">
        <ele>613.64</ele>
        <time>2025-05-07T14:25:26.921Z</time>
      </trkpt>
      <trkpt lat="43.23648" lon="-1.49187">
        <ele>612.33</ele>
        <time>2025-05-07T14:25:32.269Z</time>
      </trkpt>
      <trkpt lat="43.23649" lon="-1.49193">
        <ele>611.02</ele>
        <time>2025-05-07T14:25:37.621Z</time>
      </trkpt>
      <trkpt lat="43.2365" lon="-1.49199">
        <ele>609.74</ele>
        <time>2025-05-07T14:25:42.976Z</time>
      </trkpt>
      <trkpt lat="43.23651" lon="-1.49203">
        <ele>608.5</ele>
        <time>2025-05-07T14:25:48.334Z</time>
      </trkpt>
      <trkpt lat="43.23652" lon="-1.49208">
        <ele>607.28</ele>
        <time>2025-05-07T14:25:53.696Z</time>
      </trkpt>
      <trkpt lat="43.23652" lon="-1.49214">
        <ele>606.1</ele>
        <time>2025-05-07T14:25:59.061Z</time>
      </trkpt>
      <trkpt lat="43.23653" lon="-1.49219">
        <ele>604.93</ele>
        <time>2025-05-07T14:26:04.430Z</time>
      </trkpt>
      <trkpt lat="43.23654" lon="-1.49224">
        <ele>603.78</ele>
        <time>2025-05-07T14:26:09.801Z</time>
      </trkpt>
      <trkpt lat="43.23655" lon="-1.49229">
        <ele>602.62</ele>
        <time>2025-05-07T14:26:15.176Z</time>
      </trkpt>
      <trkpt lat="43.23655" lon="-1.49232">
        <ele>601.5</ele>
        <time>2025-05-07T14:26:20.553Z</time>
      </trkpt>
      <trkpt lat="43.23655" lon="-1.49236">
        <ele>600.4</ele>
        <time>2025-05-07T14:26:25.932Z</time>
      </trkpt>
      <trkpt lat="43.23656" lon="-1.49241">
        <ele>599.3</ele>
        <time>2025-05-07T14:26:31.314Z</time>
      </trkpt>
      <trkpt lat="43.23656" lon="-1.49246">
        <ele>598.22</ele>
        <time>2025-05-07T14:26:36.700Z</time>
      </trkpt>
      <trkpt lat="43.23658" lon="-1.49252">
        <ele>597.12</ele>
        <time>2025-05-07T14:26:42.090Z</time>
      </trkpt>
      <trkpt lat="43.23659" lon="-1.49258">
        <ele>596.1</ele>
        <time>2025-05-07T14:26:47.483Z</time>
      </trkpt>
      <trkpt lat="43.23659" lon="-1.49262">
        <ele>595.15</ele>
        <time>2025-05-07T14:26:52.879Z</time>
      </trkpt>
      <trkpt lat="43.23658" lon="-1.49266">
        <ele>594.22</ele>
        <time>2025-05-07T14:26:58.277Z</time>
      </trkpt>
      <trkpt lat="43.23657" lon="-1.4927">
        <ele>593.32</ele>
        <time>2025-05-07T14:27:03.678Z</time>
      </trkpt>
      <trkpt lat="43.23656" lon="-1.49275">
        <ele>592.46</ele>
        <time>2025-05-07T14:27:09.082Z</time>
      </trkpt>
      <trkpt lat="43.23658" lon="-1.4928">
        <ele>591.6</ele>
        <time>2025-05-07T14:27:14.490Z</time>
      </trkpt>
      <trkpt lat="43.23659" lon="-1.49285">
        <ele>590.8</ele>
        <time>2025-05-07T14:27:19.901Z</time>
      </trkpt>
      <trkpt lat="43.23662" lon="-1.49292">
        <ele>589.98</ele>
        <time>2025-05-07T14:27:25.317Z</time>
      </trkpt>
      <trkpt lat="43.23663" lon="-1.49298">
        <ele>589.24</ele>
        <time>2025-05-07T14:27:30.736Z</time>
      </trkpt>
      <trkpt lat="43.23663" lon="-1.49301">
        <ele>588.58</ele>
        <time>2025-05-07T14:27:36.158Z</time>
      </trkpt>
      <trkpt lat="43.23662" lon="-1.49302">
        <ele>587.99</ele>
        <time>2025-05-07T14:27:41.580Z</time>
      </trkpt>
      <trkpt lat="43.23662" lon="-1.49303">
        <ele>587.44</ele>
        <time>2025-05-07T14:27:47.003Z</time>
      </trkpt>
      <trkpt lat="43.2366" lon="-1.49304">
        <ele>586.95</ele>
        <time>2025-05-07T14:27:52.428Z</time>
      </trkpt>
      <trkpt lat="43.23655" lon="-1.49306">
        <ele>586.47</ele>
        <time>2025-05-07T14:27:57.857Z</time>
      </trkpt>
      <trkpt lat="43.23651" lon="-1.49307">
        <ele>586.02</ele>
        <time>2025-05-07T14:28:03.290Z</time>
      </trkpt>
      <trkpt lat="43.23649" lon="-1.49309">
        <ele>585.59</ele>
        <time>2025-05-07T14:28:08.725Z</time>
      </trkpt>
      <trkpt lat="43.23646" lon="-1.49312">
        <ele>585.17</ele>
        <time>2025-05-07T14:28:14.163Z</time>
      </trkpt>
      <trkpt lat="43.23645" lon="-1.49313">
        <ele>584.78</ele>
        <time>2025-05-07T14:28:19.602Z</time>
      </trkpt>
      <trkpt lat="43.23642" lon="-1.49314">
        <ele>584.4</ele>
        <time>2025-05-07T14:28:25.044Z</time>
      </trkpt>
      <trkpt lat="43.2364" lon="-1.49314">
        <ele>584.04</ele>
        <time>2025-05-07T14:28:30.488Z</time>
      </trkpt>
      <trkpt lat="43.23636" lon="-1.49314">
        <ele>583.69</ele>
        <time>2025-05-07T14:28:35.935Z</time>
      </trkpt>
      <trkpt lat="43.23631" lon="-1.49315">
        <ele>583.32</ele>
        <time>2025-05-07T14:28:41.386Z</time>
      </trkpt>
      <trkpt lat="43.23626" lon="-1.49315">
        <ele>582.9</ele>
        <time>2025-05-07T14:28:46.841Z</time>
      </trkpt>
      <trkpt lat="43.23622" lon="-1.49314">
        <ele>582.5</ele>
        <time>2025-05-07T14:28:52.300Z</time>
      </trkpt>
      <trkpt lat="43.23618" lon="-1.49313">
        <ele>582.11</ele>
        <time>2025-05-07T14:28:57.762Z</time>
      </trkpt>
      <trkpt lat="43.23615" lon="-1.49313">
        <ele>581.71</ele>
        <time>2025-05-07T14:29:03.227Z</time>
      </trkpt>
      <trkpt lat="43.23613" lon="-1.49313">
        <ele>581.31</ele>
        <time>2025-05-07T14:29:08.694Z</time>
      </trkpt>
      <trkpt lat="43.23611" lon="-1.49314">
        <ele>580.89</ele>
        <time>2025-05-07T14:29:14.163Z</time>
      </trkpt>
      <trkpt lat="43.23606" lon="-1.49316">
        <ele>580.42</ele>
        <time>2025-05-07T14:29:19.635Z</time>
      </trkpt>
      <trkpt lat="43.23613" lon="-1.49339">
        <ele>579.86</ele>
        <time>2025-05-07T14:29:25.123Z</time>
      </trkpt>
      <trkpt lat="43.23617" lon="-1.49346">
        <ele>579.44</ele>
        <time>2025-05-07T14:29:30.616Z</time>
      </trkpt>
      <trkpt lat="43.23619" lon="-1.49348">
        <ele>579.01</ele>
        <time>2025-05-07T14:29:36.111Z</time>
      </trkpt>
      <trkpt lat="43.23628" lon="-1.4937">
        <ele>578.58</ele>
        <time>2025-05-07T14:29:41.622Z</time>
      </trkpt>
      <trkpt lat="43.23634" lon="-1.49394">
        <ele>578.14</ele>
        <time>2025-05-07T14:29:47.149Z</time>
      </trkpt>
      <trkpt lat="43.23641" lon="-1.49411">
        <ele>577.63</ele>
        <time>2025-05-07T14:29:52.688Z</time>
      </trkpt>
      <trkpt lat="43.23648" lon="-1.49434">
        <ele>577.15</ele>
        <time>2025-05-07T14:29:58.242Z</time>
      </trkpt>
      <trkpt lat="43.23649" lon="-1.49437">
        <ele>576.62</ele>
        <time>2025-05-07T14:30:03.798Z</time>
      </trkpt>
      <trkpt lat="43.23662" lon="-1.49453">
        <ele>576.05</ele>
        <time>2025-05-07T14:30:09.369Z</time>
      </trkpt>
      <trkpt lat="43.23667" lon="-1.49456">
        <ele>575.41</ele>
        <time>2025-05-07T14:30:14.945Z</time>
      </trkpt>
      <trkpt lat="43.23673" lon="-1.49462">
        <ele>574.74</ele>
        <time>2025-05-07T14:30:20.527Z</time>
      </trkpt>
      <trkpt lat="43.23677" lon="-1.4947">
        <ele>574.08</ele>
        <time>2025-05-07T14:30:26.115Z</time>
      </trkpt>
      <trkpt lat="43.23685" lon="-1.4948">
        <ele>573.36</ele>
        <time>2025-05-07T14:30:31.712Z</time>
      </trkpt>
      <trkpt lat="43.23691" lon="-1.49488">
        <ele>572.61</ele>
        <time>2025-05-07T14:30:37.316Z</time>
      </trkpt>
      <trkpt lat="43.23694" lon="-1.49493">
        <ele>571.9</ele>
        <time>2025-05-07T14:30:42.924Z</time>
      </trkpt>
      <trkpt lat="43.23695" lon="-1.49493">
        <ele>571.24</ele>
        <time>2025-05-07T14:30:48.533Z</time>
      </trkpt>
      <trkpt lat="43.23695" lon="-1.49494">
        <ele>570.59</ele>
        <time>2025-05-07T14:30:54.143Z</time>
      </trkpt>
      <trkpt lat="43.23698" lon="-1.49493">
        <ele>569.93</ele>
        <time>2025-05-07T14:30:59.754Z</time>
      </trkpt>
      <trkpt lat="43.23703" lon="-1.49496">
        <ele>569.22</ele>
        <time>2025-05-07T14:31:05.370Z</time>
      </trkpt>
      <trkpt lat="43.23704" lon="-1.49495">
        <ele>568.59</ele>
        <time>2025-05-07T14:31:10.987Z</time>
      </trkpt>
      <trkpt lat="43.2371" lon="-1.49471">
        <ele>567.94</ele>
        <time>2025-05-07T14:31:16.620Z</time>
      </trkpt>
      <trkpt lat="43.23723" lon="-1.49453">
        <ele>567.28</ele>
        <time>2025-05-07T14:31:22.269Z</time>
      </trkpt>
      <trkpt lat="43.23738" lon="-1.4944">
        <ele>566.61</ele>
        <time>2025-05-07T14:31:27.933Z</time>
      </trkpt>
      <trkpt lat="43.23741" lon="-1.49435">
        <ele>566.04</ele>
        <time>2025-05-07T14:31:33.600Z</time>
      </trkpt>
      <trkpt lat="43.23742" lon="-1.49432">
        <ele>565.5</ele>
        <time>2025-05-07T14:31:39.270Z</time>
      </trkpt>
      <trkpt lat="43.23747" lon="-1.49423">
        <ele>564.95</ele>
        <time>2025-05-07T14:31:44.947Z</time>
      </trkpt>
      <trkpt lat="43.2375" lon="-1.49417">
        <ele>564.43</ele>
        <time>2025-05-07T14:31:50.628Z</time>
      </trkpt>
      <trkpt lat="43.23753" lon="-1.49408">
        <ele>563.92</ele>
        <time>2025-05-07T14:31:56.316Z</time>
      </trkpt>
      <trkpt lat="43.23757" lon="-1.49398">
        <ele>563.4</ele>
        <time>2025-05-07T14:32:02.010Z</time>
      </trkpt>
      <trkpt lat="43.23759" lon="-1.49388">
        <ele>562.91</ele>
        <time>2025-05-07T14:32:07.711Z</time>
      </trkpt>
      <trkpt lat="43.23761" lon="-1.4938">
        <ele>562.41</ele>
        <time>2025-05-07T14:32:13.417Z</time>
      </trkpt>
      <trkpt lat="43.23764" lon="-1.49369">
        <ele>561.9</ele>
        <time>2025-05-07T14:32:19.131Z</time>
      </trkpt>
      <trkpt lat="43.23765" lon="-1.49356">
        <ele>561.4</ele>
        <time>2025-05-07T14:32:24.853Z</time>
      </trkpt>
      <trkpt lat="43.23765" lon="-1.49351">
        <ele>560.89</ele>
        <time>2025-05-07T14:32:30.577Z</time>
      </trkpt>
      <trkpt lat="43.23766" lon="-1.49345">
        <ele>560.36</ele>
        <time>2025-05-07T14:32:36.305Z</time>
      </trkpt>
      <trkpt lat="43.23768" lon="-1.49342">
        <ele>559.8</ele>
        <time>2025-05-07T14:32:42.036Z</time>
      </trkpt>
      <trkpt lat="43.23768" lon="-1.49341">
        <ele>559.21</ele>
        <time>2025-05-07T14:32:47.768Z</time>
      </trkpt>
      <trkpt lat="43.23769" lon="-1.4934">
        <ele>558.6</ele>
        <time>2025-05-07T14:32:53.501Z</time>
      </trkpt>
      <trkpt lat="43.23772" lon="-1.49339">
        <ele>557.91</ele>
        <time>2025-05-07T14:32:59.236Z</time>
      </trkpt>
      <trkpt lat="43.23774" lon="-1.49339">
        <ele>557.18</ele>
        <time>2025-05-07T14:33:04.973Z</time>
      </trkpt>
      <trkpt lat="43.23778" lon="-1.4934">
        <ele>556.39</ele>
        <time>2025-05-07T14:33:10.713Z</time>
      </trkpt>
      <trkpt lat="43.23781" lon="-1.49334">
        <ele>555.53</ele>
        <time>2025-05-07T14:33:16.458Z</time>
      </trkpt>
      <trkpt lat="43.23783" lon="-1.49327">
        <ele>554.66</ele>
        <time>2025-05-07T14:33:22.207Z</time>
      </trkpt>
      <trkpt lat="43.23783" lon="-1.4932">
        <ele>553.73</ele>
        <time>2025-05-07T14:33:27.961Z</time>
      </trkpt>
      <trkpt lat="43.23783" lon="-1.49313">
        <ele>552.75</ele>
        <time>2025-05-07T14:33:33.719Z</time>
      </trkpt>
      <trkpt lat="43.23786" lon="-1.49303">
        <ele>551.67</ele>
        <time>2025-05-07T14:33:39.484Z</time>
      </trkpt>
      <trkpt lat="43.23789" lon="-1.49297">
        <ele>550.54</ele>
        <time>2025-05-07T14:33:45.253Z</time>
      </trkpt>
      <trkpt lat="43.23793" lon="-1.49294">
        <ele>549.34</ele>
        <time>2025-05-07T14:33:51.026Z</time>
      </trkpt>
      <trkpt lat="43.23799" lon="-1.49291">
        <ele>548.05</ele>
        <time>2025-05-07T14:33:56.804Z</time>
      </trkpt>
      <trkpt lat="43.23806" lon="-1.49289">
        <ele>546.64</ele>
        <time>2025-05-07T14:34:02.588Z</time>
      </trkpt>
      <trkpt lat="43.2381" lon="-1.49288">
        <ele>545.22</ele>
        <time>2025-05-07T14:34:08.376Z</time>
      </trkpt>
      <trkpt lat="43.23815" lon="-1.49285">
        <ele>543.77</ele>
        <time>2025-05-07T14:34:14.169Z</time>
      </trkpt>
      <trkpt lat="43.23821" lon="-1.49283">
        <ele>542.24</ele>
        <time>2025-05-07T14:34:19.967Z</time>
      </trkpt>
      <trkpt lat="43.23823" lon="-1.4928">
        <ele>540.76</ele>
        <time>2025-05-07T14:34:25.768Z</time>
      </trkpt>
      <trkpt lat="43.23826" lon="-1.49277">
        <ele>539.24</ele>
        <time>2025-05-07T14:34:31.572Z</time>
      </trkpt>
      <trkpt lat="43.23835" lon="-1.49265">
        <ele>537.63</ele>
        <time>2025-05-07T14:34:37.387Z</time>
      </trkpt>
      <trkpt lat="43.23839" lon="-1.49263">
        <ele>536.07</ele>
        <time>2025-05-07T14:34:43.205Z</time>
      </trkpt>
      <trkpt lat="43.23842" lon="-1.49263">
        <ele>534.5</ele>
        <time>2025-05-07T14:34:49.025Z</time>
      </trkpt>
      <trkpt lat="43.23845" lon="-1.49264">
        <ele>532.93</ele>
        <time>2025-05-07T14:34:54.848Z</time>
      </trkpt>
      <trkpt lat="43.2385" lon="-1.49265">
        <ele>531.33</ele>
        <time>2025-05-07T14:35:00.675Z</time>
      </trkpt>
      <trkpt lat="43.23853" lon="-1.49275">
        <ele>529.75</ele>
        <time>2025-05-07T14:35:06.509Z</time>
      </trkpt>
      <trkpt lat="43.23859" lon="-1.49278">
        <ele>528.11</ele>
        <time>2025-05-07T14:35:12.349Z</time>
      </trkpt>
      <trkpt lat="43.23862" lon="-1.49278">
        <ele>526.54</ele>
        <time>2025-05-07T14:35:18.192Z</time>
      </trkpt>
      <trkpt lat="43.23866" lon="-1.49278">
        <ele>524.97</ele>
        <time>2025-05-07T14:35:24.037Z</time>
      </trkpt>
      <trkpt lat="43.23872" lon="-1.4928">
        <ele>523.37</ele>
        <time>2025-05-07T14:35:29.888Z</time>
      </trkpt>
      <trkpt lat="43.23877" lon="-1.49281">
        <ele>521.82</ele>
        <time>2025-05-07T14:35:35.743Z</time>
      </trkpt>
      <trkpt lat="43.23883" lon="-1.49279">
        <ele>520.28</ele>
        <time>2025-05-07T14:35:41.603Z</time>
      </trkpt>
      <trkpt lat="43.23888" lon="-1.49279">
        <ele>518.78</ele>
        <time>2025-05-07T14:35:47.468Z</time>
      </trkpt>
      <trkpt lat="43.23893" lon="-1.49278">
        <ele>517.31</ele>
        <time>2025-05-07T14:35:53.337Z</time>
      </trkpt>
      <trkpt lat="43.23897" lon="-1.49275">
        <ele>515.89</ele>
        <time>2025-05-07T14:35:59.210Z</time>
      </trkpt>
      <trkpt lat="43.23899" lon="-1.4927">
        <ele>514.53</ele>
        <time>2025-05-07T14:36:05.087Z</time>
      </trkpt>
      <trkpt lat="43.23899" lon="-1.49264">
        <ele>513.24</ele>
        <time>2025-05-07T14:36:10.968Z</time>
      </trkpt>
      <trkpt lat="43.23898" lon="-1.49255">
        <ele>512.03</ele>
        <time>2025-05-07T14:36:16.854Z</time>
      </trkpt>
      <trkpt lat="43.23898" lon="-1.49248">
        <ele>510.85</ele>
        <time>2025-05-07T14:36:22.745Z</time>
      </trkpt>
      <trkpt lat="43.23898" lon="-1.49241">
        <ele>509.69</ele>
        <time>2025-05-07T14:36:28.640Z</time>
      </trkpt>
      <trkpt lat="43.23897" lon="-1.49234">
        <ele>508.57</ele>
        <time>2025-05-07T14:36:34.539Z</time>
      </trkpt>
      <trkpt lat="43.2389" lon="-1.49221">
        <ele>507.63</ele>
        <time>2025-05-07T14:36:40.448Z</time>
      </trkpt>
      <trkpt lat="43.23884" lon="-1.49211">
        <ele>506.67</ele>
        <time>2025-05-07T14:36:46.365Z</time>
      </trkpt>
      <trkpt lat="43.23882" lon="-1.49201">
        <ele>505.63</ele>
        <time>2025-05-07T14:36:52.288Z</time>
      </trkpt>
      <trkpt lat="43.23882" lon="-1.49193">
        <ele>504.58</ele>
        <time>2025-05-07T14:36:58.217Z</time>
      </trkpt>
      <trkpt lat="43.23885" lon="-1.49185">
        <ele>503.49</ele>
        <time>2025-05-07T14:37:04.151Z</time>
      </trkpt>
      <trkpt lat="43.23888" lon="-1.49179">
        <ele>502.42</ele>
        <time>2025-05-07T14:37:10.090Z</time>
      </trkpt>
      <trkpt lat="43.23889" lon="-1.49173">
        <ele>501.45</ele>
        <time>2025-05-07T14:37:16.033Z</time>
      </trkpt>
      <trkpt lat="43.23889" lon="-1.49168">
        <ele>500.56</ele>
        <time>2025-05-07T14:37:21.979Z</time>
      </trkpt>
      <trkpt lat="43.2389" lon="-1.49163">
        <ele>499.68</ele>
        <time>2025-05-07T14:37:27.928Z</time>
      </trkpt>
      <trkpt lat="43.23892" lon="-1.49158">
        <ele>498.84</ele>
        <time>2025-05-07T14:37:33.881Z</time>
      </trkpt>
      <trkpt lat="43.23894" lon="-1.49153">
        <ele>498.04</ele>
        <time>2025-05-07T14:37:39.837Z</time>
      </trkpt>
      <trkpt lat="43.23895" lon="-1.49147">
        <ele>497.25</ele>
        <time>2025-05-07T14:37:45.797Z</time>
      </trkpt>
      <trkpt lat="43.23898" lon="-1.49143">
        <ele>496.47</ele>
        <time>2025-05-07T14:37:51.761Z</time>
      </trkpt>
      <trkpt lat="43.23899" lon="-1.49143">
        <ele>495.79</ele>
        <time>2025-05-07T14:37:57.725Z</time>
      </trkpt>
      <trkpt lat="43.23903" lon="-1.49149">
        <ele>495.08</ele>
        <time>2025-05-07T14:38:03.695Z</time>
      </trkpt>
      <trkpt lat="43.23907" lon="-1.49158">
        <ele>494.42</ele>
        <time>2025-05-07T14:38:09.671Z</time>
      </trkpt>
      <trkpt lat="43.2391" lon="-1.49159">
        <ele>493.76</ele>
        <time>2025-05-07T14:38:15.650Z</time>
      </trkpt>
      <trkpt lat="43.23913" lon="-1.49159">
        <ele>493.14</ele>
        <time>2025-05-07T14:38:21.631Z</time>
      </trkpt>
      <trkpt lat="43.23915" lon="-1.49156">
        <ele>492.55</ele>
        <time>2025-05-07T14:38:27.614Z</time>
      </trkpt>
      <trkpt lat="43.23916" lon="-1.49152">
        <ele>491.96</ele>
        <time>2025-05-07T14:38:33.600Z</time>
      </trkpt>
      <trkpt lat="43.23917" lon="-1.49144">
        <ele>491.35</ele>
        <time>2025-05-07T14:38:39.591Z</time>
      </trkpt>
      <trkpt lat="43.23919" lon="-1.49129">
        <ele>490.77</ele>
        <time>2025-05-07T14:38:45.591Z</time>
      </trkpt>
      <trkpt lat="43.23911" lon="-1.49108">
        <ele>490.35</ele>
        <time>2025-05-07T14:38:51.606Z</time>
      </trkpt>
      <trkpt lat="43.23907" lon="-1.49104">
        <ele>489.84</ele>
        <time>2025-05-07T14:38:57.625Z</time>
      </trkpt>
      <trkpt lat="43.23903" lon="-1.49088">
        <ele>489.42</ele>
        <time>2025-05-07T14:39:03.655Z</time>
      </trkpt>
      <trkpt lat="43.23906" lon="-1.49088">
        <ele>488.7</ele>
        <time>2025-05-07T14:39:09.687Z</time>
      </trkpt>
      <trkpt lat="43.23907" lon="-1.49088">
        <ele>487.96</ele>
        <time>2025-05-07T14:39:15.720Z</time>
      </trkpt>
      <trkpt lat="43.23926" lon="-1.49086">
        <ele>487.01</ele>
        <time>2025-05-07T14:39:21.769Z</time>
      </trkpt>
      <trkpt lat="43.23944" lon="-1.49079">
        <ele>486.1</ele>
        <time>2025-05-07T14:39:27.834Z</time>
      </trkpt>
      <trkpt lat="43.23946" lon="-1.49079">
        <ele>485.22</ele>
        <time>2025-05-07T14:39:33.900Z</time>
      </trkpt>
      <trkpt lat="43.23951" lon="-1.49077">
        <ele>484.28</ele>
        <time>2025-05-07T14:39:39.971Z</time>
      </trkpt>
      <trkpt lat="43.23965" lon="-1.49076">
        <ele>483.18</ele>
        <time>2025-05-07T14:39:46.054Z</time>
      </trkpt>
      <trkpt lat="43.23975" lon="-1.49083">
        <ele>482.05</ele>
        <time>2025-05-07T14:39:52.146Z</time>
      </trkpt>
      <trkpt lat="43.23983" lon="-1.49094">
        <ele>480.88</ele>
        <time>2025-05-07T14:39:58.248Z</time>
      </trkpt>
      <trkpt lat="43.23985" lon="-1.491">
        <ele>479.74</ele>
        <time>2025-05-07T14:40:04.354Z</time>
      </trkpt>
      <trkpt lat="43.23989" lon="-1.49107">
        <ele>478.56</ele>
        <time>2025-05-07T14:40:10.466Z</time>
      </trkpt>
      <trkpt lat="43.23996" lon="-1.49116">
        <ele>477.33</ele>
        <time>2025-05-07T14:40:16.586Z</time>
      </trkpt>
      <trkpt lat="43.24007" lon="-1.49126">
        <ele>476.03</ele>
        <time>2025-05-07T14:40:22.717Z</time>
      </trkpt>
      <trkpt lat="43.24016" lon="-1.49132">
        <ele>474.78</ele>
        <time>2025-05-07T14:40:28.857Z</time>
      </trkpt>
      <trkpt lat="43.24027" lon="-1.49145">
        <ele>473.5</ele>
        <time>2025-05-07T14:40:35.009Z</time>
      </trkpt>
      <trkpt lat="43.24043" lon="-1.49156">
        <ele>472.28</ele>
        <time>2025-05-07T14:40:41.177Z</time>
      </trkpt>
      <trkpt lat="43.24045" lon="-1.49156">
        <ele>471.14</ele>
        <time>2025-05-07T14:40:47.346Z</time>
      </trkpt>
      <trkpt lat="43.24051" lon="-1.49155">
        <ele>470.02</ele>
        <time>2025-05-07T14:40:53.520Z</time>
      </trkpt>
      <trkpt lat="43.24058" lon="-1.49153">
        <ele>468.91</ele>
        <time>2025-05-07T14:40:59.700Z</time>
      </trkpt>
      <trkpt lat="43.24069" lon="-1.49153">
        <ele>467.79</ele>
        <time>2025-05-07T14:41:05.889Z</time>
      </trkpt>
      <trkpt lat="43.24088" lon="-1.49155">
        <ele>466.67</ele>
        <time>2025-05-07T14:41:12.094Z</time>
      </trkpt>
      <trkpt lat="43.24091" lon="-1.49155">
        <ele>465.62</ele>
        <time>2025-05-07T14:41:18.302Z</time>
      </trkpt>
      <trkpt lat="43.24104" lon="-1.49155">
        <ele>464.57</ele>
        <time>2025-05-07T14:41:24.521Z</time>
      </trkpt>
      <trkpt lat="43.24118" lon="-1.49151">
        <ele>463.52</ele>
        <time>2025-05-07T14:41:30.752Z</time>
      </trkpt>
      <trkpt lat="43.24122" lon="-1.4915">
        <ele>462.53</ele>
        <time>2025-05-07T14:41:36.987Z</time>
      </trkpt>
      <trkpt lat="43.24132" lon="-1.49153">
        <ele>461.48</ele>
        <time>2025-05-07T14:41:43.230Z</time>
      </trkpt>
      <trkpt lat="43.2414" lon="-1.4915">
        <ele>460.52</ele>
        <time>2025-05-07T14:41:49.481Z</time>
      </trkpt>
      <trkpt lat="43.24157" lon="-1.49138">
        <ele>459.6</ele>
        <time>2025-05-07T14:41:55.747Z</time>
      </trkpt>
      <trkpt lat="43.24165" lon="-1.49126">
        <ele>458.84</ele>
        <time>2025-05-07T14:42:02.024Z</time>
      </trkpt>
      <trkpt lat="43.2417" lon="-1.49121">
        <ele>458.11</ele>
        <time>2025-05-07T14:42:08.306Z</time>
      </trkpt>
      <trkpt lat="43.24176" lon="-1.49117">
        <ele>457.42</ele>
        <time>2025-05-07T14:42:14.593Z</time>
      </trkpt>
      <trkpt lat="43.24194" lon="-1.49117">
        <ele>456.72</ele>
        <time>2025-05-07T14:42:20.896Z</time>
      </trkpt>
      <trkpt lat="43.24198" lon="-1.49118">
        <ele>456.11</ele>
        <time>2025-05-07T14:42:27.203Z</time>
      </trkpt>
      <trkpt lat="43.24208" lon="-1.49121">
        <ele>455.53</ele>
        <time>2025-05-07T14:42:33.518Z</time>
      </trkpt>
      <trkpt lat="43.24225" lon="-1.49131">
        <ele>454.94</ele>
        <time>2025-05-07T14:42:39.849Z</time>
      </trkpt>
      <trkpt lat="43.24227" lon="-1.49131">
        <ele>454.52</ele>
        <time>2025-05-07T14:42:46.182Z</time>
      </trkpt>
      <trkpt lat="43.24231" lon="-1.49127">
        <ele>454.2</ele>
        <time>2025-05-07T14:42:52.519Z</time>
      </trkpt>
      <trkpt lat="43.24228" lon="-1.49133">
        <ele>453.91</ele>
        <time>2025-05-07T14:42:58.860Z</time>
      </trkpt>
      <trkpt lat="43.24229" lon="-1.49137">
        <ele>453.7</ele>
        <time>2025-05-07T14:43:05.204Z</time>
      </trkpt>
      <trkpt lat="43.24236" lon="-1.4916">
        <ele>453.44</ele>
        <time>2025-05-07T14:43:11.564Z</time>
      </trkpt>
      <trkpt lat="43.24238" lon="-1.49182">
        <ele>453.37</ele>
        <time>2025-05-07T14:43:17.937Z</time>
      </trkpt>
      <trkpt lat="43.24236" lon="-1.49202">
        <ele>453.44</ele>
        <time>2025-05-07T14:43:24.323Z</time>
      </trkpt>
      <trkpt lat="43.24238" lon="-1.49221">
        <ele>453.66</ele>
        <time>2025-05-07T14:43:30.720Z</time>
      </trkpt>
      <trkpt lat="43.24242" lon="-1.49241">
        <ele>453.92</ele>
        <time>2025-05-07T14:43:37.130Z</time>
      </trkpt>
      <trkpt lat="43.24247" lon="-1.49256">
        <ele>454.27</ele>
        <time>2025-05-07T14:43:43.551Z</time>
      </trkpt>
      <trkpt lat="43.24262" lon="-1.49274">
        <ele>454.74</ele>
        <time>2025-05-07T14:43:49.989Z</time>
      </trkpt>
      <trkpt lat="43.24266" lon="-1.49279">
        <ele>455.21</ele>
        <time>2025-05-07T14:43:56.431Z</time>
      </trkpt>
      <trkpt lat="43.24281" lon="-1.49297">
        <ele>455.9</ele>
        <time>2025-05-07T14:44:02.890Z</time>
      </trkpt>
      <trkpt lat="43.24282" lon="-1.49306">
        <ele>456.47</ele>
        <time>2025-05-07T14:44:09.355Z</time>
      </trkpt>
      <trkpt lat="43.24281" lon="-1.4931">
        <ele>457.11</ele>
        <time>2025-05-07T14:44:15.822Z</time>
      </trkpt>
      <trkpt lat="43.24279" lon="-1.49317">
        <ele>457.79</ele>
        <time>2025-05-07T14:44:22.294Z</time>
      </trkpt>
      <trkpt lat="43.24277" lon="-1.4932">
        <ele>458.53</ele>
        <time>2025-05-07T14:44:28.768Z</time>
      </trkpt>
      <trkpt lat="43.24276" lon="-1.49329">
        <ele>459.35</ele>
        <time>2025-05-07T14:44:35.248Z</time>
      </trkpt>
      <trkpt lat="43.24279" lon="-1.49341">
        <ele>460.23</ele>
        <time>2025-05-07T14:44:41.736Z</time>
      </trkpt>
      <trkpt lat="43.24279" lon="-1.49352">
        <ele>461.13</ele>
        <time>2025-05-07T14:44:48.231Z</time>
      </trkpt>
      <trkpt lat="43.24284" lon="-1.49356">
        <ele>462.16</ele>
        <time>2025-05-07T14:44:54.731Z</time>
      </trkpt>
      <trkpt lat="43.24286" lon="-1.49355">
        <ele>463.22</ele>
        <time>2025-05-07T14:45:01.232Z</time>
      </trkpt>
      <trkpt lat="43.24288" lon="-1.49352">
        <ele>464.32</ele>
        <time>2025-05-07T14:45:07.736Z</time>
      </trkpt>
      <trkpt lat="43.24289" lon="-1.49349">
        <ele>465.46</ele>
        <time>2025-05-07T14:45:14.242Z</time>
      </trkpt>
      <trkpt lat="43.2429" lon="-1.49346">
        <ele>466.64</ele>
        <time>2025-05-07T14:45:20.750Z</time>
      </trkpt>
      <trkpt lat="43.24293" lon="-1.49341">
        <ele>467.88</ele>
        <time>2025-05-07T14:45:27.262Z</time>
      </trkpt>
      <trkpt lat="43.24296" lon="-1.49337">
        <ele>469.15</ele>
        <time>2025-05-07T14:45:33.778Z</time>
      </trkpt>
      <trkpt lat="43.24304" lon="-1.49328">
        <ele>470.56</ele>
        <time>2025-05-07T14:45:40.303Z</time>
      </trkpt>
      <trkpt lat="43.24312" lon="-1.49317">
        <ele>472.04</ele>
        <time>2025-05-07T14:45:46.837Z</time>
      </trkpt>
      <trkpt lat="43.24324" lon="-1.49307">
        <ele>473.59</ele>
        <time>2025-05-07T14:45:53.383Z</time>
      </trkpt>
      <trkpt lat="43.24334" lon="-1.49292">
        <ele>475.02</ele>
        <time>2025-05-07T14:45:59.942Z</time>
      </trkpt>
      <trkpt lat="43.24342" lon="-1.49278">
        <ele>476.35</ele>
        <time>2025-05-07T14:46:06.512Z</time>
      </trkpt>
      <trkpt lat="43.24344" lon="-1.49268">
        <ele>477.55</ele>
        <time>2025-05-07T14:46:13.088Z</time>
      </trkpt>
      <trkpt lat="43.24346" lon="-1.49263">
        <ele>478.77</ele>
        <time>2025-05-07T14:46:19.668Z</time>
      </trkpt>
      <trkpt lat="43.24349" lon="-1.49256">
        <ele>479.96</ele>
        <time>2025-05-07T14:46:26.253Z</time>
      </trkpt>
      <trkpt lat="43.24351" lon="-1.49246">
        <ele>481.07</ele>
        <time>2025-05-07T14:46:32.845Z</time>
      </trkpt>
      <trkpt lat="43.24353" lon="-1.49242">
        <ele>482.15</ele>
        <time>2025-05-07T14:46:39.439Z</time>
      </trkpt>
      <trkpt lat="43.24354" lon="-1.49238">
        <ele>483.2</ele>
        <time>2025-05-07T14:46:46.036Z</time>
      </trkpt>
      <trkpt lat="43.24361" lon="-1.49231">
        <ele>484.25</ele>
        <time>2025-05-07T14:46:52.640Z</time>
      </trkpt>
      <trkpt lat="43.24371" lon="-1.49224">
        <ele>485.29</ele>
        <time>2025-05-07T14:46:59.254Z</time>
      </trkpt>
      <trkpt lat="43.24389" lon="-1.49216">
        <ele>486.37</ele>
        <time>2025-05-07T14:47:05.884Z</time>
      </trkpt>
      <trkpt lat="43.2439" lon="-1.49216">
        <ele>487.25</ele>
        <time>2025-05-07T14:47:12.515Z</time>
      </trkpt>
      <trkpt lat="43.24407" lon="-1.49206">
        <ele>488.21</ele>
        <time>2025-05-07T14:47:19.162Z</time>
      </trkpt>
      <trkpt lat="43.24409" lon="-1.49206">
        <ele>488.98</ele>
        <time>2025-05-07T14:47:25.810Z</time>
      </trkpt>
      <trkpt lat="43.24424" lon="-1.49194">
        <ele>489.67</ele>
        <time>2025-05-07T14:47:32.473Z</time>
      </trkpt>
      <trkpt lat="43.24438" lon="-1.49188">
        <ele>490.35</ele>
        <time>2025-05-07T14:47:39.148Z</time>
      </trkpt>
      <trkpt lat="43.24456" lon="-1.49179">
        <ele>490.98</ele>
        <time>2025-05-07T14:47:45.839Z</time>
      </trkpt>
      <trkpt lat="43.24471" lon="-1.49168">
        <ele>491.5</ele>
        <time>2025-05-07T14:47:52.545Z</time>
      </trkpt>
      <trkpt lat="43.24486" lon="-1.49153">
        <ele>491.86</ele>
        <time>2025-05-07T14:47:59.267Z</time>
      </trkpt>
      <trkpt lat="43.2449" lon="-1.49149">
        <ele>492.2</ele>
        <time>2025-05-07T14:48:05.993Z</time>
      </trkpt>
      <trkpt lat="43.24502" lon="-1.49136">
        <ele>492.42</ele>
        <time>2025-05-07T14:48:12.732Z</time>
      </trkpt>
      <trkpt lat="43.24519" lon="-1.49125">
        <ele>492.72</ele>
        <time>2025-05-07T14:48:19.487Z</time>
      </trkpt>
      <trkpt lat="43.24529" lon="-1.49123">
        <ele>492.97</ele>
        <time>2025-05-07T14:48:26.251Z</time>
      </trkpt>
      <trkpt lat="43.24549" lon="-1.49122">
        <ele>493.26</ele>
        <time>2025-05-07T14:48:33.031Z</time>
      </trkpt>
      <trkpt lat="43.24561" lon="-1.49122">
        <ele>493.32</ele>
        <time>2025-05-07T14:48:39.822Z</time>
      </trkpt>
      <trkpt lat="43.24579" lon="-1.49123">
        <ele>493.26</ele>
        <time>2025-05-07T14:48:46.628Z</time>
      </trkpt>
      <trkpt lat="43.24597" lon="-1.4913">
        <ele>493.1</ele>
        <time>2025-05-07T14:48:53.450Z</time>
      </trkpt>
      <trkpt lat="43.24611" lon="-1.49141">
        <ele>492.79</ele>
        <time>2025-05-07T14:49:00.286Z</time>
      </trkpt>
      <trkpt lat="43.24626" lon="-1.49157">
        <ele>492.43</ele>
        <time>2025-05-07T14:49:07.138Z</time>
      </trkpt>
      <trkpt lat="43.24639" lon="-1.49174">
        <ele>492.09</ele>
        <time>2025-05-07T14:49:14.006Z</time>
      </trkpt>
      <trkpt lat="43.24651" lon="-1.49192">
        <ele>491.76</ele>
        <time>2025-05-07T14:49:20.889Z</time>
      </trkpt>
      <trkpt lat="43.24653" lon="-1.49197">
        <ele>491.41</ele>
        <time>2025-05-07T14:49:27.775Z</time>
      </trkpt>
      <trkpt lat="43.24659" lon="-1.49207">
        <ele>491.03</ele>
        <time>2025-05-07T14:49:34.669Z</time>
      </trkpt>
      <trkpt lat="43.2466" lon="-1.4921">
        <ele>490.57</ele>
        <time>2025-05-07T14:49:41.565Z</time>
      </trkpt>
      <trkpt lat="43.24661" lon="-1.49212">
        <ele>490.05</ele>
        <time>2025-05-07T14:49:48.463Z</time>
      </trkpt>
      <trkpt lat="43.24664" lon="-1.49218">
        <ele>489.48</ele>
        <time>2025-05-07T14:49:55.365Z</time>
      </trkpt>
      <trkpt lat="43.24668" lon="-1.49224">
        <ele>488.87</ele>
        <time>2025-05-07T14:50:02.272Z</time>
      </trkpt>
      <trkpt lat="43.2467" lon="-1.49224">
        <ele>488.15</ele>
        <time>2025-05-07T14:50:09.181Z</time>
      </trkpt>
      <trkpt lat="43.24673" lon="-1.49228">
        <ele>487.4</ele>
        <time>2025-05-07T14:50:16.093Z</time>
      </trkpt>
      <trkpt lat="43.24683" lon="-1.49238">
        <ele>486.56</ele>
        <time>2025-05-07T14:50:23.016Z</time>
      </trkpt>
      <trkpt lat="43.24702" lon="-1.49244">
        <ele>485.54</ele>
        <time>2025-05-07T14:50:29.955Z</time>
      </trkpt>
      <trkpt lat="43.24716" lon="-1.49248">
        <ele>484.55</ele>
        <time>2025-05-07T14:50:36.907Z</time>
      </trkpt>
      <trkpt lat="43.24729" lon="-1.49251">
        <ele>483.46</ele>
        <time>2025-05-07T14:50:43.870Z</time>
      </trkpt>
      <trkpt lat="43.24743" lon="-1.49258">
        <ele>482.39</ele>
        <time>2025-05-07T14:50:50.845Z</time>
      </trkpt>
      <trkpt lat="43.24755" lon="-1.49262">
        <ele>481.4</ele>
        <time>2025-05-07T14:50:57.830Z</time>
      </trkpt>
      <trkpt lat="43.24762" lon="-1.49265">
        <ele>480.41</ele>
        <time>2025-05-07T14:51:04.822Z</time>
      </trkpt>
      <trkpt lat="43.24767" lon="-1.49267">
        <ele>479.42</ele>
        <time>2025-05-07T14:51:11.818Z</time>
      </trkpt>
      <trkpt lat="43.24777" lon="-1.49269">
        <ele>478.37</ele>
        <time>2025-05-07T14:51:18.823Z</time>
      </trkpt>
      <trkpt lat="43.24788" lon="-1.49272">
        <ele>477.23</ele>
        <time>2025-05-07T14:51:25.838Z</time>
      </trkpt>
      <trkpt lat="43.24797" lon="-1.49277">
        <ele>476.11</ele>
        <time>2025-05-07T14:51:32.861Z</time>
      </trkpt>
      <trkpt lat="43.24809" lon="-1.49283">
        <ele>475.1</ele>
        <time>2025-05-07T14:51:39.895Z</time>
      </trkpt>
      <trkpt lat="43.24819" lon="-1.49289">
        <ele>474.11</ele>
        <time>2025-05-07T14:51:46.938Z</time>
      </trkpt>
      <trkpt lat="43.24828" lon="-1.49293">
        <ele>473.05</ele>
        <time>2025-05-07T14:51:53.989Z</time>
      </trkpt>
      <trkpt lat="43.24839" lon="-1.493">
        <ele>472.07</ele>
        <time>2025-05-07T14:52:01.050Z</time>
      </trkpt>
      <trkpt lat="43.24856" lon="-1.49308">
        <ele>471.05</ele>
        <time>2025-05-07T14:52:08.127Z</time>
      </trkpt>
      <trkpt lat="43.24873" lon="-1.49315">
        <ele>470.09</ele>
        <time>2025-05-07T14:52:15.218Z</time>
      </trkpt>
      <trkpt lat="43.24885" lon="-1.49319">
        <ele>468.98</ele>
        <time>2025-05-07T14:52:22.320Z</time>
      </trkpt>
      <trkpt lat="43.24902" lon="-1.49327">
        <ele>467.9</ele>
        <time>2025-05-07T14:52:29.437Z</time>
      </trkpt>
      <trkpt lat="43.24911" lon="-1.49334">
        <ele>466.89</ele>
        <time>2025-05-07T14:52:36.564Z</time>
      </trkpt>
      <trkpt lat="43.24922" lon="-1.49341">
        <ele>465.5</ele>
        <time>2025-05-07T14:52:43.701Z</time>
      </trkpt>
      <trkpt lat="43.24935" lon="-1.49346">
        <ele>464.11</ele>
        <time>2025-05-07T14:52:50.849Z</time>
      </trkpt>
      <trkpt lat="43.24947" lon="-1.49351">
        <ele>462.74</ele>
        <time>2025-05-07T14:52:58.008Z</time>
      </trkpt>
      <trkpt lat="43.24964" lon="-1.49361">
        <ele>461.49</ele>
        <time>2025-05-07T14:53:05.183Z</time>
      </trkpt>
      <trkpt lat="43.24969" lon="-1.49363">
        <ele>459.92</ele>
        <time>2025-05-07T14:53:12.362Z</time>
      </trkpt>
      <trkpt lat="43.24986" lon="-1.4937">
        <ele>457.98</ele>
        <time>2025-05-07T14:53:19.556Z</time>
      </trkpt>
      <trkpt lat="43.25" lon="-1.49375">
        <ele>456.33</ele>
        <time>2025-05-07T14:53:26.763Z</time>
      </trkpt>
      <trkpt lat="43.25017" lon="-1.49383">
        <ele>454.66</ele>
        <time>2025-05-07T14:53:33.985Z</time>
      </trkpt>
      <trkpt lat="43.25034" lon="-1.4939">
        <ele>452.8</ele>
        <time>2025-05-07T14:53:41.222Z</time>
      </trkpt>
      <trkpt lat="43.25051" lon="-1.49403">
        <ele>450.88</ele>
        <time>2025-05-07T14:53:48.475Z</time>
      </trkpt>
      <trkpt lat="43.25058" lon="-1.49407">
        <ele>449.05</ele>
        <time>2025-05-07T14:53:55.735Z</time>
      </trkpt>
      <trkpt lat="43.25063" lon="-1.49413">
        <ele>447.25</ele>
        <time>2025-05-07T14:54:03.000Z</time>
      </trkpt>
      <trkpt lat="43.25066" lon="-1.49417">
        <ele>445.5</ele>
        <time>2025-05-07T14:54:10.269Z</time>
      </trkpt>
      <trkpt lat="43.25067" lon="-1.49418">
        <ele>443.79</ele>
        <time>2025-05-07T14:54:17.539Z</time>
      </trkpt>
      <trkpt lat="43.25071" lon="-1.49421">
        <ele>441.99</ele>
        <time>2025-05-07T14:54:24.813Z</time>
      </trkpt>
      <trkpt lat="43.25075" lon="-1.49424">
        <ele>440.33</ele>
        <time>2025-05-07T14:54:32.091Z</time>
      </trkpt>
      <trkpt lat="43.25079" lon="-1.49429">
        <ele>438.67</ele>
        <time>2025-05-07T14:54:39.374Z</time>
      </trkpt>
      <trkpt lat="43.25086" lon="-1.49431">
        <ele>437.02</ele>
        <time>2025-05-07T14:54:46.662Z</time>
      </trkpt>
      <trkpt lat="43.25092" lon="-1.49436">
        <ele>435.45</ele>
        <time>2025-05-07T14:54:53.956Z</time>
      </trkpt>
      <trkpt lat="43.25098" lon="-1.49439">
        <ele>434</ele>
        <time>2025-05-07T14:55:01.256Z</time>
      </trkpt>
      <trkpt lat="43.25101" lon="-1.49442">
        <ele>432.67</ele>
        <time>2025-05-07T14:55:08.558Z</time>
      </trkpt>
      <trkpt lat="43.25104" lon="-1.49443">
        <ele>431.4</ele>
        <time>2025-05-07T14:55:15.863Z</time>
      </trkpt>
      <trkpt lat="43.25109" lon="-1.49448">
        <ele>430.19</ele>
        <time>2025-05-07T14:55:23.173Z</time>
      </trkpt>
      <trkpt lat="43.25112" lon="-1.49452">
        <ele>429.08</ele>
        <time>2025-05-07T14:55:30.487Z</time>
      </trkpt>
      <trkpt lat="43.25116" lon="-1.49456">
        <ele>428.04</ele>
        <time>2025-05-07T14:55:37.805Z</time>
      </trkpt>
      <trkpt lat="43.25121" lon="-1.49459">
        <ele>427.1</ele>
        <time>2025-05-07T14:55:45.128Z</time>
      </trkpt>
      <trkpt lat="43.25124" lon="-1.49465">
        <ele>426.31</ele>
        <time>2025-05-07T14:55:52.456Z</time>
      </trkpt>
      <trkpt lat="43.25127" lon="-1.4947">
        <ele>425.57</ele>
        <time>2025-05-07T14:55:59.788Z</time>
      </trkpt>
      <trkpt lat="43.2513" lon="-1.49474">
        <ele>424.86</ele>
        <time>2025-05-07T14:56:07.123Z</time>
      </trkpt>
      <trkpt lat="43.25133" lon="-1.49476">
        <ele>424.21</ele>
        <time>2025-05-07T14:56:14.461Z</time>
      </trkpt>
      <trkpt lat="43.25134" lon="-1.49476">
        <ele>423.59</ele>
        <time>2025-05-07T14:56:21.799Z</time>
      </trkpt>
      <trkpt lat="43.25139" lon="-1.4948">
        <ele>423.01</ele>
        <time>2025-05-07T14:56:29.143Z</time>
      </trkpt>
      <trkpt lat="43.25147" lon="-1.49485">
        <ele>422.43</ele>
        <time>2025-05-07T14:56:36.494Z</time>
      </trkpt>
      <trkpt lat="43.25157" lon="-1.49493">
        <ele>421.85</ele>
        <time>2025-05-07T14:56:43.855Z</time>
      </trkpt>
      <trkpt lat="43.25165" lon="-1.495">
        <ele>421.3</ele>
        <time>2025-05-07T14:56:51.224Z</time>
      </trkpt>
      <trkpt lat="43.25175" lon="-1.49506">
        <ele>420.75</ele>
        <time>2025-05-07T14:56:58.602Z</time>
      </trkpt>
      <trkpt lat="43.25182" lon="-1.49513">
        <ele>420.24</ele>
        <time>2025-05-07T14:57:05.988Z</time>
      </trkpt>
      <trkpt lat="43.25191" lon="-1.49521">
        <ele>419.72</ele>
        <time>2025-05-07T14:57:13.383Z</time>
      </trkpt>
      <trkpt lat="43.25204" lon="-1.49534">
        <ele>419.12</ele>
        <time>2025-05-07T14:57:20.791Z</time>
      </trkpt>
      <trkpt lat="43.25212" lon="-1.49542">
        <ele>418.57</ele>
        <time>2025-05-07T14:57:28.208Z</time>
      </trkpt>
      <trkpt lat="43.25223" lon="-1.4955">
        <ele>417.96</ele>
        <time>2025-05-07T14:57:35.636Z</time>
      </trkpt>
      <trkpt lat="43.2523" lon="-1.4954">
        <ele>417.25</ele>
        <time>2025-05-07T14:57:43.073Z</time>
      </trkpt>
      <trkpt lat="43.25231" lon="-1.49539">
        <ele>416.66</ele>
        <time>2025-05-07T14:57:50.511Z</time>
      </trkpt>
      <trkpt lat="43.25232" lon="-1.49539">
        <ele>416.05</ele>
        <time>2025-05-07T14:57:57.950Z</time>
      </trkpt>
      <trkpt lat="43.25248" lon="-1.49553">
        <ele>415.38</ele>
        <time>2025-05-07T14:58:05.404Z</time>
      </trkpt>
      <trkpt lat="43.25251" lon="-1.49556">
        <ele>414.75</ele>
        <time>2025-05-07T14:58:12.861Z</time>
      </trkpt>
      <trkpt lat="43.25257" lon="-1.49565">
        <ele>414.06</ele>
        <time>2025-05-07T14:58:20.326Z</time>
      </trkpt>
      <trkpt lat="43.25262" lon="-1.49574">
        <ele>413.38</ele>
        <time>2025-05-07T14:58:27.798Z</time>
      </trkpt>
      <trkpt lat="43.25268" lon="-1.49581">
        <ele>412.68</ele>
        <time>2025-05-07T14:58:35.277Z</time>
      </trkpt>
      <trkpt lat="43.25275" lon="-1.4959">
        <ele>411.93</ele>
        <time>2025-05-07T14:58:42.764Z</time>
      </trkpt>
      <trkpt lat="43.25286" lon="-1.49605">
        <ele>411.12</ele>
        <time>2025-05-07T14:58:50.264Z</time>
      </trkpt>
      <trkpt lat="43.25292" lon="-1.49613">
        <ele>410.35</ele>
        <time>2025-05-07T14:58:57.771Z</time>
      </trkpt>
      <trkpt lat="43.25299" lon="-1.49622">
        <ele>409.55</ele>
        <time>2025-05-07T14:59:05.287Z</time>
      </trkpt>
      <trkpt lat="43.25304" lon="-1.49632">
        <ele>408.79</ele>
        <time>2025-05-07T14:59:12.810Z</time>
      </trkpt>
      <trkpt lat="43.25308" lon="-1.49641">
        <ele>408.07</ele>
        <time>2025-05-07T14:59:20.339Z</time>
      </trkpt>
      <trkpt lat="43.25312" lon="-1.49649">
        <ele>407.33</ele>
        <time>2025-05-07T14:59:27.875Z</time>
      </trkpt>
      <trkpt lat="43.25319" lon="-1.49659">
        <ele>406.65</ele>
        <time>2025-05-07T14:59:35.419Z</time>
      </trkpt>
      <trkpt lat="43.25325" lon="-1.49664">
        <ele>406</ele>
        <time>2025-05-07T14:59:42.969Z</time>
      </trkpt>
      <trkpt lat="43.25329" lon="-1.49668">
        <ele>405.32</ele>
        <time>2025-05-07T14:59:50.523Z</time>
      </trkpt>
      <trkpt lat="43.25333" lon="-1.49673">
        <ele>404.6</ele>
        <time>2025-05-07T14:59:58.082Z</time>
      </trkpt>
      <trkpt lat="43.25336" lon="-1.49677">
        <ele>403.91</ele>
        <time>2025-05-07T15:00:05.645Z</time>
      </trkpt>
      <trkpt lat="43.25339" lon="-1.49681">
        <ele>403.22</ele>
        <time>2025-05-07T15:00:13.211Z</time>
      </trkpt>
      <trkpt lat="43.25342" lon="-1.49686">
        <ele>402.57</ele>
        <time>2025-05-07T15:00:20.781Z</time>
      </trkpt>
      <trkpt lat="43.25348" lon="-1.49694">
        <ele>401.93</ele>
        <time>2025-05-07T15:00:28.358Z</time>
      </trkpt>
      <trkpt lat="43.25353" lon="-1.49701">
        <ele>401.23</ele>
        <time>2025-05-07T15:00:35.942Z</time>
      </trkpt>
      <trkpt lat="43.25359" lon="-1.4971">
        <ele>400.47</ele>
        <time>2025-05-07T15:00:43.533Z</time>
      </trkpt>
      <trkpt lat="43.25363" lon="-1.49715">
        <ele>399.74</ele>
        <time>2025-05-07T15:00:51.129Z</time>
      </trkpt>
      <trkpt lat="43.25369" lon="-1.49723">
        <ele>399.04</ele>
        <time>2025-05-07T15:00:58.732Z</time>
      </trkpt>
      <trkpt lat="43.25371" lon="-1.49724">
        <ele>398.3</ele>
        <time>2025-05-07T15:01:06.336Z</time>
      </trkpt>
      <trkpt lat="43.25374" lon="-1.49725">
        <ele>397.53</ele>
        <time>2025-05-07T15:01:13.943Z</time>
      </trkpt>
      <trkpt lat="43.25377" lon="-1.49729">
        <ele>396.72</ele>
        <time>2025-05-07T15:01:21.554Z</time>
      </trkpt>
      <trkpt lat="43.25379" lon="-1.49731">
        <ele>395.89</ele>
        <time>2025-05-07T15:01:29.167Z</time>
      </trkpt>
      <trkpt lat="43.2538" lon="-1.49732">
        <ele>395.02</ele>
        <time>2025-05-07T15:01:36.781Z</time>
      </trkpt>
      <trkpt lat="43.25381" lon="-1.49733">
        <ele>394.12</ele>
        <time>2025-05-07T15:01:44.396Z</time>
      </trkpt>
      <trkpt lat="43.25396" lon="-1.4974">
        <ele>393</ele>
        <time>2025-05-07T15:01:52.024Z</time>
      </trkpt>
      <trkpt lat="43.25402" lon="-1.49745">
        <ele>391.98</ele>
        <time>2025-05-07T15:01:59.659Z</time>
      </trkpt>
      <trkpt lat="43.25409" lon="-1.49749">
        <ele>390.92</ele>
        <time>2025-05-07T15:02:07.300Z</time>
      </trkpt>
      <trkpt lat="43.25415" lon="-1.49752">
        <ele>389.77</ele>
        <time>2025-05-07T15:02:14.946Z</time>
      </trkpt>
      <trkpt lat="43.25422" lon="-1.49756">
        <ele>388.54</ele>
        <time>2025-05-07T15:02:22.599Z</time>
      </trkpt>
      <trkpt lat="43.25428" lon="-1.4976">
        <ele>387.31</ele>
        <time>2025-05-07T15:02:30.257Z</time>
      </trkpt>
      <trkpt lat="43.25432" lon="-1.49763">
        <ele>386.1</ele>
        <time>2025-05-07T15:02:37.920Z</time>
      </trkpt>
      <trkpt lat="43.25437" lon="-1.49767">
        <ele>384.86</ele>
        <time>2025-05-07T15:02:45.587Z</time>
      </trkpt>
      <trkpt lat="43.25442" lon="-1.4977">
        <ele>383.6</ele>
        <time>2025-05-07T15:02:53.258Z</time>
      </trkpt>
      <trkpt lat="43.25447" lon="-1.49773">
        <ele>382.27</ele>
        <time>2025-05-07T15:03:00.935Z</time>
      </trkpt>
      <trkpt lat="43.25453" lon="-1.49777">
        <ele>380.9</ele>
        <time>2025-05-07T15:03:08.617Z</time>
      </trkpt>
      <trkpt lat="43.2546" lon="-1.49782">
        <ele>379.48</ele>
        <time>2025-05-07T15:03:16.306Z</time>
      </trkpt>
      <trkpt lat="43.25468" lon="-1.49782">
        <ele>378.11</ele>
        <time>2025-05-07T15:03:24.002Z</time>
      </trkpt>
      <trkpt lat="43.25475" lon="-1.49778">
        <ele>376.79</ele>
        <time>2025-05-07T15:03:31.705Z</time>
      </trkpt>
      <trkpt lat="43.25485" lon="-1.49776">
        <ele>375.43</ele>
        <time>2025-05-07T15:03:39.416Z</time>
      </trkpt>
      <trkpt lat="43.25493" lon="-1.49779">
        <ele>374.07</ele>
        <time>2025-05-07T15:03:47.134Z</time>
      </trkpt>
      <trkpt lat="43.25498" lon="-1.49784">
        <ele>372.73</ele>
        <time>2025-05-07T15:03:54.857Z</time>
      </trkpt>
      <trkpt lat="43.25503" lon="-1.49791">
        <ele>371.39</ele>
        <time>2025-05-07T15:04:02.587Z</time>
      </trkpt>
      <trkpt lat="43.25506" lon="-1.49798">
        <ele>370.05</ele>
        <time>2025-05-07T15:04:10.321Z</time>
      </trkpt>
      <trkpt lat="43.25511" lon="-1.49802">
        <ele>368.71</ele>
        <time>2025-05-07T15:04:18.060Z</time>
      </trkpt>
      <trkpt lat="43.25513" lon="-1.49804">
        <ele>367.4</ele>
        <time>2025-05-07T15:04:25.801Z</time>
      </trkpt>
      <trkpt lat="43.25514" lon="-1.49806">
        <ele>366.11</ele>
        <time>2025-05-07T15:04:33.543Z</time>
      </trkpt>
      <trkpt lat="43.25517" lon="-1.49808">
        <ele>364.77</ele>
        <time>2025-05-07T15:04:41.288Z</time>
      </trkpt>
      <trkpt lat="43.25529" lon="-1.49802">
        <ele>363.4</ele>
        <time>2025-05-07T15:04:49.045Z</time>
      </trkpt>
      <trkpt lat="43.25536" lon="-1.498">
        <ele>362.06</ele>
        <time>2025-05-07T15:04:56.807Z</time>
      </trkpt>
      <trkpt lat="43.25543" lon="-1.49802">
        <ele>360.73</ele>
        <time>2025-05-07T15:05:04.575Z</time>
      </trkpt>
      <trkpt lat="43.25549" lon="-1.49807">
        <ele>359.41</ele>
        <time>2025-05-07T15:05:12.349Z</time>
      </trkpt>
      <trkpt lat="43.25555" lon="-1.49812">
        <ele>358.05</ele>
        <time>2025-05-07T15:05:20.129Z</time>
      </trkpt>
      <trkpt lat="43.25559" lon="-1.49816">
        <ele>356.72</ele>
        <time>2025-05-07T15:05:27.914Z</time>
      </trkpt>
      <trkpt lat="43.25565" lon="-1.4982">
        <ele>355.39</ele>
        <time>2025-05-07T15:05:35.705Z</time>
      </trkpt>
      <trkpt lat="43.25569" lon="-1.49825">
        <ele>354.11</ele>
        <time>2025-05-07T15:05:43.501Z</time>
      </trkpt>
      <trkpt lat="43.25573" lon="-1.4983">
        <ele>352.84</ele>
        <time>2025-05-07T15:05:51.301Z</time>
      </trkpt>
      <trkpt lat="43.25578" lon="-1.49833">
        <ele>351.58</ele>
        <time>2025-05-07T15:05:59.105Z</time>
      </trkpt>
      <trkpt lat="43.25582" lon="-1.49836">
        <ele>350.33</ele>
        <time>2025-05-07T15:06:06.913Z</time>
      </trkpt>
      <trkpt lat="43.25587" lon="-1.49839">
        <ele>349.08</ele>
        <time>2025-05-07T15:06:14.726Z</time>
      </trkpt>
      <trkpt lat="43.25591" lon="-1.49842">
        <ele>347.87</ele>
        <time>2025-05-07T15:06:22.543Z</time>
      </trkpt>
      <trkpt lat="43.25595" lon="-1.49846">
        <ele>346.68</ele>
        <time>2025-05-07T15:06:30.364Z</time>
      </trkpt>
      <trkpt lat="43.25599" lon="-1.49851">
        <ele>345.55</ele>
        <time>2025-05-07T15:06:38.190Z</time>
      </trkpt>
      <trkpt lat="43.25603" lon="-1.49855">
        <ele>344.45</ele>
        <time>2025-05-07T15:06:46.020Z</time>
      </trkpt>
      <trkpt lat="43.25607" lon="-1.49859">
        <ele>343.34</ele>
        <time>2025-05-07T15:06:53.854Z</time>
      </trkpt>
      <trkpt lat="43.2561" lon="-1.49864">
        <ele>342.25</ele>
        <time>2025-05-07T15:07:01.692Z</time>
      </trkpt>
      <trkpt lat="43.25615" lon="-1.49868">
        <ele>341.17</ele>
        <time>2025-05-07T15:07:09.535Z</time>
      </trkpt>
      <trkpt lat="43.25619" lon="-1.4987">
        <ele>340.11</ele>
        <time>2025-05-07T15:07:17.382Z</time>
      </trkpt>
      <trkpt lat="43.25625" lon="-1.49872">
        <ele>339.08</ele>
        <time>2025-05-07T15:07:25.234Z</time>
      </trkpt>
      <trkpt lat="43.25632" lon="-1.49874">
        <ele>338.07</ele>
        <time>2025-05-07T15:07:33.092Z</time>
      </trkpt>
      <trkpt lat="43.25638" lon="-1.49874">
        <ele>337.01</ele>
        <time>2025-05-07T15:07:40.955Z</time>
      </trkpt>
      <trkpt lat="43.25643" lon="-1.49875">
        <ele>335.97</ele>
        <time>2025-05-07T15:07:48.822Z</time>
      </trkpt>
      <trkpt lat="43.25649" lon="-1.49876">
        <ele>334.92</ele>
        <time>2025-05-07T15:07:56.694Z</time>
      </trkpt>
      <trkpt lat="43.25656" lon="-1.49877">
        <ele>333.89</ele>
        <time>2025-05-07T15:08:04.572Z</time>
      </trkpt>
      <trkpt lat="43.25661" lon="-1.49878">
        <ele>332.87</ele>
        <time>2025-05-07T15:08:12.455Z</time>
      </trkpt>
      <trkpt lat="43.25668" lon="-1.49879">
        <ele>331.86</ele>
        <time>2025-05-07T15:08:20.344Z</time>
      </trkpt>
      <trkpt lat="43.25674" lon="-1.49882">
        <ele>330.86</ele>
        <time>2025-05-07T15:08:28.238Z</time>
      </trkpt>
      <trkpt lat="43.2568" lon="-1.49884">
        <ele>329.86</ele>
        <time>2025-05-07T15:08:36.137Z</time>
      </trkpt>
      <trkpt lat="43.25684" lon="-1.49887">
        <ele>328.88</ele>
        <time>2025-05-07T15:08:44.040Z</time>
      </trkpt>
      <trkpt lat="43.25689" lon="-1.4989">
        <ele>327.92</ele>
        <time>2025-05-07T15:08:51.948Z</time>
      </trkpt>
      <trkpt lat="43.25694" lon="-1.49893">
        <ele>326.97</ele>
        <time>2025-05-07T15:08:59.860Z</time>
      </trkpt>
      <trkpt lat="43.25698" lon="-1.49895">
        <ele>326.02</ele>
        <time>2025-05-07T15:09:07.776Z</time>
      </trkpt>
      <trkpt lat="43.25705" lon="-1.499">
        <ele>325.06</ele>
        <time>2025-05-07T15:09:15.698Z</time>
      </trkpt>
      <trkpt lat="43.25708" lon="-1.49903">
        <ele>324.14</ele>
        <time>2025-05-07T15:09:23.624Z</time>
      </trkpt>
      <trkpt lat="43.25713" lon="-1.49906">
        <ele>323.21</ele>
        <time>2025-05-07T15:09:31.554Z</time>
      </trkpt>
      <trkpt lat="43.25719" lon="-1.49907">
        <ele>322.27</ele>
        <time>2025-05-07T15:09:39.490Z</time>
      </trkpt>
      <trkpt lat="43.25726" lon="-1.49909">
        <ele>321.32</ele>
        <time>2025-05-07T15:09:47.432Z</time>
      </trkpt>
      <trkpt lat="43.25736" lon="-1.49911">
        <ele>320.39</ele>
        <time>2025-05-07T15:09:55.382Z</time>
      </trkpt>
      <trkpt lat="43.25745" lon="-1.49911">
        <ele>319.44</ele>
        <time>2025-05-07T15:10:03.340Z</time>
      </trkpt>
      <trkpt lat="43.2575" lon="-1.49909">
        <ele>318.45</ele>
        <time>2025-05-07T15:10:11.302Z</time>
      </trkpt>
      <trkpt lat="43.2576" lon="-1.49908">
        <ele>317.4</ele>
        <time>2025-05-07T15:10:19.273Z</time>
      </trkpt>
      <trkpt lat="43.25771" lon="-1.49907">
        <ele>316.34</ele>
        <time>2025-05-07T15:10:27.253Z</time>
      </trkpt>
      <trkpt lat="43.2578" lon="-1.4991">
        <ele>315.29</ele>
        <time>2025-05-07T15:10:35.241Z</time>
      </trkpt>
      <trkpt lat="43.25789" lon="-1.49913">
        <ele>314.26</ele>
        <time>2025-05-07T15:10:43.237Z</time>
      </trkpt>
      <trkpt lat="43.25797" lon="-1.49919">
        <ele>313.21</ele>
        <time>2025-05-07T15:10:51.241Z</time>
      </trkpt>
      <trkpt lat="43.25804" lon="-1.49924">
        <ele>312.06</ele>
        <time>2025-05-07T15:10:59.251Z</time>
      </trkpt>
      <trkpt lat="43.2581" lon="-1.49928">
        <ele>310.91</ele>
        <time>2025-05-07T15:11:07.267Z</time>
      </trkpt>
      <trkpt lat="43.25818" lon="-1.49932">
        <ele>309.72</ele>
        <time>2025-05-07T15:11:15.291Z</time>
      </trkpt>
      <trkpt lat="43.25829" lon="-1.49938">
        <ele>308.49</ele>
        <time>2025-05-07T15:11:23.324Z</time>
      </trkpt>
      <trkpt lat="43.25837" lon="-1.49941">
        <ele>307.25</ele>
        <time>2025-05-07T15:11:31.364Z</time>
      </trkpt>
      <trkpt lat="43.25848" lon="-1.49944">
        <ele>305.97</ele>
        <time>2025-05-07T15:11:39.414Z</time>
      </trkpt>
      <trkpt lat="43.25859" lon="-1.49945">
        <ele>304.67</ele>
        <time>2025-05-07T15:11:47.474Z</time>
      </trkpt>
      <trkpt lat="43.25873" lon="-1.49949">
        <ele>303.33</ele>
        <time>2025-05-07T15:11:55.546Z</time>
      </trkpt>
      <trkpt lat="43.25883" lon="-1.49954">
        <ele>302</ele>
        <time>2025-05-07T15:12:03.627Z</time>
      </trkpt>
      <trkpt lat="43.25894" lon="-1.49958">
        <ele>300.68</ele>
        <time>2025-05-07T15:12:11.717Z</time>
      </trkpt>
      <trkpt lat="43.25909" lon="-1.49965">
        <ele>299.34</ele>
        <time>2025-05-07T15:12:19.821Z</time>
      </trkpt>
      <trkpt lat="43.25919" lon="-1.4997">
        <ele>297.99</ele>
        <time>2025-05-07T15:12:27.934Z</time>
      </trkpt>
      <trkpt lat="43.25935" lon="-1.49976">
        <ele>296.59</ele>
        <time>2025-05-07T15:12:36.061Z</time>
      </trkpt>
      <trkpt lat="43.25946" lon="-1.4998">
        <ele>295.16</ele>
        <time>2025-05-07T15:12:44.198Z</time>
      </trkpt>
      <trkpt lat="43.2596" lon="-1.49986">
        <ele>293.71</ele>
        <time>2025-05-07T15:12:52.347Z</time>
      </trkpt>
      <trkpt lat="43.25973" lon="-1.49992">
        <ele>292.25</ele>
        <time>2025-05-07T15:13:00.508Z</time>
      </trkpt>
      <trkpt lat="43.25982" lon="-1.49995">
        <ele>290.92</ele>
        <time>2025-05-07T15:13:08.676Z</time>
      </trkpt>
      <trkpt lat="43.25989" lon="-1.49996">
        <ele>289.62</ele>
        <time>2025-05-07T15:13:16.851Z</time>
      </trkpt>
      <trkpt lat="43.25998" lon="-1.49999">
        <ele>288.32</ele>
        <time>2025-05-07T15:13:25.033Z</time>
      </trkpt>
      <trkpt lat="43.26003" lon="-1.5">
        <ele>287.06</ele>
        <time>2025-05-07T15:13:33.220Z</time>
      </trkpt>
      <trkpt lat="43.26009" lon="-1.50001">
        <ele>285.83</ele>
        <time>2025-05-07T15:13:41.412Z</time>
      </trkpt>
      <trkpt lat="43.26015" lon="-1.50002">
        <ele>284.61</ele>
        <time>2025-05-07T15:13:49.609Z</time>
      </trkpt>
      <trkpt lat="43.2602" lon="-1.50003">
        <ele>283.43</ele>
        <time>2025-05-07T15:13:57.810Z</time>
      </trkpt>
      <trkpt lat="43.26024" lon="-1.50002">
        <ele>282.29</ele>
        <time>2025-05-07T15:14:06.015Z</time>
      </trkpt>
      <trkpt lat="43.26029" lon="-1.50001">
        <ele>281.15</ele>
        <time>2025-05-07T15:14:14.224Z</time>
      </trkpt>
      <trkpt lat="43.26035" lon="-1.5">
        <ele>280.04</ele>
        <time>2025-05-07T15:14:22.438Z</time>
      </trkpt>
      <trkpt lat="43.26042" lon="-1.49999">
        <ele>278.93</ele>
        <time>2025-05-07T15:14:30.658Z</time>
      </trkpt>
      <trkpt lat="43.26049" lon="-1.49998">
        <ele>277.84</ele>
        <time>2025-05-07T15:14:38.885Z</time>
      </trkpt>
      <trkpt lat="43.26056" lon="-1.49999">
        <ele>276.76</ele>
        <time>2025-05-07T15:14:47.117Z</time>
      </trkpt>
      <trkpt lat="43.26062" lon="-1.49998">
        <ele>275.71</ele>
        <time>2025-05-07T15:14:55.354Z</time>
      </trkpt>
      <trkpt lat="43.26067" lon="-1.49999">
        <ele>274.68</ele>
        <time>2025-05-07T15:15:03.596Z</time>
      </trkpt>
      <trkpt lat="43.26074" lon="-1.49999">
        <ele>273.64</ele>
        <time>2025-05-07T15:15:11.844Z</time>
      </trkpt>
      <trkpt lat="43.26081" lon="-1.49997">
        <ele>272.62</ele>
        <time>2025-05-07T15:15:20.097Z</time>
      </trkpt>
      <trkpt lat="43.26088" lon="-1.49996">
        <ele>271.59</ele>
        <time>2025-05-07T15:15:28.357Z</time>
      </trkpt>
      <trkpt lat="43.26096" lon="-1.49994">
        <ele>270.58</ele>
        <time>2025-05-07T15:15:36.623Z</time>
      </trkpt>
      <trkpt lat="43.26102" lon="-1.4999">
        <ele>269.59</ele>
        <time>2025-05-07T15:15:44.895Z</time>
      </trkpt>
      <trkpt lat="43.26109" lon="-1.49983">
        <ele>268.57</ele>
        <time>2025-05-07T15:15:53.174Z</time>
      </trkpt>
      <trkpt lat="43.26112" lon="-1.49976">
        <ele>267.61</ele>
        <time>2025-05-07T15:16:01.459Z</time>
      </trkpt>
      <trkpt lat="43.26113" lon="-1.4997">
        <ele>266.7</ele>
        <time>2025-05-07T15:16:09.747Z</time>
      </trkpt>
      <trkpt lat="43.26114" lon="-1.49965">
        <ele>265.77</ele>
        <time>2025-05-07T15:16:18.039Z</time>
      </trkpt>
      <trkpt lat="43.26114" lon="-1.49957">
        <ele>264.82</ele>
        <time>2025-05-07T15:16:26.336Z</time>
      </trkpt>
      <trkpt lat="43.26108" lon="-1.49947">
        <ele>263.96</ele>
        <time>2025-05-07T15:16:34.641Z</time>
      </trkpt>
      <trkpt lat="43.261" lon="-1.49942">
        <ele>263.14</ele>
        <time>2025-05-07T15:16:42.953Z</time>
      </trkpt>
      <trkpt lat="43.26095" lon="-1.49938">
        <ele>262.27</ele>
        <time>2025-05-07T15:16:51.270Z</time>
      </trkpt>
      <trkpt lat="43.26093" lon="-1.49934">
        <ele>261.34</ele>
        <time>2025-05-07T15:16:59.590Z</time>
      </trkpt>
      <trkpt lat="43.26093" lon="-1.49928">
        <ele>260.31</ele>
        <time>2025-05-07T15:17:07.914Z</time>
      </trkpt>
      <trkpt lat="43.26097" lon="-1.4992">
        <ele>259.16</ele>
        <time>2025-05-07T15:17:16.244Z</time>
      </trkpt>
      <trkpt lat="43.26107" lon="-1.49916">
        <ele>257.96</ele>
        <time>2025-05-07T15:17:24.583Z</time>
      </trkpt>
      <trkpt lat="43.26115" lon="-1.49917">
        <ele>256.82</ele>
        <time>2025-05-07T15:17:32.928Z</time>
      </trkpt>
      <trkpt lat="43.26121" lon="-1.49918">
        <ele>255.67</ele>
        <time>2025-05-07T15:17:41.279Z</time>
      </trkpt>
      <trkpt lat="43.26123" lon="-1.49919">
        <ele>254.53</ele>
        <time>2025-05-07T15:17:49.632Z</time>
      </trkpt>
      <trkpt lat="43.26133" lon="-1.49922">
        <ele>253.26</ele>
        <time>2025-05-07T15:17:57.993Z</time>
      </trkpt>
      <trkpt lat="43.26142" lon="-1.49926">
        <ele>252.04</ele>
        <time>2025-05-07T15:18:06.362Z</time>
      </trkpt>
      <trkpt lat="43.26144" lon="-1.49927">
        <ele>250.8</ele>
        <time>2025-05-07T15:18:14.733Z</time>
      </trkpt>
      <trkpt lat="43.26152" lon="-1.49932">
        <ele>249.47</ele>
        <time>2025-05-07T15:18:23.112Z</time>
      </trkpt>
      <trkpt lat="43.26158" lon="-1.49935">
        <ele>248.09</ele>
        <time>2025-05-07T15:18:31.496Z</time>
      </trkpt>
      <trkpt lat="43.26164" lon="-1.49939">
        <ele>246.65</ele>
        <time>2025-05-07T15:18:39.886Z</time>
      </trkpt>
      <trkpt lat="43.26172" lon="-1.49943">
        <ele>245.16</ele>
        <time>2025-05-07T15:18:48.283Z</time>
      </trkpt>
      <trkpt lat="43.26176" lon="-1.49945">
        <ele>243.7</ele>
        <time>2025-05-07T15:18:56.684Z</time>
      </trkpt>
      <trkpt lat="43.26184" lon="-1.49951">
        <ele>242.16</ele>
        <time>2025-05-07T15:19:05.092Z</time>
      </trkpt>
      <trkpt lat="43.26191" lon="-1.49961">
        <ele>240.58</ele>
        <time>2025-05-07T15:19:13.509Z</time>
      </trkpt>
      <trkpt lat="43.26194" lon="-1.49969">
        <ele>239.04</ele>
        <time>2025-05-07T15:19:21.932Z</time>
      </trkpt>
      <trkpt lat="43.26197" lon="-1.49974">
        <ele>237.5</ele>
        <time>2025-05-07T15:19:30.358Z</time>
      </trkpt>
      <trkpt lat="43.26202" lon="-1.49981">
        <ele>235.86</ele>
        <time>2025-05-07T15:19:38.791Z</time>
      </trkpt>
      <trkpt lat="43.26204" lon="-1.49987">
        <ele>234.32</ele>
        <time>2025-05-07T15:19:47.228Z</time>
      </trkpt>
      <trkpt lat="43.26209" lon="-1.49993">
        <ele>232.75</ele>
        <time>2025-05-07T15:19:55.670Z</time>
      </trkpt>
      <trkpt lat="43.26215" lon="-1.49999">
        <ele>231.14</ele>
        <time>2025-05-07T15:20:04.119Z</time>
      </trkpt>
      <trkpt lat="43.2622" lon="-1.50004">
        <ele>229.65</ele>
        <time>2025-05-07T15:20:12.573Z</time>
      </trkpt>
      <trkpt lat="43.26224" lon="-1.5001">
        <ele>228.21</ele>
        <time>2025-05-07T15:20:21.032Z</time>
      </trkpt>
      <trkpt lat="43.26231" lon="-1.50016">
        <ele>226.74</ele>
        <time>2025-05-07T15:20:29.498Z</time>
      </trkpt>
      <trkpt lat="43.26235" lon="-1.50018">
        <ele>225.25</ele>
        <time>2025-05-07T15:20:37.968Z</time>
      </trkpt>
      <trkpt lat="43.2624" lon="-1.50018">
        <ele>223.77</ele>
        <time>2025-05-07T15:20:46.442Z</time>
      </trkpt>
      <trkpt lat="43.26244" lon="-1.50018">
        <ele>222.31</ele>
        <time>2025-05-07T15:20:54.919Z</time>
      </trkpt>
      <trkpt lat="43.26251" lon="-1.50019">
        <ele>220.86</ele>
        <time>2025-05-07T15:21:03.402Z</time>
      </trkpt>
      <trkpt lat="43.2626" lon="-1.50019">
        <ele>219.39</ele>
        <time>2025-05-07T15:21:11.892Z</time>
      </trkpt>
      <trkpt lat="43.26267" lon="-1.50019">
        <ele>217.98</ele>
        <time>2025-05-07T15:21:20.389Z</time>
      </trkpt>
      <trkpt lat="43.26279" lon="-1.50019">
        <ele>216.53</ele>
        <time>2025-05-07T15:21:28.896Z</time>
      </trkpt>
      <trkpt lat="43.26284" lon="-1.50021">
        <ele>215.24</ele>
        <time>2025-05-07T15:21:37.407Z</time>
      </trkpt>
      <trkpt lat="43.26289" lon="-1.50026">
        <ele>214</ele>
        <time>2025-05-07T15:21:45.923Z</time>
      </trkpt>
      <trkpt lat="43.26292" lon="-1.50034">
        <ele>212.83</ele>
        <time>2025-05-07T15:21:54.445Z</time>
      </trkpt>
      <trkpt lat="43.26294" lon="-1.50039">
        <ele>211.74</ele>
        <time>2025-05-07T15:22:02.971Z</time>
      </trkpt>
      <trkpt lat="43.26295" lon="-1.50044">
        <ele>210.7</ele>
        <time>2025-05-07T15:22:11.500Z</time>
      </trkpt>
      <trkpt lat="43.263" lon="-1.5005">
        <ele>209.67</ele>
        <time>2025-05-07T15:22:20.035Z</time>
      </trkpt>
      <trkpt lat="43.26304" lon="-1.50052">
        <ele>208.73</ele>
        <time>2025-05-07T15:22:28.573Z</time>
      </trkpt>
      <trkpt lat="43.26307" lon="-1.50055">
        <ele>207.82</ele>
        <time>2025-05-07T15:22:37.115Z</time>
      </trkpt>
      <trkpt lat="43.26311" lon="-1.50059">
        <ele>206.96</ele>
        <time>2025-05-07T15:22:45.660Z</time>
      </trkpt>
      <trkpt lat="43.26312" lon="-1.50063">
        <ele>206.24</ele>
        <time>2025-05-07T15:22:54.208Z</time>
      </trkpt>
      <trkpt lat="43.26311" lon="-1.50069">
        <ele>205.6</ele>
        <time>2025-05-07T15:23:02.760Z</time>
      </trkpt>
      <trkpt lat="43.26307" lon="-1.5008">
        <ele>205.04</ele>
        <time>2025-05-07T15:23:11.319Z</time>
      </trkpt>
      <trkpt lat="43.26302" lon="-1.50091">
        <ele>204.54</ele>
        <time>2025-05-07T15:23:19.886Z</time>
      </trkpt>
      <trkpt lat="43.26296" lon="-1.50097">
        <ele>204.17</ele>
        <time>2025-05-07T15:23:28.459Z</time>
      </trkpt>
      <trkpt lat="43.26293" lon="-1.50104">
        <ele>203.79</ele>
        <time>2025-05-07T15:23:37.037Z</time>
      </trkpt>
      <trkpt lat="43.26284" lon="-1.50108">
        <ele>203.57</ele>
        <time>2025-05-07T15:23:45.623Z</time>
      </trkpt>
      <trkpt lat="43.26279" lon="-1.50114">
        <ele>203.32</ele>
        <time>2025-05-07T15:23:54.215Z</time>
      </trkpt>
      <trkpt lat="43.26271" lon="-1.50127">
        <ele>203.05</ele>
        <time>2025-05-07T15:24:02.817Z</time>
      </trkpt>
      <trkpt lat="43.26265" lon="-1.50137">
        <ele>202.81</ele>
        <time>2025-05-07T15:24:11.427Z</time>
      </trkpt>
      <trkpt lat="43.26254" lon="-1.50145">
        <ele>202.71</ele>
        <time>2025-05-07T15:24:20.048Z</time>
      </trkpt>
      <trkpt lat="43.26248" lon="-1.50151">
        <ele>202.61</ele>
        <time>2025-05-07T15:24:28.676Z</time>
      </trkpt>
      <trkpt lat="43.2624" lon="-1.50156">
        <ele>202.53</ele>
        <time>2025-05-07T15:24:37.310Z</time>
      </trkpt>
      <trkpt lat="43.2623" lon="-1.5016">
        <ele>202.46</ele>
        <time>2025-05-07T15:24:45.954Z</time>
      </trkpt>
      <trkpt lat="43.2622" lon="-1.50164">
        <ele>202.41</ele>
        <time>2025-05-07T15:24:54.607Z</time>
      </trkpt>
      <trkpt lat="43.26213" lon="-1.50165">
        <ele>202.34</ele>
        <time>2025-05-07T15:25:03.265Z</time>
      </trkpt>
      <trkpt lat="43.26198" lon="-1.50171">
        <ele>202.24</ele>
        <time>2025-05-07T15:25:11.937Z</time>
      </trkpt>
      <trkpt lat="43.26186" lon="-1.50177">
        <ele>202.09</ele>
        <time>2025-05-07T15:25:20.619Z</time>
      </trkpt>
      <trkpt lat="43.26174" lon="-1.50181">
        <ele>202.04</ele>
        <time>2025-05-07T15:25:29.313Z</time>
      </trkpt>
      <trkpt lat="43.26176" lon="-1.50185">
        <ele>201.74</ele>
        <time>2025-05-07T15:25:38.010Z</time>
      </trkpt>
      <trkpt lat="43.26178" lon="-1.50186">
        <ele>201.47</ele>
        <time>2025-05-07T15:25:46.708Z</time>
      </trkpt>
      <trkpt lat="43.2618" lon="-1.50188">
        <ele>201.13</ele>
        <time>2025-05-07T15:25:55.408Z</time>
      </trkpt>
      <trkpt lat="43.26181" lon="-1.50189">
        <ele>200.76</ele>
        <time>2025-05-07T15:26:04.110Z</time>
      </trkpt>
      <trkpt lat="43.26185" lon="-1.50191">
        <ele>200.29</ele>
        <time>2025-05-07T15:26:12.815Z</time>
      </trkpt>
      <trkpt lat="43.26188" lon="-1.5019">
        <ele>199.84</ele>
        <time>2025-05-07T15:26:21.523Z</time>
      </trkpt>
      <trkpt lat="43.26193" lon="-1.50189">
        <ele>199.36</ele>
        <time>2025-05-07T15:26:30.235Z</time>
      </trkpt>
      <trkpt lat="43.262" lon="-1.5019">
        <ele>198.78</ele>
        <time>2025-05-07T15:26:38.953Z</time>
      </trkpt>
      <trkpt lat="43.26207" lon="-1.50191">
        <ele>198.17</ele>
        <time>2025-05-07T15:26:47.677Z</time>
      </trkpt>
      <trkpt lat="43.26213" lon="-1.50189">
        <ele>197.54</ele>
        <time>2025-05-07T15:26:56.407Z</time>
      </trkpt>
      <trkpt lat="43.26221" lon="-1.50187">
        <ele>196.83</ele>
        <time>2025-05-07T15:27:05.144Z</time>
      </trkpt>
      <trkpt lat="43.2623" lon="-1.50186">
        <ele>196.06</ele>
        <time>2025-05-07T15:27:13.888Z</time>
      </trkpt>
      <trkpt lat="43.26244" lon="-1.50178">
        <ele>195.29</ele>
        <time>2025-05-07T15:27:22.645Z</time>
      </trkpt>
      <trkpt lat="43.26253" lon="-1.50178">
        <ele>194.32</ele>
        <time>2025-05-07T15:27:31.409Z</time>
      </trkpt>
      <trkpt lat="43.26258" lon="-1.50178">
        <ele>193.38</ele>
        <time>2025-05-07T15:27:40.177Z</time>
      </trkpt>
      <trkpt lat="43.26264" lon="-1.50176">
        <ele>192.4</ele>
        <time>2025-05-07T15:27:48.951Z</time>
      </trkpt>
      <trkpt lat="43.2627" lon="-1.50176">
        <ele>191.38</ele>
        <time>2025-05-07T15:27:57.730Z</time>
      </trkpt>
      <trkpt lat="43.26278" lon="-1.50173">
        <ele>190.34</ele>
        <time>2025-05-07T15:28:06.516Z</time>
      </trkpt>
      <trkpt lat="43.26284" lon="-1.50171">
        <ele>189.3</ele>
        <time>2025-05-07T15:28:15.308Z</time>
      </trkpt>
      <trkpt lat="43.2629" lon="-1.50168">
        <ele>188.27</ele>
        <time>2025-05-07T15:28:24.105Z</time>
      </trkpt>
      <trkpt lat="43.26295" lon="-1.50166">
        <ele>187.23</ele>
        <time>2025-05-07T15:28:32.906Z</time>
      </trkpt>
      <trkpt lat="43.26298" lon="-1.50166">
        <ele>186.21</ele>
        <time>2025-05-07T15:28:41.710Z</time>
      </trkpt>
      <trkpt lat="43.26305" lon="-1.50165">
        <ele>185.17</ele>
        <time>2025-05-07T15:28:50.519Z</time>
      </trkpt>
      <trkpt lat="43.26311" lon="-1.50164">
        <ele>184.16</ele>
        <time>2025-05-07T15:28:59.334Z</time>
      </trkpt>
      <trkpt lat="43.26315" lon="-1.50163">
        <ele>183.17</ele>
        <time>2025-05-07T15:29:08.152Z</time>
      </trkpt>
      <trkpt lat="43.26319" lon="-1.50164">
        <ele>182.15</ele>
        <time>2025-05-07T15:29:16.974Z</time>
      </trkpt>
      <trkpt lat="43.26322" lon="-1.50164">
        <ele>181.17</ele>
        <time>2025-05-07T15:29:25.798Z</time>
      </trkpt>
      <trkpt lat="43.26326" lon="-1.50166">
        <ele>180.16</ele>
        <time>2025-05-07T15:29:34.626Z</time>
      </trkpt>
      <trkpt lat="43.26328" lon="-1.50163">
        <ele>179.23</ele>
        <time>2025-05-07T15:29:43.456Z</time>
      </trkpt>
      <trkpt lat="43.2633" lon="-1.50161">
        <ele>178.28</ele>
        <time>2025-05-07T15:29:52.288Z</time>
      </trkpt>
      <trkpt lat="43.26331" lon="-1.5016">
        <ele>177.34</ele>
        <time>2025-05-07T15:30:01.121Z</time>
      </trkpt>
      <trkpt lat="43.26334" lon="-1.50158">
        <ele>176.38</ele>
        <time>2025-05-07T15:30:09.957Z</time>
      </trkpt>
      <trkpt lat="43.26338" lon="-1.50155">
        <ele>175.4</ele>
        <time>2025-05-07T15:30:18.797Z</time>
      </trkpt>
      <trkpt lat="43.26342" lon="-1.50157">
        <ele>174.37</ele>
        <time>2025-05-07T15:30:27.641Z</time>
      </trkpt>
      <trkpt lat="43.26347" lon="-1.5016">
        <ele>173.34</ele>
        <time>2025-05-07T15:30:36.489Z</time>
      </trkpt>
      <trkpt lat="43.26353" lon="-1.50162">
        <ele>172.31</ele>
        <time>2025-05-07T15:30:45.342Z</time>
      </trkpt>
      <trkpt lat="43.26357" lon="-1.50161">
        <ele>171.34</ele>
        <time>2025-05-07T15:30:54.199Z</time>
      </trkpt>
      <trkpt lat="43.26362" lon="-1.5016">
        <ele>170.38</ele>
        <time>2025-05-07T15:31:03.060Z</time>
      </trkpt>
      <trkpt lat="43.26369" lon="-1.5016">
        <ele>169.41</ele>
        <time>2025-05-07T15:31:11.927Z</time>
      </trkpt>
      <trkpt lat="43.26374" lon="-1.5016">
        <ele>168.46</ele>
        <time>2025-05-07T15:31:20.798Z</time>
      </trkpt>
      <trkpt lat="43.2638" lon="-1.50159">
        <ele>167.52</ele>
        <time>2025-05-07T15:31:29.675Z</time>
      </trkpt>
      <trkpt lat="43.26384" lon="-1.50157">
        <ele>166.62</ele>
        <time>2025-05-07T15:31:38.555Z</time>
      </trkpt>
      <trkpt lat="43.26389" lon="-1.50155">
        <ele>165.72</ele>
        <time>2025-05-07T15:31:47.439Z</time>
      </trkpt>
      <trkpt lat="43.26394" lon="-1.5015">
        <ele>164.83</ele>
        <time>2025-05-07T15:31:56.329Z</time>
      </trkpt>
      <trkpt lat="43.26397" lon="-1.50149">
        <ele>163.92</ele>
        <time>2025-05-07T15:32:05.221Z</time>
      </trkpt>
      <trkpt lat="43.26399" lon="-1.50149">
        <ele>163.01</ele>
        <time>2025-05-07T15:32:14.115Z</time>
      </trkpt>
      <trkpt lat="43.26403" lon="-1.50147">
        <ele>162.07</ele>
        <time>2025-05-07T15:32:23.012Z</time>
      </trkpt>
      <trkpt lat="43.26406" lon="-1.50146">
        <ele>161.12</ele>
        <time>2025-05-07T15:32:31.912Z</time>
      </trkpt>
      <trkpt lat="43.26411" lon="-1.50149">
        <ele>160.09</ele>
        <time>2025-05-07T15:32:40.817Z</time>
      </trkpt>
      <trkpt lat="43.26417" lon="-1.5015">
        <ele>159.02</ele>
        <time>2025-05-07T15:32:49.727Z</time>
      </trkpt>
      <trkpt lat="43.26422" lon="-1.50155">
        <ele>157.94</ele>
        <time>2025-05-07T15:32:58.642Z</time>
      </trkpt>
      <trkpt lat="43.26425" lon="-1.50161">
        <ele>156.9</ele>
        <time>2025-05-07T15:33:07.562Z</time>
      </trkpt>
      <trkpt lat="43.26427" lon="-1.50174">
        <ele>155.83</ele>
        <time>2025-05-07T15:33:16.490Z</time>
      </trkpt>
      <trkpt lat="43.26428" lon="-1.50183">
        <ele>154.76</ele>
        <time>2025-05-07T15:33:25.424Z</time>
      </trkpt>
      <trkpt lat="43.26429" lon="-1.50194">
        <ele>153.7</ele>
        <time>2025-05-07T15:33:34.364Z</time>
      </trkpt>
      <trkpt lat="43.26423" lon="-1.50212">
        <ele>152.7</ele>
        <time>2025-05-07T15:33:43.316Z</time>
      </trkpt>
      <trkpt lat="43.26415" lon="-1.50225">
        <ele>151.75</ele>
        <time>2025-05-07T15:33:52.279Z</time>
      </trkpt>
      <trkpt lat="43.26407" lon="-1.50235">
        <ele>150.79</ele>
        <time>2025-05-07T15:34:01.251Z</time>
      </trkpt>
      <trkpt lat="43.264" lon="-1.50241">
        <ele>149.83</ele>
        <time>2025-05-07T15:34:10.230Z</time>
      </trkpt>
      <trkpt lat="43.26394" lon="-1.50245">
        <ele>148.84</ele>
        <time>2025-05-07T15:34:19.215Z</time>
      </trkpt>
      <trkpt lat="43.26391" lon="-1.50248">
        <ele>147.79</ele>
        <time>2025-05-07T15:34:28.203Z</time>
      </trkpt>
      <trkpt lat="43.26389" lon="-1.50252">
        <ele>146.66</ele>
        <time>2025-05-07T15:34:37.194Z</time>
      </trkpt>
      <trkpt lat="43.26392" lon="-1.50258">
        <ele>145.4</ele>
        <time>2025-05-07T15:34:46.189Z</time>
      </trkpt>
      <trkpt lat="43.26395" lon="-1.50262">
        <ele>144.17</ele>
        <time>2025-05-07T15:34:55.188Z</time>
      </trkpt>
      <trkpt lat="43.26398" lon="-1.50264">
        <ele>142.95</ele>
        <time>2025-05-07T15:35:04.190Z</time>
      </trkpt>
      <trkpt lat="43.26403" lon="-1.50264">
        <ele>141.71</ele>
        <time>2025-05-07T15:35:13.196Z</time>
      </trkpt>
      <trkpt lat="43.26407" lon="-1.50265">
        <ele>140.44</ele>
        <time>2025-05-07T15:35:22.205Z</time>
      </trkpt>
      <trkpt lat="43.2641" lon="-1.50265">
        <ele>139.21</ele>
        <time>2025-05-07T15:35:31.217Z</time>
      </trkpt>
      <trkpt lat="43.26414" lon="-1.50267">
        <ele>137.89</ele>
        <time>2025-05-07T15:35:40.233Z</time>
      </trkpt>
      <trkpt lat="43.26415" lon="-1.50268">
        <ele>136.66</ele>
        <time>2025-05-07T15:35:49.250Z</time>
      </trkpt>
      <trkpt lat="43.26418" lon="-1.50268">
        <ele>135.37</ele>
        <time>2025-05-07T15:35:58.269Z</time>
      </trkpt>
      <trkpt lat="43.26421" lon="-1.5027">
        <ele>134.01</ele>
        <time>2025-05-07T15:36:07.291Z</time>
      </trkpt>
      <trkpt lat="43.26426" lon="-1.50272">
        <ele>132.62</ele>
        <time>2025-05-07T15:36:16.318Z</time>
      </trkpt>
      <trkpt lat="43.26432" lon="-1.50269">
        <ele>131.34</ele>
        <time>2025-05-07T15:36:25.350Z</time>
      </trkpt>
      <trkpt lat="43.26439" lon="-1.50267">
        <ele>130.02</ele>
        <time>2025-05-07T15:36:34.388Z</time>
      </trkpt>
      <trkpt lat="43.26443" lon="-1.50262">
        <ele>128.77</ele>
        <time>2025-05-07T15:36:43.430Z</time>
      </trkpt>
      <trkpt lat="43.26447" lon="-1.50259">
        <ele>127.47</ele>
        <time>2025-05-07T15:36:52.476Z</time>
      </trkpt>
      <trkpt lat="43.26451" lon="-1.50258">
        <ele>126.11</ele>
        <time>2025-05-07T15:37:01.526Z</time>
      </trkpt>
      <trkpt lat="43.26457" lon="-1.50257">
        <ele>124.71</ele>
        <time>2025-05-07T15:37:10.581Z</time>
      </trkpt>
      <trkpt lat="43.26462" lon="-1.50256">
        <ele>123.38</ele>
        <time>2025-05-07T15:37:19.641Z</time>
      </trkpt>
      <trkpt lat="43.26468" lon="-1.50256">
        <ele>122.07</ele>
        <time>2025-05-07T15:37:28.706Z</time>
      </trkpt>
      <trkpt lat="43.26473" lon="-1.50254">
        <ele>120.86</ele>
        <time>2025-05-07T15:37:37.775Z</time>
      </trkpt>
      <trkpt lat="43.26475" lon="-1.50254">
        <ele>119.69</ele>
        <time>2025-05-07T15:37:46.845Z</time>
      </trkpt>
      <trkpt lat="43.26481" lon="-1.50253">
        <ele>118.45</ele>
        <time>2025-05-07T15:37:55.921Z</time>
      </trkpt>
      <trkpt lat="43.26489" lon="-1.50247">
        <ele>117.31</ele>
        <time>2025-05-07T15:38:05.004Z</time>
      </trkpt>
      <trkpt lat="43.26496" lon="-1.50241">
        <ele>116.19</ele>
        <time>2025-05-07T15:38:14.094Z</time>
      </trkpt>
      <trkpt lat="43.265" lon="-1.50234">
        <ele>115.12</ele>
        <time>2025-05-07T15:38:23.190Z</time>
      </trkpt>
      <trkpt lat="43.26505" lon="-1.50225">
        <ele>114.09</ele>
        <time>2025-05-07T15:38:32.293Z</time>
      </trkpt>
      <trkpt lat="43.26512" lon="-1.50214">
        <ele>112.9</ele>
        <time>2025-05-07T15:38:41.405Z</time>
      </trkpt>
      <trkpt lat="43.2652" lon="-1.50205">
        <ele>111.75</ele>
        <time>2025-05-07T15:38:50.525Z</time>
      </trkpt>
      <trkpt lat="43.2652" lon="-1.50203">
        <ele>110.84</ele>
        <time>2025-05-07T15:38:59.647Z</time>
      </trkpt>
      <trkpt lat="43.26522" lon="-1.50197">
        <ele>109.91</ele>
        <time>2025-05-07T15:39:08.773Z</time>
      </trkpt>
      <trkpt lat="43.26525" lon="-1.5019">
        <ele>109.03</ele>
        <time>2025-05-07T15:39:17.904Z</time>
      </trkpt>
      <trkpt lat="43.26528" lon="-1.50186">
        <ele>108.2</ele>
        <time>2025-05-07T15:39:27.039Z</time>
      </trkpt>
      <trkpt lat="43.26532" lon="-1.50182">
        <ele>107.41</ele>
        <time>2025-05-07T15:39:36.178Z</time>
      </trkpt>
      <trkpt lat="43.26537" lon="-1.50175">
        <ele>106.68</ele>
        <time>2025-05-07T15:39:45.322Z</time>
      </trkpt>
      <trkpt lat="43.26539" lon="-1.5017">
        <ele>106.07</ele>
        <time>2025-05-07T15:39:54.470Z</time>
      </trkpt>
      <trkpt lat="43.26541" lon="-1.50165">
        <ele>105.51</ele>
        <time>2025-05-07T15:40:03.622Z</time>
      </trkpt>
      <trkpt lat="43.26548" lon="-1.5016">
        <ele>104.91</ele>
        <time>2025-05-07T15:40:12.781Z</time>
      </trkpt>
      <trkpt lat="43.26555" lon="-1.50153">
        <ele>104.54</ele>
        <time>2025-05-07T15:40:21.947Z</time>
      </trkpt>
      <trkpt lat="43.26558" lon="-1.50153">
        <ele>104.14</ele>
        <time>2025-05-07T15:40:31.116Z</time>
      </trkpt>
      <trkpt lat="43.26563" lon="-1.50156">
        <ele>103.71</ele>
        <time>2025-05-07T15:40:40.289Z</time>
      </trkpt>
      <trkpt lat="43.2657" lon="-1.50166">
        <ele>103.24</ele>
        <time>2025-05-07T15:40:49.471Z</time>
      </trkpt>
      <trkpt lat="43.26583" lon="-1.50168">
        <ele>102.87</ele>
        <time>2025-05-07T15:40:58.664Z</time>
      </trkpt>
      <trkpt lat="43.26602" lon="-1.50168">
        <ele>102.48</ele>
        <time>2025-05-07T15:41:07.873Z</time>
      </trkpt>
      <trkpt lat="43.26614" lon="-1.50178">
        <ele>101.81</ele>
        <time>2025-05-07T15:41:17.094Z</time>
      </trkpt>
      <trkpt lat="43.26627" lon="-1.50195">
        <ele>100.85</ele>
        <time>2025-05-07T15:41:26.330Z</time>
      </trkpt>
      <trkpt lat="43.26637" lon="-1.50217">
        <ele>99.99</ele>
        <time>2025-05-07T15:41:35.583Z</time>
      </trkpt>
      <trkpt lat="43.2664" lon="-1.50222">
        <ele>99.56</ele>
        <time>2025-05-07T15:41:44.839Z</time>
      </trkpt>
      <trkpt lat="43.26651" lon="-1.50241">
        <ele>99.26</ele>
        <time>2025-05-07T15:41:54.111Z</time>
      </trkpt>
      <trkpt lat="43.26658" lon="-1.50254">
        <ele>98.74</ele>
        <time>2025-05-07T15:42:03.392Z</time>
      </trkpt>
      <trkpt lat="43.26669" lon="-1.50268">
        <ele>98.28</ele>
        <time>2025-05-07T15:42:12.686Z</time>
      </trkpt>
      <trkpt lat="43.26684" lon="-1.50283">
        <ele>97.78</ele>
        <time>2025-05-07T15:42:21.996Z</time>
      </trkpt>
      <trkpt lat="43.26687" lon="-1.5029">
        <ele>97.64</ele>
        <time>2025-05-07T15:42:31.311Z</time>
      </trkpt>
      <trkpt lat="43.26678" lon="-1.50312">
        <ele>97.6</ele>
        <time>2025-05-07T15:42:40.642Z</time>
      </trkpt>
      <trkpt lat="43.26666" lon="-1.50318">
        <ele>97.55</ele>
        <time>2025-05-07T15:42:49.984Z</time>
      </trkpt>
      <trkpt lat="43.26664" lon="-1.50316">
        <ele>97.43</ele>
        <time>2025-05-07T15:42:59.328Z</time>
      </trkpt>
    </trkseg>
  </trk>
</gpx>